<?xml version="1.0" encoding="UTF-8" standalone="no" ?>
<gpx xmlns="http://www.topografix.com/GPX/1/1" xmlns:xsi="http://www.w3.org/2001/XMLSchema-instance" xsi:schemaLocation="http://www.topografix.com/GPX/1/1 http://www.topografix.com/GPX/1/1/gpx.xsd" version="1.1" creator="VisuGPX - https://www.visugpx.com">
  <metadata>
    <name>sortie vtt dimanche</name>
    <desc><![CDATA[sous l\'orage :)]]></desc>
  </metadata>
  <trk>
    <name><![CDATA[vtt valmasque avec Aga]]></name>
    <desc><![CDATA[sous l'orage]]></desc>
    <trkseg>
      <trkpt lat="43.61957" lon="7.10049">
        <ele>22.39999961853</ele>
        <time>2011-09-04T14:24:13.000Z</time>
      </trkpt>
      <trkpt lat="43.61955" lon="7.10032">
        <ele>23</ele>
        <time>2011-09-04T14:24:18.000Z</time>
      </trkpt>
      <trkpt lat="43.61957" lon="7.1001">
        <ele>23</ele>
        <time>2011-09-04T14:24:25.000Z</time>
      </trkpt>
      <trkpt lat="43.61962" lon="7.09992">
        <ele>22.60000038147</ele>
        <time>2011-09-04T14:24:31.000Z</time>
      </trkpt>
      <trkpt lat="43.6196" lon="7.09965">
        <ele>23.60000038147</ele>
        <time>2011-09-04T14:24:38.000Z</time>
      </trkpt>
      <trkpt lat="43.61954" lon="7.09938">
        <ele>25</ele>
        <time>2011-09-04T14:24:45.000Z</time>
      </trkpt>
      <trkpt lat="43.61946" lon="7.09912">
        <ele>26.60000038147</ele>
        <time>2011-09-04T14:24:53.000Z</time>
      </trkpt>
      <trkpt lat="43.61945" lon="7.09909">
        <ele>27</ele>
        <time>2011-09-04T14:24:54.000Z</time>
      </trkpt>
      <trkpt lat="43.61935" lon="7.09888">
        <ele>29.200000762939</ele>
        <time>2011-09-04T14:25:02.000Z</time>
      </trkpt>
      <trkpt lat="43.61934" lon="7.09886">
        <ele>29.60000038147</ele>
        <time>2011-09-04T14:25:03.000Z</time>
      </trkpt>
      <trkpt lat="43.61927" lon="7.09869">
        <ele>31.200000762939</ele>
        <time>2011-09-04T14:25:10.000Z</time>
      </trkpt>
      <trkpt lat="43.61919" lon="7.09854">
        <ele>32.599998474121</ele>
        <time>2011-09-04T14:25:19.000Z</time>
      </trkpt>
      <trkpt lat="43.61914" lon="7.09832">
        <ele>34.599998474121</ele>
        <time>2011-09-04T14:25:26.000Z</time>
      </trkpt>
      <trkpt lat="43.6192" lon="7.09818">
        <ele>34.200000762939</ele>
        <time>2011-09-04T14:25:33.000Z</time>
      </trkpt>
      <trkpt lat="43.6192" lon="7.09807">
        <ele>34.599998474121</ele>
        <time>2011-09-04T14:25:39.000Z</time>
      </trkpt>
      <trkpt lat="43.6192" lon="7.09797">
        <ele>35.200000762939</ele>
        <time>2011-09-04T14:25:46.000Z</time>
      </trkpt>
      <trkpt lat="43.61917" lon="7.09786">
        <ele>35.599998474121</ele>
        <time>2011-09-04T14:25:53.000Z</time>
      </trkpt>
      <trkpt lat="43.61918" lon="7.09777">
        <ele>36</ele>
        <time>2011-09-04T14:25:59.000Z</time>
      </trkpt>
      <trkpt lat="43.61919" lon="7.09777">
        <ele>36</ele>
        <time>2011-09-04T14:26:00.000Z</time>
      </trkpt>
      <trkpt lat="43.61916" lon="7.09774">
        <ele>36</ele>
        <time>2011-09-04T14:26:03.000Z</time>
      </trkpt>
      <trkpt lat="43.61915" lon="7.09773">
        <ele>36.400001525879</ele>
        <time>2011-09-04T14:26:04.000Z</time>
      </trkpt>
      <trkpt lat="43.61913" lon="7.09768">
        <ele>37</ele>
        <time>2011-09-04T14:26:08.000Z</time>
      </trkpt>
      <trkpt lat="43.61904" lon="7.09753">
        <ele>38.799999237061</ele>
        <time>2011-09-04T14:26:14.000Z</time>
      </trkpt>
      <trkpt lat="43.61898" lon="7.0974">
        <ele>40</ele>
        <time>2011-09-04T14:26:20.000Z</time>
      </trkpt>
      <trkpt lat="43.61897" lon="7.0974">
        <ele>40</ele>
        <time>2011-09-04T14:26:21.000Z</time>
      </trkpt>
      <trkpt lat="43.61897" lon="7.09736">
        <ele>40.200000762939</ele>
        <time>2011-09-04T14:26:25.000Z</time>
      </trkpt>
      <trkpt lat="43.61899" lon="7.09736">
        <ele>40</ele>
        <time>2011-09-04T14:26:26.000Z</time>
      </trkpt>
      <trkpt lat="43.61898" lon="7.09726">
        <ele>40.200000762939</ele>
        <time>2011-09-04T14:26:33.000Z</time>
      </trkpt>
      <trkpt lat="43.61897" lon="7.09722">
        <ele>40.400001525879</ele>
        <time>2011-09-04T14:26:37.000Z</time>
      </trkpt>
      <trkpt lat="43.61899" lon="7.0972">
        <ele>40.200000762939</ele>
        <time>2011-09-04T14:26:39.000Z</time>
      </trkpt>
      <trkpt lat="43.61899" lon="7.09714">
        <ele>40.200000762939</ele>
        <time>2011-09-04T14:26:42.000Z</time>
      </trkpt>
      <trkpt lat="43.61893" lon="7.097">
        <ele>41.400001525879</ele>
        <time>2011-09-04T14:26:48.000Z</time>
      </trkpt>
      <trkpt lat="43.61891" lon="7.09698">
        <ele>41.599998474121</ele>
        <time>2011-09-04T14:26:49.000Z</time>
      </trkpt>
      <trkpt lat="43.61877" lon="7.09683">
        <ele>43.599998474121</ele>
        <time>2011-09-04T14:26:58.000Z</time>
      </trkpt>
      <trkpt lat="43.61865" lon="7.09679">
        <ele>45</ele>
        <time>2011-09-04T14:27:05.000Z</time>
      </trkpt>
      <trkpt lat="43.61856" lon="7.09678">
        <ele>46.200000762939</ele>
        <time>2011-09-04T14:27:13.000Z</time>
      </trkpt>
      <trkpt lat="43.61849" lon="7.09676">
        <ele>47</ele>
        <time>2011-09-04T14:27:19.000Z</time>
      </trkpt>
      <trkpt lat="43.61837" lon="7.09671">
        <ele>48.400001525879</ele>
        <time>2011-09-04T14:27:28.000Z</time>
      </trkpt>
      <trkpt lat="43.6183" lon="7.09668">
        <ele>49.400001525879</ele>
        <time>2011-09-04T14:27:34.000Z</time>
      </trkpt>
      <trkpt lat="43.61823" lon="7.09665">
        <ele>50.200000762939</ele>
        <time>2011-09-04T14:27:39.000Z</time>
      </trkpt>
      <trkpt lat="43.61817" lon="7.09666">
        <ele>50.799999237061</ele>
        <time>2011-09-04T14:27:44.000Z</time>
      </trkpt>
      <trkpt lat="43.61813" lon="7.09666">
        <ele>51.400001525879</ele>
        <time>2011-09-04T14:27:51.000Z</time>
      </trkpt>
      <trkpt lat="43.61809" lon="7.09661">
        <ele>52.200000762939</ele>
        <time>2011-09-04T14:27:58.000Z</time>
      </trkpt>
      <trkpt lat="43.61806" lon="7.09656">
        <ele>52.799999237061</ele>
        <time>2011-09-04T14:28:02.000Z</time>
      </trkpt>
      <trkpt lat="43.61801" lon="7.09653">
        <ele>53.599998474121</ele>
        <time>2011-09-04T14:28:05.000Z</time>
      </trkpt>
      <trkpt lat="43.61799" lon="7.09653">
        <ele>53.799999237061</ele>
        <time>2011-09-04T14:28:06.000Z</time>
      </trkpt>
      <trkpt lat="43.61797" lon="7.09653">
        <ele>54</ele>
        <time>2011-09-04T14:28:11.000Z</time>
      </trkpt>
      <trkpt lat="43.61795" lon="7.09653">
        <ele>54.400001525879</ele>
        <time>2011-09-04T14:28:17.000Z</time>
      </trkpt>
      <trkpt lat="43.61791" lon="7.09651">
        <ele>54.799999237061</ele>
        <time>2011-09-04T14:28:24.000Z</time>
      </trkpt>
      <trkpt lat="43.61787" lon="7.09646">
        <ele>55.599998474121</ele>
        <time>2011-09-04T14:28:34.000Z</time>
      </trkpt>
      <trkpt lat="43.61784" lon="7.09644">
        <ele>56.200000762939</ele>
        <time>2011-09-04T14:28:41.000Z</time>
      </trkpt>
      <trkpt lat="43.61781" lon="7.09644">
        <ele>56.599998474121</ele>
        <time>2011-09-04T14:28:46.000Z</time>
      </trkpt>
      <trkpt lat="43.61773" lon="7.09642">
        <ele>57.799999237061</ele>
        <time>2011-09-04T14:28:53.000Z</time>
      </trkpt>
      <trkpt lat="43.61763" lon="7.09645">
        <ele>58.799999237061</ele>
        <time>2011-09-04T14:29:00.000Z</time>
      </trkpt>
      <trkpt lat="43.61752" lon="7.09645">
        <ele>60.200000762939</ele>
        <time>2011-09-04T14:29:06.000Z</time>
      </trkpt>
      <trkpt lat="43.61745" lon="7.09648">
        <ele>61</ele>
        <time>2011-09-04T14:29:12.000Z</time>
      </trkpt>
      <trkpt lat="43.61741" lon="7.09652">
        <ele>61.200000762939</ele>
        <time>2011-09-04T14:29:18.000Z</time>
      </trkpt>
      <trkpt lat="43.61745" lon="7.09652">
        <ele>60.799999237061</ele>
        <time>2011-09-04T14:29:24.000Z</time>
      </trkpt>
      <trkpt lat="43.61748" lon="7.09652">
        <ele>60.400001525879</ele>
        <time>2011-09-04T14:29:27.000Z</time>
      </trkpt>
      <trkpt lat="43.61749" lon="7.09648">
        <ele>60.400001525879</ele>
        <time>2011-09-04T14:29:30.000Z</time>
      </trkpt>
      <trkpt lat="43.61749" lon="7.0964">
        <ele>61</ele>
        <time>2011-09-04T14:29:33.000Z</time>
      </trkpt>
      <trkpt lat="43.61749" lon="7.09635">
        <ele>61.200000762939</ele>
        <time>2011-09-04T14:29:35.000Z</time>
      </trkpt>
      <trkpt lat="43.61753" lon="7.09634">
        <ele>60.799999237061</ele>
        <time>2011-09-04T14:29:40.000Z</time>
      </trkpt>
      <trkpt lat="43.61753" lon="7.09637">
        <ele>60.599998474121</ele>
        <time>2011-09-04T14:29:42.000Z</time>
      </trkpt>
      <trkpt lat="43.61755" lon="7.09638">
        <ele>60.400001525879</ele>
        <time>2011-09-04T14:29:47.000Z</time>
      </trkpt>
      <trkpt lat="43.61755" lon="7.09635">
        <ele>60.599998474121</ele>
        <time>2011-09-04T14:29:49.000Z</time>
      </trkpt>
      <trkpt lat="43.61751" lon="7.09628">
        <ele>61.599998474121</ele>
        <time>2011-09-04T14:29:52.000Z</time>
      </trkpt>
      <trkpt lat="43.61753" lon="7.09619">
        <ele>61.799999237061</ele>
        <time>2011-09-04T14:29:57.000Z</time>
      </trkpt>
      <trkpt lat="43.61749" lon="7.09617">
        <ele>62.599998474121</ele>
        <time>2011-09-04T14:30:01.000Z</time>
      </trkpt>
      <trkpt lat="43.61747" lon="7.09616">
        <ele>63</ele>
        <time>2011-09-04T14:30:03.000Z</time>
      </trkpt>
      <trkpt lat="43.61738" lon="7.0961">
        <ele>64.400001525879</ele>
        <time>2011-09-04T14:30:10.000Z</time>
      </trkpt>
      <trkpt lat="43.61734" lon="7.09601">
        <ele>65.400001525879</ele>
        <time>2011-09-04T14:30:16.000Z</time>
      </trkpt>
      <trkpt lat="43.61734" lon="7.096">
        <ele>65.599998474121</ele>
        <time>2011-09-04T14:30:23.000Z</time>
      </trkpt>
      <trkpt lat="43.61733" lon="7.09594">
        <ele>66</ele>
        <time>2011-09-04T14:30:31.000Z</time>
      </trkpt>
      <trkpt lat="43.61736" lon="7.09588">
        <ele>66.199996948242</ele>
        <time>2011-09-04T14:30:39.000Z</time>
      </trkpt>
      <trkpt lat="43.61739" lon="7.09586">
        <ele>66</ele>
        <time>2011-09-04T14:30:45.000Z</time>
      </trkpt>
      <trkpt lat="43.61745" lon="7.09583">
        <ele>65.599998474121</ele>
        <time>2011-09-04T14:31:11.000Z</time>
      </trkpt>
      <trkpt lat="43.61743" lon="7.09585">
        <ele>65.599998474121</ele>
        <time>2011-09-04T14:31:18.000Z</time>
      </trkpt>
      <trkpt lat="43.61742" lon="7.09583">
        <ele>65.800003051758</ele>
        <time>2011-09-04T14:31:20.000Z</time>
      </trkpt>
      <trkpt lat="43.61741" lon="7.09582">
        <ele>66</ele>
        <time>2011-09-04T14:31:24.000Z</time>
      </trkpt>
      <trkpt lat="43.61737" lon="7.09577">
        <ele>67</ele>
        <time>2011-09-04T14:32:52.000Z</time>
      </trkpt>
      <trkpt lat="43.61737" lon="7.09581">
        <ele>66.599998474121</ele>
        <time>2011-09-04T14:32:58.000Z</time>
      </trkpt>
      <trkpt lat="43.61736" lon="7.09581">
        <ele>66.599998474121</ele>
        <time>2011-09-04T14:33:04.000Z</time>
      </trkpt>
      <trkpt lat="43.61737" lon="7.09583">
        <ele>66.400001525879</ele>
        <time>2011-09-04T14:33:11.000Z</time>
      </trkpt>
      <trkpt lat="43.61735" lon="7.0958">
        <ele>66.800003051758</ele>
        <time>2011-09-04T14:33:15.000Z</time>
      </trkpt>
      <trkpt lat="43.61736" lon="7.09581">
        <ele>66.599998474121</ele>
        <time>2011-09-04T14:33:16.000Z</time>
      </trkpt>
      <trkpt lat="43.61743" lon="7.09583">
        <ele>65.599998474121</ele>
        <time>2011-09-04T14:33:27.000Z</time>
      </trkpt>
      <trkpt lat="43.61746" lon="7.09584">
        <ele>65.199996948242</ele>
        <time>2011-09-04T14:33:29.000Z</time>
      </trkpt>
      <trkpt lat="43.61745" lon="7.09585">
        <ele>65.400001525879</ele>
        <time>2011-09-04T14:33:35.000Z</time>
      </trkpt>
      <trkpt lat="43.61743" lon="7.09584">
        <ele>65.599998474121</ele>
        <time>2011-09-04T14:33:38.000Z</time>
      </trkpt>
      <trkpt lat="43.61742" lon="7.09584">
        <ele>65.599998474121</ele>
        <time>2011-09-04T14:33:43.000Z</time>
      </trkpt>
      <trkpt lat="43.6174" lon="7.09583">
        <ele>66</ele>
        <time>2011-09-04T14:33:55.000Z</time>
      </trkpt>
      <trkpt lat="43.61741" lon="7.09583">
        <ele>66</ele>
        <time>2011-09-04T14:34:00.000Z</time>
      </trkpt>
      <trkpt lat="43.61732" lon="7.09577">
        <ele>67.400001525879</ele>
        <time>2011-09-04T14:35:01.000Z</time>
      </trkpt>
      <trkpt lat="43.61732" lon="7.09578">
        <ele>67.199996948242</ele>
        <time>2011-09-04T14:35:05.000Z</time>
      </trkpt>
      <trkpt lat="43.61736" lon="7.09581">
        <ele>66.599998474121</ele>
        <time>2011-09-04T14:35:11.000Z</time>
      </trkpt>
      <trkpt lat="43.61733" lon="7.09582">
        <ele>66.800003051758</ele>
        <time>2011-09-04T14:35:24.000Z</time>
      </trkpt>
      <trkpt lat="43.61738" lon="7.09576">
        <ele>66.800003051758</ele>
        <time>2011-09-04T14:36:37.000Z</time>
      </trkpt>
      <trkpt lat="43.61741" lon="7.09578">
        <ele>66.400001525879</ele>
        <time>2011-09-04T14:37:03.000Z</time>
      </trkpt>
      <trkpt lat="43.61743" lon="7.09575">
        <ele>66.599998474121</ele>
        <time>2011-09-04T14:37:07.000Z</time>
      </trkpt>
      <trkpt lat="43.61747" lon="7.09574">
        <ele>66</ele>
        <time>2011-09-04T14:37:13.000Z</time>
      </trkpt>
      <trkpt lat="43.61749" lon="7.09573">
        <ele>66</ele>
        <time>2011-09-04T14:37:14.000Z</time>
      </trkpt>
      <trkpt lat="43.61757" lon="7.09569">
        <ele>65.400001525879</ele>
        <time>2011-09-04T14:37:20.000Z</time>
      </trkpt>
      <trkpt lat="43.61765" lon="7.09562">
        <ele>64.800003051758</ele>
        <time>2011-09-04T14:37:26.000Z</time>
      </trkpt>
      <trkpt lat="43.61768" lon="7.09561">
        <ele>64.199996948242</ele>
        <time>2011-09-04T14:37:29.000Z</time>
      </trkpt>
      <trkpt lat="43.6177" lon="7.09561">
        <ele>64</ele>
        <time>2011-09-04T14:37:32.000Z</time>
      </trkpt>
      <trkpt lat="43.61773" lon="7.09555">
        <ele>64</ele>
        <time>2011-09-04T14:37:39.000Z</time>
      </trkpt>
      <trkpt lat="43.61781" lon="7.09539">
        <ele>64</ele>
        <time>2011-09-04T14:37:46.000Z</time>
      </trkpt>
      <trkpt lat="43.61787" lon="7.09519">
        <ele>64.599998474121</ele>
        <time>2011-09-04T14:37:52.000Z</time>
      </trkpt>
      <trkpt lat="43.61783" lon="7.09493">
        <ele>67</ele>
        <time>2011-09-04T14:37:59.000Z</time>
      </trkpt>
      <trkpt lat="43.61777" lon="7.09468">
        <ele>68.199996948242</ele>
        <time>2011-09-04T14:38:07.000Z</time>
      </trkpt>
      <trkpt lat="43.61771" lon="7.0945">
        <ele>69.400001525879</ele>
        <time>2011-09-04T14:38:14.000Z</time>
      </trkpt>
      <trkpt lat="43.61765" lon="7.09432">
        <ele>70.199996948242</ele>
        <time>2011-09-04T14:38:21.000Z</time>
      </trkpt>
      <trkpt lat="43.6176" lon="7.09412">
        <ele>71.199996948242</ele>
        <time>2011-09-04T14:38:27.000Z</time>
      </trkpt>
      <trkpt lat="43.61758" lon="7.09384">
        <ele>70.800003051758</ele>
        <time>2011-09-04T14:38:35.000Z</time>
      </trkpt>
      <trkpt lat="43.61757" lon="7.09379">
        <ele>70.800003051758</ele>
        <time>2011-09-04T14:38:36.000Z</time>
      </trkpt>
      <trkpt lat="43.61752" lon="7.09351">
        <ele>70.400001525879</ele>
        <time>2011-09-04T14:38:43.000Z</time>
      </trkpt>
      <trkpt lat="43.61751" lon="7.09347">
        <ele>70.400001525879</ele>
        <time>2011-09-04T14:38:44.000Z</time>
      </trkpt>
      <trkpt lat="43.61741" lon="7.09326">
        <ele>71.599998474121</ele>
        <time>2011-09-04T14:38:49.000Z</time>
      </trkpt>
      <trkpt lat="43.61738" lon="7.09321">
        <ele>72.199996948242</ele>
        <time>2011-09-04T14:38:50.000Z</time>
      </trkpt>
      <trkpt lat="43.61724" lon="7.09306">
        <ele>74.599998474121</ele>
        <time>2011-09-04T14:38:56.000Z</time>
      </trkpt>
      <trkpt lat="43.61719" lon="7.09299">
        <ele>75.400001525879</ele>
        <time>2011-09-04T14:38:58.000Z</time>
      </trkpt>
      <trkpt lat="43.61704" lon="7.09284">
        <ele>77.199996948242</ele>
        <time>2011-09-04T14:39:04.000Z</time>
      </trkpt>
      <trkpt lat="43.61701" lon="7.0928">
        <ele>77.400001525879</ele>
        <time>2011-09-04T14:39:05.000Z</time>
      </trkpt>
      <trkpt lat="43.61692" lon="7.09264">
        <ele>78</ele>
        <time>2011-09-04T14:39:11.000Z</time>
      </trkpt>
      <trkpt lat="43.61684" lon="7.09241">
        <ele>77.599998474121</ele>
        <time>2011-09-04T14:39:17.000Z</time>
      </trkpt>
      <trkpt lat="43.61683" lon="7.09237">
        <ele>77.400001525879</ele>
        <time>2011-09-04T14:39:18.000Z</time>
      </trkpt>
      <trkpt lat="43.61674" lon="7.09214">
        <ele>76.400001525879</ele>
        <time>2011-09-04T14:39:24.000Z</time>
      </trkpt>
      <trkpt lat="43.61669" lon="7.09205">
        <ele>75.599998474121</ele>
        <time>2011-09-04T14:39:27.000Z</time>
      </trkpt>
      <trkpt lat="43.61657" lon="7.09183">
        <ele>75.400001525879</ele>
        <time>2011-09-04T14:39:35.000Z</time>
      </trkpt>
      <trkpt lat="43.61654" lon="7.0918">
        <ele>75.800003051758</ele>
        <time>2011-09-04T14:39:37.000Z</time>
      </trkpt>
      <trkpt lat="43.61641" lon="7.09169">
        <ele>77.400001525879</ele>
        <time>2011-09-04T14:39:44.000Z</time>
      </trkpt>
      <trkpt lat="43.61623" lon="7.09152">
        <ele>80.400001525879</ele>
        <time>2011-09-04T14:39:51.000Z</time>
      </trkpt>
      <trkpt lat="43.61621" lon="7.0915">
        <ele>80.800003051758</ele>
        <time>2011-09-04T14:39:52.000Z</time>
      </trkpt>
      <trkpt lat="43.61605" lon="7.09139">
        <ele>83.199996948242</ele>
        <time>2011-09-04T14:39:59.000Z</time>
      </trkpt>
      <trkpt lat="43.61588" lon="7.09123">
        <ele>85</ele>
        <time>2011-09-04T14:40:07.000Z</time>
      </trkpt>
      <trkpt lat="43.61574" lon="7.0911">
        <ele>86.199996948242</ele>
        <time>2011-09-04T14:40:13.000Z</time>
      </trkpt>
      <trkpt lat="43.61561" lon="7.091">
        <ele>87.400001525879</ele>
        <time>2011-09-04T14:40:19.000Z</time>
      </trkpt>
      <trkpt lat="43.6155" lon="7.09085">
        <ele>87.800003051758</ele>
        <time>2011-09-04T14:40:25.000Z</time>
      </trkpt>
      <trkpt lat="43.61542" lon="7.09077">
        <ele>89.199996948242</ele>
        <time>2011-09-04T14:40:30.000Z</time>
      </trkpt>
      <trkpt lat="43.6153" lon="7.09062">
        <ele>91</ele>
        <time>2011-09-04T14:40:36.000Z</time>
      </trkpt>
      <trkpt lat="43.61515" lon="7.09045">
        <ele>92.400001525879</ele>
        <time>2011-09-04T14:40:42.000Z</time>
      </trkpt>
      <trkpt lat="43.615" lon="7.09024">
        <ele>92.800003051758</ele>
        <time>2011-09-04T14:40:49.000Z</time>
      </trkpt>
      <trkpt lat="43.61493" lon="7.09012">
        <ele>93.599998474121</ele>
        <time>2011-09-04T14:40:54.000Z</time>
      </trkpt>
      <trkpt lat="43.61487" lon="7.08999">
        <ele>94.599998474121</ele>
        <time>2011-09-04T14:41:00.000Z</time>
      </trkpt>
      <trkpt lat="43.61485" lon="7.08991">
        <ele>95.800003051758</ele>
        <time>2011-09-04T14:41:05.000Z</time>
      </trkpt>
      <trkpt lat="43.61483" lon="7.0899">
        <ele>96</ele>
        <time>2011-09-04T14:41:06.000Z</time>
      </trkpt>
      <trkpt lat="43.61483" lon="7.08995">
        <ele>95.800003051758</ele>
        <time>2011-09-04T14:41:11.000Z</time>
      </trkpt>
      <trkpt lat="43.61484" lon="7.08997">
        <ele>95.400001525879</ele>
        <time>2011-09-04T14:41:13.000Z</time>
      </trkpt>
      <trkpt lat="43.61478" lon="7.09">
        <ele>96.400001525879</ele>
        <time>2011-09-04T14:41:28.000Z</time>
      </trkpt>
      <trkpt lat="43.61475" lon="7.09001">
        <ele>97</ele>
        <time>2011-09-04T14:41:34.000Z</time>
      </trkpt>
      <trkpt lat="43.6148" lon="7.08985">
        <ele>97</ele>
        <time>2011-09-04T14:41:48.000Z</time>
      </trkpt>
      <trkpt lat="43.61482" lon="7.0898">
        <ele>97</ele>
        <time>2011-09-04T14:41:52.000Z</time>
      </trkpt>
      <trkpt lat="43.61482" lon="7.08972">
        <ele>97.599998474121</ele>
        <time>2011-09-04T14:41:55.000Z</time>
      </trkpt>
      <trkpt lat="43.61484" lon="7.08966">
        <ele>97.800003051758</ele>
        <time>2011-09-04T14:41:57.000Z</time>
      </trkpt>
      <trkpt lat="43.61489" lon="7.0896">
        <ele>97.599998474121</ele>
        <time>2011-09-04T14:42:01.000Z</time>
      </trkpt>
      <trkpt lat="43.6149" lon="7.08962">
        <ele>97.400001525879</ele>
        <time>2011-09-04T14:42:02.000Z</time>
      </trkpt>
      <trkpt lat="43.6149" lon="7.08972">
        <ele>96.400001525879</ele>
        <time>2011-09-04T14:42:05.000Z</time>
      </trkpt>
      <trkpt lat="43.61491" lon="7.08974">
        <ele>96</ele>
        <time>2011-09-04T14:42:06.000Z</time>
      </trkpt>
      <trkpt lat="43.615" lon="7.08988">
        <ele>93.199996948242</ele>
        <time>2011-09-04T14:42:12.000Z</time>
      </trkpt>
      <trkpt lat="43.61502" lon="7.08988">
        <ele>93.199996948242</ele>
        <time>2011-09-04T14:42:13.000Z</time>
      </trkpt>
      <trkpt lat="43.61507" lon="7.08996">
        <ele>92.400001525879</ele>
        <time>2011-09-04T14:42:18.000Z</time>
      </trkpt>
      <trkpt lat="43.61519" lon="7.09002">
        <ele>92.199996948242</ele>
        <time>2011-09-04T14:42:25.000Z</time>
      </trkpt>
      <trkpt lat="43.6153" lon="7.09005">
        <ele>92.199996948242</ele>
        <time>2011-09-04T14:42:30.000Z</time>
      </trkpt>
      <trkpt lat="43.61543" lon="7.09008">
        <ele>92</ele>
        <time>2011-09-04T14:42:36.000Z</time>
      </trkpt>
      <trkpt lat="43.61559" lon="7.09013">
        <ele>91.599998474121</ele>
        <time>2011-09-04T14:42:43.000Z</time>
      </trkpt>
      <trkpt lat="43.61575" lon="7.09018">
        <ele>91</ele>
        <time>2011-09-04T14:42:49.000Z</time>
      </trkpt>
      <trkpt lat="43.61582" lon="7.09021">
        <ele>90.400001525879</ele>
        <time>2011-09-04T14:42:53.000Z</time>
      </trkpt>
      <trkpt lat="43.61597" lon="7.09026">
        <ele>88.199996948242</ele>
        <time>2011-09-04T14:42:59.000Z</time>
      </trkpt>
      <trkpt lat="43.61605" lon="7.09029">
        <ele>87.199996948242</ele>
        <time>2011-09-04T14:43:02.000Z</time>
      </trkpt>
      <trkpt lat="43.61609" lon="7.0903">
        <ele>86.599998474121</ele>
        <time>2011-09-04T14:43:04.000Z</time>
      </trkpt>
      <trkpt lat="43.61615" lon="7.09032">
        <ele>85.599998474121</ele>
        <time>2011-09-04T14:43:07.000Z</time>
      </trkpt>
      <trkpt lat="43.61623" lon="7.09033">
        <ele>84.800003051758</ele>
        <time>2011-09-04T14:43:10.000Z</time>
      </trkpt>
      <trkpt lat="43.61634" lon="7.09026">
        <ele>84.199996948242</ele>
        <time>2011-09-04T14:43:15.000Z</time>
      </trkpt>
      <trkpt lat="43.61645" lon="7.09013">
        <ele>84.800003051758</ele>
        <time>2011-09-04T14:43:21.000Z</time>
      </trkpt>
      <trkpt lat="43.61655" lon="7.08997">
        <ele>85.599998474121</ele>
        <time>2011-09-04T14:43:26.000Z</time>
      </trkpt>
      <trkpt lat="43.61664" lon="7.08975">
        <ele>87</ele>
        <time>2011-09-04T14:43:32.000Z</time>
      </trkpt>
      <trkpt lat="43.61671" lon="7.0895">
        <ele>89.199996948242</ele>
        <time>2011-09-04T14:43:38.000Z</time>
      </trkpt>
      <trkpt lat="43.61673" lon="7.08943">
        <ele>89.800003051758</ele>
        <time>2011-09-04T14:43:40.000Z</time>
      </trkpt>
      <trkpt lat="43.61676" lon="7.08918">
        <ele>92</ele>
        <time>2011-09-04T14:43:46.000Z</time>
      </trkpt>
      <trkpt lat="43.6168" lon="7.08896">
        <ele>94.199996948242</ele>
        <time>2011-09-04T14:43:52.000Z</time>
      </trkpt>
      <trkpt lat="43.61682" lon="7.08869">
        <ele>96.800003051758</ele>
        <time>2011-09-04T14:43:58.000Z</time>
      </trkpt>
      <trkpt lat="43.61683" lon="7.08864">
        <ele>97.400001525879</ele>
        <time>2011-09-04T14:43:59.000Z</time>
      </trkpt>
      <trkpt lat="43.61685" lon="7.08835">
        <ele>100.19999694824</ele>
        <time>2011-09-04T14:44:05.000Z</time>
      </trkpt>
      <trkpt lat="43.61687" lon="7.08826">
        <ele>100.40000152588</ele>
        <time>2011-09-04T14:44:07.000Z</time>
      </trkpt>
      <trkpt lat="43.61687" lon="7.08802">
        <ele>101</ele>
        <time>2011-09-04T14:44:13.000Z</time>
      </trkpt>
      <trkpt lat="43.61688" lon="7.08793">
        <ele>101.19999694824</ele>
        <time>2011-09-04T14:44:15.000Z</time>
      </trkpt>
      <trkpt lat="43.61693" lon="7.08769">
        <ele>101.59999847412</ele>
        <time>2011-09-04T14:44:20.000Z</time>
      </trkpt>
      <trkpt lat="43.61694" lon="7.08761">
        <ele>101.59999847412</ele>
        <time>2011-09-04T14:44:22.000Z</time>
      </trkpt>
      <trkpt lat="43.61693" lon="7.08732">
        <ele>101.80000305176</ele>
        <time>2011-09-04T14:44:27.000Z</time>
      </trkpt>
      <trkpt lat="43.6169" lon="7.08705">
        <ele>101.59999847412</ele>
        <time>2011-09-04T14:44:33.000Z</time>
      </trkpt>
      <trkpt lat="43.61687" lon="7.08686">
        <ele>101.40000152588</ele>
        <time>2011-09-04T14:44:38.000Z</time>
      </trkpt>
      <trkpt lat="43.6169" lon="7.08657">
        <ele>101.59999847412</ele>
        <time>2011-09-04T14:44:44.000Z</time>
      </trkpt>
      <trkpt lat="43.61692" lon="7.08632">
        <ele>102.59999847412</ele>
        <time>2011-09-04T14:44:49.000Z</time>
      </trkpt>
      <trkpt lat="43.61699" lon="7.08607">
        <ele>103</ele>
        <time>2011-09-04T14:44:54.000Z</time>
      </trkpt>
      <trkpt lat="43.617" lon="7.08586">
        <ele>103.80000305176</ele>
        <time>2011-09-04T14:44:59.000Z</time>
      </trkpt>
      <trkpt lat="43.61703" lon="7.08569">
        <ele>103.40000152588</ele>
        <time>2011-09-04T14:45:05.000Z</time>
      </trkpt>
      <trkpt lat="43.61707" lon="7.08556">
        <ele>102.59999847412</ele>
        <time>2011-09-04T14:45:10.000Z</time>
      </trkpt>
      <trkpt lat="43.61712" lon="7.08542">
        <ele>102</ele>
        <time>2011-09-04T14:45:15.000Z</time>
      </trkpt>
      <trkpt lat="43.61719" lon="7.08521">
        <ele>100.59999847412</ele>
        <time>2011-09-04T14:45:22.000Z</time>
      </trkpt>
      <trkpt lat="43.61721" lon="7.08517">
        <ele>100.40000152588</ele>
        <time>2011-09-04T14:45:25.000Z</time>
      </trkpt>
      <trkpt lat="43.61719" lon="7.08514">
        <ele>100.59999847412</ele>
        <time>2011-09-04T14:45:27.000Z</time>
      </trkpt>
      <trkpt lat="43.61716" lon="7.08512">
        <ele>101</ele>
        <time>2011-09-04T14:45:30.000Z</time>
      </trkpt>
      <trkpt lat="43.61714" lon="7.08511">
        <ele>101.19999694824</ele>
        <time>2011-09-04T14:45:32.000Z</time>
      </trkpt>
      <trkpt lat="43.61715" lon="7.08511">
        <ele>101.19999694824</ele>
        <time>2011-09-04T14:45:49.000Z</time>
      </trkpt>
      <trkpt lat="43.61716" lon="7.08507">
        <ele>100.80000305176</ele>
        <time>2011-09-04T14:46:09.000Z</time>
      </trkpt>
      <trkpt lat="43.61715" lon="7.08506">
        <ele>101</ele>
        <time>2011-09-04T14:46:11.000Z</time>
      </trkpt>
      <trkpt lat="43.61715" lon="7.08505">
        <ele>101</ele>
        <time>2011-09-04T14:46:13.000Z</time>
      </trkpt>
      <trkpt lat="43.61719" lon="7.08514">
        <ele>100.59999847412</ele>
        <time>2011-09-04T14:46:46.000Z</time>
      </trkpt>
      <trkpt lat="43.61725" lon="7.08514">
        <ele>99.800003051758</ele>
        <time>2011-09-04T14:47:30.000Z</time>
      </trkpt>
      <trkpt lat="43.61726" lon="7.08516">
        <ele>99.599998474121</ele>
        <time>2011-09-04T14:47:31.000Z</time>
      </trkpt>
      <trkpt lat="43.61732" lon="7.08511">
        <ele>98.599998474121</ele>
        <time>2011-09-04T14:47:35.000Z</time>
      </trkpt>
      <trkpt lat="43.61741" lon="7.08496">
        <ele>97.199996948242</ele>
        <time>2011-09-04T14:47:41.000Z</time>
      </trkpt>
      <trkpt lat="43.61746" lon="7.08483">
        <ele>97</ele>
        <time>2011-09-04T14:47:46.000Z</time>
      </trkpt>
      <trkpt lat="43.61746" lon="7.0848">
        <ele>97</ele>
        <time>2011-09-04T14:47:47.000Z</time>
      </trkpt>
      <trkpt lat="43.61753" lon="7.08467">
        <ele>97.199996948242</ele>
        <time>2011-09-04T14:47:53.000Z</time>
      </trkpt>
      <trkpt lat="43.61757" lon="7.08449">
        <ele>98.199996948242</ele>
        <time>2011-09-04T14:48:01.000Z</time>
      </trkpt>
      <trkpt lat="43.61759" lon="7.08431">
        <ele>98.800003051758</ele>
        <time>2011-09-04T14:48:07.000Z</time>
      </trkpt>
      <trkpt lat="43.61769" lon="7.08414">
        <ele>100</ele>
        <time>2011-09-04T14:48:14.000Z</time>
      </trkpt>
      <trkpt lat="43.61774" lon="7.08398">
        <ele>101.40000152588</ele>
        <time>2011-09-04T14:48:21.000Z</time>
      </trkpt>
      <trkpt lat="43.61776" lon="7.08384">
        <ele>102.59999847412</ele>
        <time>2011-09-04T14:48:27.000Z</time>
      </trkpt>
      <trkpt lat="43.6178" lon="7.08368">
        <ele>104</ele>
        <time>2011-09-04T14:48:35.000Z</time>
      </trkpt>
      <trkpt lat="43.61779" lon="7.08354">
        <ele>105</ele>
        <time>2011-09-04T14:48:43.000Z</time>
      </trkpt>
      <trkpt lat="43.6178" lon="7.0834">
        <ele>106</ele>
        <time>2011-09-04T14:48:50.000Z</time>
      </trkpt>
      <trkpt lat="43.61782" lon="7.08326">
        <ele>107.19999694824</ele>
        <time>2011-09-04T14:48:58.000Z</time>
      </trkpt>
      <trkpt lat="43.61781" lon="7.08317">
        <ele>107.80000305176</ele>
        <time>2011-09-04T14:49:03.000Z</time>
      </trkpt>
      <trkpt lat="43.61782" lon="7.08315">
        <ele>107.80000305176</ele>
        <time>2011-09-04T14:49:04.000Z</time>
      </trkpt>
      <trkpt lat="43.61782" lon="7.08303">
        <ele>108.59999847412</ele>
        <time>2011-09-04T14:49:10.000Z</time>
      </trkpt>
      <trkpt lat="43.61782" lon="7.08289">
        <ele>109.59999847412</ele>
        <time>2011-09-04T14:49:17.000Z</time>
      </trkpt>
      <trkpt lat="43.61782" lon="7.08287">
        <ele>109.59999847412</ele>
        <time>2011-09-04T14:49:18.000Z</time>
      </trkpt>
      <trkpt lat="43.61783" lon="7.08272">
        <ele>110.59999847412</ele>
        <time>2011-09-04T14:49:25.000Z</time>
      </trkpt>
      <trkpt lat="43.61784" lon="7.0826">
        <ele>111.40000152588</ele>
        <time>2011-09-04T14:49:31.000Z</time>
      </trkpt>
      <trkpt lat="43.61783" lon="7.08241">
        <ele>113</ele>
        <time>2011-09-04T14:49:40.000Z</time>
      </trkpt>
      <trkpt lat="43.61781" lon="7.08221">
        <ele>115</ele>
        <time>2011-09-04T14:49:47.000Z</time>
      </trkpt>
      <trkpt lat="43.6178" lon="7.08207">
        <ele>116.40000152588</ele>
        <time>2011-09-04T14:49:54.000Z</time>
      </trkpt>
      <trkpt lat="43.61774" lon="7.08192">
        <ele>117.59999847412</ele>
        <time>2011-09-04T14:50:01.000Z</time>
      </trkpt>
      <trkpt lat="43.61772" lon="7.08183">
        <ele>118.59999847412</ele>
        <time>2011-09-04T14:50:06.000Z</time>
      </trkpt>
      <trkpt lat="43.61771" lon="7.0818">
        <ele>118.80000305176</ele>
        <time>2011-09-04T14:50:08.000Z</time>
      </trkpt>
      <trkpt lat="43.61771" lon="7.08177">
        <ele>119</ele>
        <time>2011-09-04T14:50:10.000Z</time>
      </trkpt>
      <trkpt lat="43.6177" lon="7.08167">
        <ele>120</ele>
        <time>2011-09-04T14:50:16.000Z</time>
      </trkpt>
      <trkpt lat="43.61767" lon="7.08162">
        <ele>120.19999694824</ele>
        <time>2011-09-04T14:50:20.000Z</time>
      </trkpt>
      <trkpt lat="43.61767" lon="7.08162">
        <ele>120.40000152588</ele>
        <time>2011-09-04T14:50:22.000Z</time>
      </trkpt>
      <trkpt lat="43.61763" lon="7.08162">
        <ele>120</ele>
        <time>2011-09-04T14:50:29.000Z</time>
      </trkpt>
      <trkpt lat="43.61762" lon="7.08161">
        <ele>120.19999694824</ele>
        <time>2011-09-04T14:50:30.000Z</time>
      </trkpt>
      <trkpt lat="43.61758" lon="7.08155">
        <ele>120.40000152588</ele>
        <time>2011-09-04T14:50:39.000Z</time>
      </trkpt>
      <trkpt lat="43.61755" lon="7.08153">
        <ele>120.40000152588</ele>
        <time>2011-09-04T14:50:47.000Z</time>
      </trkpt>
      <trkpt lat="43.61755" lon="7.0815">
        <ele>120.59999847412</ele>
        <time>2011-09-04T14:50:54.000Z</time>
      </trkpt>
      <trkpt lat="43.61757" lon="7.08145">
        <ele>121.19999694824</ele>
        <time>2011-09-04T14:51:01.000Z</time>
      </trkpt>
      <trkpt lat="43.61758" lon="7.0814">
        <ele>121.59999847412</ele>
        <time>2011-09-04T14:51:08.000Z</time>
      </trkpt>
      <trkpt lat="43.61754" lon="7.08135">
        <ele>121.80000305176</ele>
        <time>2011-09-04T14:51:15.000Z</time>
      </trkpt>
      <trkpt lat="43.61754" lon="7.08131">
        <ele>122.19999694824</ele>
        <time>2011-09-04T14:51:21.000Z</time>
      </trkpt>
      <trkpt lat="43.61753" lon="7.08129">
        <ele>122.19999694824</ele>
        <time>2011-09-04T14:51:29.000Z</time>
      </trkpt>
      <trkpt lat="43.61752" lon="7.08126">
        <ele>122.40000152588</ele>
        <time>2011-09-04T14:51:34.000Z</time>
      </trkpt>
      <trkpt lat="43.61756" lon="7.08128">
        <ele>122.40000152588</ele>
        <time>2011-09-04T14:51:40.000Z</time>
      </trkpt>
      <trkpt lat="43.61766" lon="7.08132">
        <ele>122.80000305176</ele>
        <time>2011-09-04T14:51:46.000Z</time>
      </trkpt>
      <trkpt lat="43.61779" lon="7.08136">
        <ele>123.19999694824</ele>
        <time>2011-09-04T14:51:54.000Z</time>
      </trkpt>
      <trkpt lat="43.61794" lon="7.08135">
        <ele>124.19999694824</ele>
        <time>2011-09-04T14:52:02.000Z</time>
      </trkpt>
      <trkpt lat="43.61804" lon="7.08136">
        <ele>124.80000305176</ele>
        <time>2011-09-04T14:52:08.000Z</time>
      </trkpt>
      <trkpt lat="43.61804" lon="7.08137">
        <ele>124.59999847412</ele>
        <time>2011-09-04T14:52:09.000Z</time>
      </trkpt>
      <trkpt lat="43.61806" lon="7.08141">
        <ele>124.40000152588</ele>
        <time>2011-09-04T14:52:12.000Z</time>
      </trkpt>
      <trkpt lat="43.61812" lon="7.08144">
        <ele>124.59999847412</ele>
        <time>2011-09-04T14:52:16.000Z</time>
      </trkpt>
      <trkpt lat="43.61814" lon="7.08136">
        <ele>125.40000152588</ele>
        <time>2011-09-04T14:52:21.000Z</time>
      </trkpt>
      <trkpt lat="43.61814" lon="7.08128">
        <ele>126</ele>
        <time>2011-09-04T14:52:25.000Z</time>
      </trkpt>
      <trkpt lat="43.61815" lon="7.08126">
        <ele>126.19999694824</ele>
        <time>2011-09-04T14:52:26.000Z</time>
      </trkpt>
      <trkpt lat="43.61815" lon="7.08125">
        <ele>126.40000152588</ele>
        <time>2011-09-04T14:52:27.000Z</time>
      </trkpt>
      <trkpt lat="43.61815" lon="7.08112">
        <ele>127.40000152588</ele>
        <time>2011-09-04T14:52:33.000Z</time>
      </trkpt>
      <trkpt lat="43.61814" lon="7.08109">
        <ele>127.59999847412</ele>
        <time>2011-09-04T14:52:36.000Z</time>
      </trkpt>
      <trkpt lat="43.61814" lon="7.08109">
        <ele>127.59999847412</ele>
        <time>2011-09-04T14:52:38.000Z</time>
      </trkpt>
      <trkpt lat="43.61815" lon="7.08105">
        <ele>128</ele>
        <time>2011-09-04T14:52:49.000Z</time>
      </trkpt>
      <trkpt lat="43.61816" lon="7.08105">
        <ele>128</ele>
        <time>2011-09-04T14:52:56.000Z</time>
      </trkpt>
      <trkpt lat="43.61818" lon="7.08105">
        <ele>128.19999694824</ele>
        <time>2011-09-04T14:53:02.000Z</time>
      </trkpt>
      <trkpt lat="43.61819" lon="7.0811">
        <ele>127.80000305176</ele>
        <time>2011-09-04T14:53:12.000Z</time>
      </trkpt>
      <trkpt lat="43.61819" lon="7.08116">
        <ele>127.40000152588</ele>
        <time>2011-09-04T14:53:20.000Z</time>
      </trkpt>
      <trkpt lat="43.61822" lon="7.0813">
        <ele>126.40000152588</ele>
        <time>2011-09-04T14:53:26.000Z</time>
      </trkpt>
      <trkpt lat="43.61818" lon="7.08143">
        <ele>125</ele>
        <time>2011-09-04T14:53:31.000Z</time>
      </trkpt>
      <trkpt lat="43.61818" lon="7.08144">
        <ele>124.80000305176</ele>
        <time>2011-09-04T14:53:32.000Z</time>
      </trkpt>
      <trkpt lat="43.61816" lon="7.08146">
        <ele>124.59999847412</ele>
        <time>2011-09-04T14:53:37.000Z</time>
      </trkpt>
      <trkpt lat="43.61811" lon="7.08145">
        <ele>124.40000152588</ele>
        <time>2011-09-04T14:53:45.000Z</time>
      </trkpt>
      <trkpt lat="43.61802" lon="7.08142">
        <ele>124.19999694824</ele>
        <time>2011-09-04T14:53:52.000Z</time>
      </trkpt>
      <trkpt lat="43.61791" lon="7.08141">
        <ele>123.40000152588</ele>
        <time>2011-09-04T14:53:58.000Z</time>
      </trkpt>
      <trkpt lat="43.61775" lon="7.08139">
        <ele>122.80000305176</ele>
        <time>2011-09-04T14:54:05.000Z</time>
      </trkpt>
      <trkpt lat="43.61762" lon="7.08133">
        <ele>122.40000152588</ele>
        <time>2011-09-04T14:54:12.000Z</time>
      </trkpt>
      <trkpt lat="43.6175" lon="7.0813">
        <ele>122</ele>
        <time>2011-09-04T14:54:18.000Z</time>
      </trkpt>
      <trkpt lat="43.61741" lon="7.08132">
        <ele>121.59999847412</ele>
        <time>2011-09-04T14:54:22.000Z</time>
      </trkpt>
      <trkpt lat="43.61739" lon="7.08135">
        <ele>121.40000152588</ele>
        <time>2011-09-04T14:54:23.000Z</time>
      </trkpt>
      <trkpt lat="43.61742" lon="7.08143">
        <ele>120.80000305176</ele>
        <time>2011-09-04T14:54:26.000Z</time>
      </trkpt>
      <trkpt lat="43.61748" lon="7.0815">
        <ele>120.40000152588</ele>
        <time>2011-09-04T14:54:30.000Z</time>
      </trkpt>
      <trkpt lat="43.61753" lon="7.08151">
        <ele>120.40000152588</ele>
        <time>2011-09-04T14:54:32.000Z</time>
      </trkpt>
      <trkpt lat="43.61762" lon="7.08156">
        <ele>120.59999847412</ele>
        <time>2011-09-04T14:54:36.000Z</time>
      </trkpt>
      <trkpt lat="43.61768" lon="7.08164">
        <ele>120.19999694824</ele>
        <time>2011-09-04T14:54:41.000Z</time>
      </trkpt>
      <trkpt lat="43.61774" lon="7.08178">
        <ele>119.19999694824</ele>
        <time>2011-09-04T14:54:46.000Z</time>
      </trkpt>
      <trkpt lat="43.61781" lon="7.08205">
        <ele>116.80000305176</ele>
        <time>2011-09-04T14:54:51.000Z</time>
      </trkpt>
      <trkpt lat="43.61786" lon="7.0823">
        <ele>114.19999694824</ele>
        <time>2011-09-04T14:54:55.000Z</time>
      </trkpt>
      <trkpt lat="43.61787" lon="7.08247">
        <ele>112.59999847412</ele>
        <time>2011-09-04T14:54:57.000Z</time>
      </trkpt>
      <trkpt lat="43.61788" lon="7.0827">
        <ele>111</ele>
        <time>2011-09-04T14:55:00.000Z</time>
      </trkpt>
      <trkpt lat="43.61787" lon="7.0829">
        <ele>109.59999847412</ele>
        <time>2011-09-04T14:55:03.000Z</time>
      </trkpt>
      <trkpt lat="43.61788" lon="7.08296">
        <ele>109.19999694824</ele>
        <time>2011-09-04T14:55:04.000Z</time>
      </trkpt>
      <trkpt lat="43.61786" lon="7.08309">
        <ele>108.40000152588</ele>
        <time>2011-09-04T14:55:07.000Z</time>
      </trkpt>
      <trkpt lat="43.61786" lon="7.08311">
        <ele>108.19999694824</ele>
        <time>2011-09-04T14:55:08.000Z</time>
      </trkpt>
      <trkpt lat="43.61786" lon="7.08313">
        <ele>108</ele>
        <time>2011-09-04T14:55:12.000Z</time>
      </trkpt>
      <trkpt lat="43.61785" lon="7.08316">
        <ele>107.80000305176</ele>
        <time>2011-09-04T14:55:16.000Z</time>
      </trkpt>
      <trkpt lat="43.61785" lon="7.08326">
        <ele>107.19999694824</ele>
        <time>2011-09-04T14:55:19.000Z</time>
      </trkpt>
      <trkpt lat="43.61782" lon="7.08345">
        <ele>105.80000305176</ele>
        <time>2011-09-04T14:55:23.000Z</time>
      </trkpt>
      <trkpt lat="43.61782" lon="7.08351">
        <ele>105.40000152588</ele>
        <time>2011-09-04T14:55:24.000Z</time>
      </trkpt>
      <trkpt lat="43.6178" lon="7.08369">
        <ele>104</ele>
        <time>2011-09-04T14:55:27.000Z</time>
      </trkpt>
      <trkpt lat="43.61776" lon="7.08395">
        <ele>101.80000305176</ele>
        <time>2011-09-04T14:55:31.000Z</time>
      </trkpt>
      <trkpt lat="43.61775" lon="7.08401">
        <ele>101.19999694824</ele>
        <time>2011-09-04T14:55:32.000Z</time>
      </trkpt>
      <trkpt lat="43.61772" lon="7.08408">
        <ele>100.59999847412</ele>
        <time>2011-09-04T14:55:33.000Z</time>
      </trkpt>
      <trkpt lat="43.61764" lon="7.08426">
        <ele>99.199996948242</ele>
        <time>2011-09-04T14:55:36.000Z</time>
      </trkpt>
      <trkpt lat="43.61756" lon="7.08454">
        <ele>97.800003051758</ele>
        <time>2011-09-04T14:55:40.000Z</time>
      </trkpt>
      <trkpt lat="43.61755" lon="7.0846">
        <ele>97.599998474121</ele>
        <time>2011-09-04T14:55:41.000Z</time>
      </trkpt>
      <trkpt lat="43.61752" lon="7.08467">
        <ele>97.199996948242</ele>
        <time>2011-09-04T14:55:42.000Z</time>
      </trkpt>
      <trkpt lat="43.61746" lon="7.08479">
        <ele>97.199996948242</ele>
        <time>2011-09-04T14:55:44.000Z</time>
      </trkpt>
      <trkpt lat="43.61736" lon="7.08502">
        <ele>98</ele>
        <time>2011-09-04T14:55:49.000Z</time>
      </trkpt>
      <trkpt lat="43.6173" lon="7.08508">
        <ele>98.800003051758</ele>
        <time>2011-09-04T14:55:53.000Z</time>
      </trkpt>
      <trkpt lat="43.61723" lon="7.08513">
        <ele>100</ele>
        <time>2011-09-04T14:55:58.000Z</time>
      </trkpt>
      <trkpt lat="43.61722" lon="7.08513">
        <ele>100.19999694824</ele>
        <time>2011-09-04T14:55:59.000Z</time>
      </trkpt>
      <trkpt lat="43.61717" lon="7.08506">
        <ele>100.59999847412</ele>
        <time>2011-09-04T14:56:05.000Z</time>
      </trkpt>
      <trkpt lat="43.61716" lon="7.08505">
        <ele>100.80000305176</ele>
        <time>2011-09-04T14:56:07.000Z</time>
      </trkpt>
      <trkpt lat="43.61713" lon="7.08502">
        <ele>101.40000152588</ele>
        <time>2011-09-04T14:56:11.000Z</time>
      </trkpt>
      <trkpt lat="43.61707" lon="7.08497">
        <ele>102.19999694824</ele>
        <time>2011-09-04T14:56:18.000Z</time>
      </trkpt>
      <trkpt lat="43.61705" lon="7.08491">
        <ele>102.40000152588</ele>
        <time>2011-09-04T14:56:23.000Z</time>
      </trkpt>
      <trkpt lat="43.61704" lon="7.08488">
        <ele>102.40000152588</ele>
        <time>2011-09-04T14:56:25.000Z</time>
      </trkpt>
      <trkpt lat="43.61695" lon="7.0847">
        <ele>103.40000152588</ele>
        <time>2011-09-04T14:56:35.000Z</time>
      </trkpt>
      <trkpt lat="43.61682" lon="7.08458">
        <ele>104.80000305176</ele>
        <time>2011-09-04T14:56:41.000Z</time>
      </trkpt>
      <trkpt lat="43.6168" lon="7.08451">
        <ele>104.80000305176</ele>
        <time>2011-09-04T14:56:46.000Z</time>
      </trkpt>
      <trkpt lat="43.61679" lon="7.0845">
        <ele>104.80000305176</ele>
        <time>2011-09-04T14:56:47.000Z</time>
      </trkpt>
      <trkpt lat="43.61679" lon="7.08448">
        <ele>104.80000305176</ele>
        <time>2011-09-04T14:56:49.000Z</time>
      </trkpt>
      <trkpt lat="43.61673" lon="7.08443">
        <ele>105.19999694824</ele>
        <time>2011-09-04T14:56:54.000Z</time>
      </trkpt>
      <trkpt lat="43.61664" lon="7.08433">
        <ele>105.59999847412</ele>
        <time>2011-09-04T14:57:00.000Z</time>
      </trkpt>
      <trkpt lat="43.61662" lon="7.08431">
        <ele>105.80000305176</ele>
        <time>2011-09-04T14:57:01.000Z</time>
      </trkpt>
      <trkpt lat="43.61662" lon="7.08422">
        <ele>105.40000152588</ele>
        <time>2011-09-04T14:57:08.000Z</time>
      </trkpt>
      <trkpt lat="43.6166" lon="7.08418">
        <ele>105.40000152588</ele>
        <time>2011-09-04T14:57:11.000Z</time>
      </trkpt>
      <trkpt lat="43.61658" lon="7.08413">
        <ele>105.59999847412</ele>
        <time>2011-09-04T14:57:15.000Z</time>
      </trkpt>
      <trkpt lat="43.61654" lon="7.08403">
        <ele>106.19999694824</ele>
        <time>2011-09-04T14:57:21.000Z</time>
      </trkpt>
      <trkpt lat="43.61653" lon="7.08402">
        <ele>106.19999694824</ele>
        <time>2011-09-04T14:57:22.000Z</time>
      </trkpt>
      <trkpt lat="43.61645" lon="7.08394">
        <ele>106.80000305176</ele>
        <time>2011-09-04T14:57:30.000Z</time>
      </trkpt>
      <trkpt lat="43.61635" lon="7.08383">
        <ele>107.40000152588</ele>
        <time>2011-09-04T14:57:38.000Z</time>
      </trkpt>
      <trkpt lat="43.6163" lon="7.08379">
        <ele>107.59999847412</ele>
        <time>2011-09-04T14:57:44.000Z</time>
      </trkpt>
      <trkpt lat="43.61629" lon="7.08378">
        <ele>107.59999847412</ele>
        <time>2011-09-04T14:57:45.000Z</time>
      </trkpt>
      <trkpt lat="43.61625" lon="7.08373">
        <ele>107.59999847412</ele>
        <time>2011-09-04T14:57:51.000Z</time>
      </trkpt>
      <trkpt lat="43.61623" lon="7.08369">
        <ele>107.59999847412</ele>
        <time>2011-09-04T14:57:53.000Z</time>
      </trkpt>
      <trkpt lat="43.61618" lon="7.08362">
        <ele>107.59999847412</ele>
        <time>2011-09-04T14:57:58.000Z</time>
      </trkpt>
      <trkpt lat="43.61607" lon="7.08351">
        <ele>107.59999847412</ele>
        <time>2011-09-04T14:58:06.000Z</time>
      </trkpt>
      <trkpt lat="43.61599" lon="7.08344">
        <ele>107.40000152588</ele>
        <time>2011-09-04T14:58:13.000Z</time>
      </trkpt>
      <trkpt lat="43.61597" lon="7.08341">
        <ele>107.40000152588</ele>
        <time>2011-09-04T14:58:15.000Z</time>
      </trkpt>
      <trkpt lat="43.61598" lon="7.08333">
        <ele>107</ele>
        <time>2011-09-04T14:58:18.000Z</time>
      </trkpt>
      <trkpt lat="43.61598" lon="7.08327">
        <ele>107.40000152588</ele>
        <time>2011-09-04T14:58:20.000Z</time>
      </trkpt>
      <trkpt lat="43.616" lon="7.08305">
        <ele>108.40000152588</ele>
        <time>2011-09-04T14:58:27.000Z</time>
      </trkpt>
      <trkpt lat="43.61597" lon="7.08279">
        <ele>109.40000152588</ele>
        <time>2011-09-04T14:58:35.000Z</time>
      </trkpt>
      <trkpt lat="43.61596" lon="7.08276">
        <ele>109.40000152588</ele>
        <time>2011-09-04T14:58:36.000Z</time>
      </trkpt>
      <trkpt lat="43.61592" lon="7.08258">
        <ele>110</ele>
        <time>2011-09-04T14:58:43.000Z</time>
      </trkpt>
      <trkpt lat="43.61585" lon="7.08237">
        <ele>110.80000305176</ele>
        <time>2011-09-04T14:58:51.000Z</time>
      </trkpt>
      <trkpt lat="43.61581" lon="7.08217">
        <ele>111.80000305176</ele>
        <time>2011-09-04T14:58:59.000Z</time>
      </trkpt>
      <trkpt lat="43.61574" lon="7.08198">
        <ele>112.40000152588</ele>
        <time>2011-09-04T14:59:07.000Z</time>
      </trkpt>
      <trkpt lat="43.61569" lon="7.08184">
        <ele>113</ele>
        <time>2011-09-04T14:59:13.000Z</time>
      </trkpt>
      <trkpt lat="43.61562" lon="7.0816">
        <ele>114</ele>
        <time>2011-09-04T14:59:23.000Z</time>
      </trkpt>
      <trkpt lat="43.61553" lon="7.08137">
        <ele>115</ele>
        <time>2011-09-04T14:59:31.000Z</time>
      </trkpt>
      <trkpt lat="43.61552" lon="7.08131">
        <ele>115.19999694824</ele>
        <time>2011-09-04T14:59:33.000Z</time>
      </trkpt>
      <trkpt lat="43.61545" lon="7.08111">
        <ele>116</ele>
        <time>2011-09-04T14:59:40.000Z</time>
      </trkpt>
      <trkpt lat="43.61541" lon="7.0809">
        <ele>117</ele>
        <time>2011-09-04T14:59:48.000Z</time>
      </trkpt>
      <trkpt lat="43.61543" lon="7.08074">
        <ele>118</ele>
        <time>2011-09-04T14:59:54.000Z</time>
      </trkpt>
      <trkpt lat="43.6155" lon="7.08059">
        <ele>119.19999694824</ele>
        <time>2011-09-04T15:00:00.000Z</time>
      </trkpt>
      <trkpt lat="43.61562" lon="7.08052">
        <ele>120.59999847412</ele>
        <time>2011-09-04T15:00:06.000Z</time>
      </trkpt>
      <trkpt lat="43.61575" lon="7.08046">
        <ele>122</ele>
        <time>2011-09-04T15:00:13.000Z</time>
      </trkpt>
      <trkpt lat="43.6158" lon="7.08043">
        <ele>122.59999847412</ele>
        <time>2011-09-04T15:00:16.000Z</time>
      </trkpt>
      <trkpt lat="43.61585" lon="7.0804">
        <ele>123</ele>
        <time>2011-09-04T15:00:19.000Z</time>
      </trkpt>
      <trkpt lat="43.61595" lon="7.08035">
        <ele>123.80000305176</ele>
        <time>2011-09-04T15:00:25.000Z</time>
      </trkpt>
      <trkpt lat="43.61603" lon="7.08031">
        <ele>124.19999694824</ele>
        <time>2011-09-04T15:00:30.000Z</time>
      </trkpt>
      <trkpt lat="43.61611" lon="7.08026">
        <ele>124.80000305176</ele>
        <time>2011-09-04T15:00:35.000Z</time>
      </trkpt>
      <trkpt lat="43.61621" lon="7.08026">
        <ele>125.40000152588</ele>
        <time>2011-09-04T15:00:41.000Z</time>
      </trkpt>
      <trkpt lat="43.61633" lon="7.08034">
        <ele>125.40000152588</ele>
        <time>2011-09-04T15:00:48.000Z</time>
      </trkpt>
      <trkpt lat="43.61639" lon="7.08038">
        <ele>125.40000152588</ele>
        <time>2011-09-04T15:00:51.000Z</time>
      </trkpt>
      <trkpt lat="43.61645" lon="7.08037">
        <ele>125.80000305176</ele>
        <time>2011-09-04T15:00:54.000Z</time>
      </trkpt>
      <trkpt lat="43.6166" lon="7.0804">
        <ele>126.19999694824</ele>
        <time>2011-09-04T15:01:00.000Z</time>
      </trkpt>
      <trkpt lat="43.6168" lon="7.08045">
        <ele>126.59999847412</ele>
        <time>2011-09-04T15:01:08.000Z</time>
      </trkpt>
      <trkpt lat="43.61699" lon="7.08047">
        <ele>127.19999694824</ele>
        <time>2011-09-04T15:01:15.000Z</time>
      </trkpt>
      <trkpt lat="43.61702" lon="7.08048">
        <ele>127.19999694824</ele>
        <time>2011-09-04T15:01:16.000Z</time>
      </trkpt>
      <trkpt lat="43.6172" lon="7.08047">
        <ele>128</ele>
        <time>2011-09-04T15:01:23.000Z</time>
      </trkpt>
      <trkpt lat="43.61725" lon="7.08047">
        <ele>128.19999694824</ele>
        <time>2011-09-04T15:01:25.000Z</time>
      </trkpt>
      <trkpt lat="43.61745" lon="7.08047">
        <ele>128.80000305176</ele>
        <time>2011-09-04T15:01:33.000Z</time>
      </trkpt>
      <trkpt lat="43.61759" lon="7.08051">
        <ele>129.19999694824</ele>
        <time>2011-09-04T15:01:39.000Z</time>
      </trkpt>
      <trkpt lat="43.61769" lon="7.08052">
        <ele>129.60000610352</ele>
        <time>2011-09-04T15:01:44.000Z</time>
      </trkpt>
      <trkpt lat="43.61783" lon="7.08052">
        <ele>130.39999389648</ele>
        <time>2011-09-04T15:01:51.000Z</time>
      </trkpt>
      <trkpt lat="43.61785" lon="7.08055">
        <ele>130.19999694824</ele>
        <time>2011-09-04T15:01:52.000Z</time>
      </trkpt>
      <trkpt lat="43.61785" lon="7.08061">
        <ele>129.80000305176</ele>
        <time>2011-09-04T15:01:54.000Z</time>
      </trkpt>
      <trkpt lat="43.61791" lon="7.08063">
        <ele>130</ele>
        <time>2011-09-04T15:01:57.000Z</time>
      </trkpt>
      <trkpt lat="43.61801" lon="7.08054">
        <ele>131.19999694824</ele>
        <time>2011-09-04T15:02:02.000Z</time>
      </trkpt>
      <trkpt lat="43.61803" lon="7.08052">
        <ele>131.39999389648</ele>
        <time>2011-09-04T15:02:03.000Z</time>
      </trkpt>
      <trkpt lat="43.61812" lon="7.08047">
        <ele>132.39999389648</ele>
        <time>2011-09-04T15:02:07.000Z</time>
      </trkpt>
      <trkpt lat="43.61814" lon="7.0805">
        <ele>132.19999694824</ele>
        <time>2011-09-04T15:02:08.000Z</time>
      </trkpt>
      <trkpt lat="43.61822" lon="7.0805">
        <ele>132.80000305176</ele>
        <time>2011-09-04T15:02:11.000Z</time>
      </trkpt>
      <trkpt lat="43.61825" lon="7.0805">
        <ele>132.80000305176</ele>
        <time>2011-09-04T15:02:12.000Z</time>
      </trkpt>
      <trkpt lat="43.61843" lon="7.0805">
        <ele>134</ele>
        <time>2011-09-04T15:02:19.000Z</time>
      </trkpt>
      <trkpt lat="43.6185" lon="7.08051">
        <ele>134.39999389648</ele>
        <time>2011-09-04T15:02:22.000Z</time>
      </trkpt>
      <trkpt lat="43.61861" lon="7.0805">
        <ele>135.19999694824</ele>
        <time>2011-09-04T15:02:27.000Z</time>
      </trkpt>
      <trkpt lat="43.61878" lon="7.08049">
        <ele>136.39999389648</ele>
        <time>2011-09-04T15:02:35.000Z</time>
      </trkpt>
      <trkpt lat="43.61891" lon="7.08049">
        <ele>137.39999389648</ele>
        <time>2011-09-04T15:02:41.000Z</time>
      </trkpt>
      <trkpt lat="43.61903" lon="7.08049">
        <ele>138.19999694824</ele>
        <time>2011-09-04T15:02:47.000Z</time>
      </trkpt>
      <trkpt lat="43.61918" lon="7.08051">
        <ele>139.19999694824</ele>
        <time>2011-09-04T15:02:54.000Z</time>
      </trkpt>
      <trkpt lat="43.61934" lon="7.0805">
        <ele>140.19999694824</ele>
        <time>2011-09-04T15:03:01.000Z</time>
      </trkpt>
      <trkpt lat="43.61948" lon="7.08048">
        <ele>141.19999694824</ele>
        <time>2011-09-04T15:03:08.000Z</time>
      </trkpt>
      <trkpt lat="43.6196" lon="7.08042">
        <ele>142.19999694824</ele>
        <time>2011-09-04T15:03:14.000Z</time>
      </trkpt>
      <trkpt lat="43.61967" lon="7.08034">
        <ele>143</ele>
        <time>2011-09-04T15:03:18.000Z</time>
      </trkpt>
      <trkpt lat="43.61972" lon="7.0803">
        <ele>143.60000610352</ele>
        <time>2011-09-04T15:03:21.000Z</time>
      </trkpt>
      <trkpt lat="43.61977" lon="7.08034">
        <ele>143.60000610352</ele>
        <time>2011-09-04T15:03:24.000Z</time>
      </trkpt>
      <trkpt lat="43.61985" lon="7.08035">
        <ele>144</ele>
        <time>2011-09-04T15:03:28.000Z</time>
      </trkpt>
      <trkpt lat="43.61996" lon="7.0804">
        <ele>144.19999694824</ele>
        <time>2011-09-04T15:03:33.000Z</time>
      </trkpt>
      <trkpt lat="43.61999" lon="7.08041">
        <ele>144.39999389648</ele>
        <time>2011-09-04T15:03:34.000Z</time>
      </trkpt>
      <trkpt lat="43.62019" lon="7.08045">
        <ele>143.39999389648</ele>
        <time>2011-09-04T15:03:39.000Z</time>
      </trkpt>
      <trkpt lat="43.62035" lon="7.08043">
        <ele>142.80000305176</ele>
        <time>2011-09-04T15:03:43.000Z</time>
      </trkpt>
      <trkpt lat="43.62052" lon="7.08041">
        <ele>142</ele>
        <time>2011-09-04T15:03:47.000Z</time>
      </trkpt>
      <trkpt lat="43.6207" lon="7.08038">
        <ele>141</ele>
        <time>2011-09-04T15:03:51.000Z</time>
      </trkpt>
      <trkpt lat="43.62087" lon="7.08036">
        <ele>140.19999694824</ele>
        <time>2011-09-04T15:03:54.000Z</time>
      </trkpt>
      <trkpt lat="43.62108" lon="7.08034">
        <ele>139</ele>
        <time>2011-09-04T15:03:57.000Z</time>
      </trkpt>
      <trkpt lat="43.62114" lon="7.08033">
        <ele>138.80000305176</ele>
        <time>2011-09-04T15:03:58.000Z</time>
      </trkpt>
      <trkpt lat="43.62121" lon="7.08032">
        <ele>138.39999389648</ele>
        <time>2011-09-04T15:03:59.000Z</time>
      </trkpt>
      <trkpt lat="43.62142" lon="7.08031">
        <ele>137.19999694824</ele>
        <time>2011-09-04T15:04:02.000Z</time>
      </trkpt>
      <trkpt lat="43.62148" lon="7.08031">
        <ele>137</ele>
        <time>2011-09-04T15:04:03.000Z</time>
      </trkpt>
      <trkpt lat="43.62156" lon="7.08027">
        <ele>136.39999389648</ele>
        <time>2011-09-04T15:04:04.000Z</time>
      </trkpt>
      <trkpt lat="43.6216" lon="7.08019">
        <ele>136</ele>
        <time>2011-09-04T15:04:06.000Z</time>
      </trkpt>
      <trkpt lat="43.62161" lon="7.08015">
        <ele>135.80000305176</ele>
        <time>2011-09-04T15:04:07.000Z</time>
      </trkpt>
      <trkpt lat="43.6216" lon="7.08005">
        <ele>135.39999389648</ele>
        <time>2011-09-04T15:04:11.000Z</time>
      </trkpt>
      <trkpt lat="43.62159" lon="7.08002">
        <ele>135.39999389648</ele>
        <time>2011-09-04T15:04:13.000Z</time>
      </trkpt>
      <trkpt lat="43.62159" lon="7.08003">
        <ele>135.39999389648</ele>
        <time>2011-09-04T15:04:16.000Z</time>
      </trkpt>
      <trkpt lat="43.6216" lon="7.08005">
        <ele>135.39999389648</ele>
        <time>2011-09-04T15:04:22.000Z</time>
      </trkpt>
      <trkpt lat="43.62171" lon="7.08004">
        <ele>134.19999694824</ele>
        <time>2011-09-04T15:04:26.000Z</time>
      </trkpt>
      <trkpt lat="43.62179" lon="7.08004">
        <ele>132.80000305176</ele>
        <time>2011-09-04T15:04:29.000Z</time>
      </trkpt>
      <trkpt lat="43.62181" lon="7.08003">
        <ele>132.19999694824</ele>
        <time>2011-09-04T15:04:30.000Z</time>
      </trkpt>
      <trkpt lat="43.62195" lon="7.07991">
        <ele>128.39999389648</ele>
        <time>2011-09-04T15:04:35.000Z</time>
      </trkpt>
      <trkpt lat="43.62209" lon="7.0798">
        <ele>124.40000152588</ele>
        <time>2011-09-04T15:04:40.000Z</time>
      </trkpt>
      <trkpt lat="43.62226" lon="7.07971">
        <ele>120.19999694824</ele>
        <time>2011-09-04T15:04:44.000Z</time>
      </trkpt>
      <trkpt lat="43.6223" lon="7.07967">
        <ele>119</ele>
        <time>2011-09-04T15:04:45.000Z</time>
      </trkpt>
      <trkpt lat="43.62239" lon="7.07962">
        <ele>116.59999847412</ele>
        <time>2011-09-04T15:04:48.000Z</time>
      </trkpt>
      <trkpt lat="43.62243" lon="7.07962">
        <ele>115.80000305176</ele>
        <time>2011-09-04T15:04:49.000Z</time>
      </trkpt>
      <trkpt lat="43.62253" lon="7.07957">
        <ele>112.59999847412</ele>
        <time>2011-09-04T15:04:53.000Z</time>
      </trkpt>
      <trkpt lat="43.62258" lon="7.07952">
        <ele>110.59999847412</ele>
        <time>2011-09-04T15:04:55.000Z</time>
      </trkpt>
      <trkpt lat="43.62265" lon="7.07945">
        <ele>107.59999847412</ele>
        <time>2011-09-04T15:04:58.000Z</time>
      </trkpt>
      <trkpt lat="43.62267" lon="7.07945">
        <ele>106.80000305176</ele>
        <time>2011-09-04T15:04:59.000Z</time>
      </trkpt>
      <trkpt lat="43.62277" lon="7.07944">
        <ele>103.80000305176</ele>
        <time>2011-09-04T15:05:02.000Z</time>
      </trkpt>
      <trkpt lat="43.6228" lon="7.07943">
        <ele>102.59999847412</ele>
        <time>2011-09-04T15:05:03.000Z</time>
      </trkpt>
      <trkpt lat="43.62288" lon="7.07942">
        <ele>100</ele>
        <time>2011-09-04T15:05:06.000Z</time>
      </trkpt>
      <trkpt lat="43.62291" lon="7.07941">
        <ele>99.199996948242</ele>
        <time>2011-09-04T15:05:07.000Z</time>
      </trkpt>
      <trkpt lat="43.62293" lon="7.07939">
        <ele>98.199996948242</ele>
        <time>2011-09-04T15:05:08.000Z</time>
      </trkpt>
      <trkpt lat="43.62303" lon="7.07935">
        <ele>94.800003051758</ele>
        <time>2011-09-04T15:05:12.000Z</time>
      </trkpt>
      <trkpt lat="43.62312" lon="7.07938">
        <ele>92.400001525879</ele>
        <time>2011-09-04T15:05:16.000Z</time>
      </trkpt>
      <trkpt lat="43.62322" lon="7.07942">
        <ele>89.199996948242</ele>
        <time>2011-09-04T15:05:20.000Z</time>
      </trkpt>
      <trkpt lat="43.62326" lon="7.07942">
        <ele>88.199996948242</ele>
        <time>2011-09-04T15:05:22.000Z</time>
      </trkpt>
      <trkpt lat="43.62331" lon="7.07944">
        <ele>86.800003051758</ele>
        <time>2011-09-04T15:05:26.000Z</time>
      </trkpt>
      <trkpt lat="43.62334" lon="7.07947">
        <ele>85.599998474121</ele>
        <time>2011-09-04T15:05:32.000Z</time>
      </trkpt>
      <trkpt lat="43.62337" lon="7.07947">
        <ele>84.800003051758</ele>
        <time>2011-09-04T15:05:36.000Z</time>
      </trkpt>
      <trkpt lat="43.62346" lon="7.0795">
        <ele>82</ele>
        <time>2011-09-04T15:06:10.000Z</time>
      </trkpt>
      <trkpt lat="43.62344" lon="7.0795">
        <ele>82.599998474121</ele>
        <time>2011-09-04T15:06:16.000Z</time>
      </trkpt>
      <trkpt lat="43.62344" lon="7.07959">
        <ele>83</ele>
        <time>2011-09-04T15:06:19.000Z</time>
      </trkpt>
      <trkpt lat="43.62345" lon="7.07969">
        <ele>82.800003051758</ele>
        <time>2011-09-04T15:06:21.000Z</time>
      </trkpt>
      <trkpt lat="43.62348" lon="7.07981">
        <ele>82.400001525879</ele>
        <time>2011-09-04T15:06:23.000Z</time>
      </trkpt>
      <trkpt lat="43.62356" lon="7.08005">
        <ele>80.599998474121</ele>
        <time>2011-09-04T15:06:27.000Z</time>
      </trkpt>
      <trkpt lat="43.6236" lon="7.0802">
        <ele>79.400001525879</ele>
        <time>2011-09-04T15:06:29.000Z</time>
      </trkpt>
      <trkpt lat="43.62362" lon="7.08027">
        <ele>78.800003051758</ele>
        <time>2011-09-04T15:06:30.000Z</time>
      </trkpt>
      <trkpt lat="43.62373" lon="7.08053">
        <ele>76</ele>
        <time>2011-09-04T15:06:34.000Z</time>
      </trkpt>
      <trkpt lat="43.62377" lon="7.08057">
        <ele>75.400001525879</ele>
        <time>2011-09-04T15:06:35.000Z</time>
      </trkpt>
      <trkpt lat="43.62391" lon="7.08061">
        <ele>71.800003051758</ele>
        <time>2011-09-04T15:06:38.000Z</time>
      </trkpt>
      <trkpt lat="43.62403" lon="7.0806">
        <ele>68.800003051758</ele>
        <time>2011-09-04T15:06:40.000Z</time>
      </trkpt>
      <trkpt lat="43.62419" lon="7.0806">
        <ele>65</ele>
        <time>2011-09-04T15:06:43.000Z</time>
      </trkpt>
      <trkpt lat="43.6243" lon="7.08072">
        <ele>64.400001525879</ele>
        <time>2011-09-04T15:06:46.000Z</time>
      </trkpt>
      <trkpt lat="43.62439" lon="7.08085">
        <ele>64</ele>
        <time>2011-09-04T15:06:48.000Z</time>
      </trkpt>
      <trkpt lat="43.62447" lon="7.08096">
        <ele>64</ele>
        <time>2011-09-04T15:06:50.000Z</time>
      </trkpt>
      <trkpt lat="43.62461" lon="7.08104">
        <ele>62.599998474121</ele>
        <time>2011-09-04T15:06:53.000Z</time>
      </trkpt>
      <trkpt lat="43.62467" lon="7.0811">
        <ele>62.200000762939</ele>
        <time>2011-09-04T15:06:55.000Z</time>
      </trkpt>
      <trkpt lat="43.6247" lon="7.08117">
        <ele>62.599998474121</ele>
        <time>2011-09-04T15:06:56.000Z</time>
      </trkpt>
      <trkpt lat="43.62474" lon="7.08135">
        <ele>63.599998474121</ele>
        <time>2011-09-04T15:06:59.000Z</time>
      </trkpt>
      <trkpt lat="43.62476" lon="7.08136">
        <ele>63.400001525879</ele>
        <time>2011-09-04T15:07:00.000Z</time>
      </trkpt>
      <trkpt lat="43.62483" lon="7.08135">
        <ele>62.200000762939</ele>
        <time>2011-09-04T15:07:03.000Z</time>
      </trkpt>
      <trkpt lat="43.62484" lon="7.08136">
        <ele>62</ele>
        <time>2011-09-04T15:07:04.000Z</time>
      </trkpt>
      <trkpt lat="43.62486" lon="7.08132">
        <ele>61.400001525879</ele>
        <time>2011-09-04T15:07:08.000Z</time>
      </trkpt>
      <trkpt lat="43.62484" lon="7.08111">
        <ele>59.599998474121</ele>
        <time>2011-09-04T15:07:12.000Z</time>
      </trkpt>
      <trkpt lat="43.62486" lon="7.08081">
        <ele>57</ele>
        <time>2011-09-04T15:07:16.000Z</time>
      </trkpt>
      <trkpt lat="43.62486" lon="7.08072">
        <ele>57.200000762939</ele>
        <time>2011-09-04T15:07:17.000Z</time>
      </trkpt>
      <trkpt lat="43.62488" lon="7.08047">
        <ele>57.400001525879</ele>
        <time>2011-09-04T15:07:20.000Z</time>
      </trkpt>
      <trkpt lat="43.62487" lon="7.08027">
        <ele>57.799999237061</ele>
        <time>2011-09-04T15:07:23.000Z</time>
      </trkpt>
      <trkpt lat="43.62486" lon="7.08018">
        <ele>58</ele>
        <time>2011-09-04T15:07:25.000Z</time>
      </trkpt>
      <trkpt lat="43.62485" lon="7.08012">
        <ele>58.200000762939</ele>
        <time>2011-09-04T15:07:27.000Z</time>
      </trkpt>
      <trkpt lat="43.62485" lon="7.08007">
        <ele>58.400001525879</ele>
        <time>2011-09-04T15:07:31.000Z</time>
      </trkpt>
      <trkpt lat="43.62487" lon="7.08012">
        <ele>58.200000762939</ele>
        <time>2011-09-04T15:07:37.000Z</time>
      </trkpt>
      <trkpt lat="43.6249" lon="7.08016">
        <ele>57.799999237061</ele>
        <time>2011-09-04T15:07:42.000Z</time>
      </trkpt>
      <trkpt lat="43.62491" lon="7.08017">
        <ele>57.799999237061</ele>
        <time>2011-09-04T15:07:46.000Z</time>
      </trkpt>
      <trkpt lat="43.62496" lon="7.08016">
        <ele>57.599998474121</ele>
        <time>2011-09-04T15:07:53.000Z</time>
      </trkpt>
      <trkpt lat="43.625" lon="7.08018">
        <ele>57.200000762939</ele>
        <time>2011-09-04T15:07:57.000Z</time>
      </trkpt>
      <trkpt lat="43.62499" lon="7.0802">
        <ele>57.200000762939</ele>
        <time>2011-09-04T15:07:59.000Z</time>
      </trkpt>
      <trkpt lat="43.62499" lon="7.0802">
        <ele>57.200000762939</ele>
        <time>2011-09-04T15:08:00.000Z</time>
      </trkpt>
      <trkpt lat="43.62494" lon="7.08019">
        <ele>57.599998474121</ele>
        <time>2011-09-04T15:08:04.000Z</time>
      </trkpt>
      <trkpt lat="43.62483" lon="7.08016">
        <ele>58.200000762939</ele>
        <time>2011-09-04T15:08:09.000Z</time>
      </trkpt>
      <trkpt lat="43.62476" lon="7.08017">
        <ele>58.599998474121</ele>
        <time>2011-09-04T15:08:34.000Z</time>
      </trkpt>
      <trkpt lat="43.62478" lon="7.08017">
        <ele>58.599998474121</ele>
        <time>2011-09-04T15:08:39.000Z</time>
      </trkpt>
      <trkpt lat="43.62485" lon="7.08018">
        <ele>58.200000762939</ele>
        <time>2011-09-04T15:08:49.000Z</time>
      </trkpt>
      <trkpt lat="43.6249" lon="7.08018">
        <ele>57.799999237061</ele>
        <time>2011-09-04T15:08:59.000Z</time>
      </trkpt>
      <trkpt lat="43.62493" lon="7.08018">
        <ele>57.599998474121</ele>
        <time>2011-09-04T15:09:05.000Z</time>
      </trkpt>
      <trkpt lat="43.62502" lon="7.08018">
        <ele>57.400001525879</ele>
        <time>2011-09-04T15:09:16.000Z</time>
      </trkpt>
      <trkpt lat="43.62501" lon="7.08019">
        <ele>57.400001525879</ele>
        <time>2011-09-04T15:09:42.000Z</time>
      </trkpt>
      <trkpt lat="43.62496" lon="7.08015">
        <ele>57.599998474121</ele>
        <time>2011-09-04T15:09:49.000Z</time>
      </trkpt>
      <trkpt lat="43.62508" lon="7.08018">
        <ele>58</ele>
        <time>2011-09-04T15:10:08.000Z</time>
      </trkpt>
      <trkpt lat="43.62493" lon="7.08019">
        <ele>57.599998474121</ele>
        <time>2011-09-04T15:10:25.000Z</time>
      </trkpt>
      <trkpt lat="43.62492" lon="7.08021">
        <ele>57.599998474121</ele>
        <time>2011-09-04T15:10:46.000Z</time>
      </trkpt>
      <trkpt lat="43.62494" lon="7.08024">
        <ele>57.400001525879</ele>
        <time>2011-09-04T15:10:50.000Z</time>
      </trkpt>
      <trkpt lat="43.62495" lon="7.08024">
        <ele>57.400001525879</ele>
        <time>2011-09-04T15:10:51.000Z</time>
      </trkpt>
      <trkpt lat="43.62489" lon="7.08022">
        <ele>57.799999237061</ele>
        <time>2011-09-04T15:10:58.000Z</time>
      </trkpt>
      <trkpt lat="43.62482" lon="7.08021">
        <ele>58.400001525879</ele>
        <time>2011-09-04T15:11:03.000Z</time>
      </trkpt>
      <trkpt lat="43.62494" lon="7.08025">
        <ele>57.400001525879</ele>
        <time>2011-09-04T15:11:22.000Z</time>
      </trkpt>
      <trkpt lat="43.62503" lon="7.08026">
        <ele>57.200000762939</ele>
        <time>2011-09-04T15:11:28.000Z</time>
      </trkpt>
      <trkpt lat="43.62504" lon="7.08028">
        <ele>57.200000762939</ele>
        <time>2011-09-04T15:11:40.000Z</time>
      </trkpt>
      <trkpt lat="43.62505" lon="7.08029">
        <ele>57.400001525879</ele>
        <time>2011-09-04T15:11:48.000Z</time>
      </trkpt>
      <trkpt lat="43.62501" lon="7.08027">
        <ele>57</ele>
        <time>2011-09-04T15:11:53.000Z</time>
      </trkpt>
      <trkpt lat="43.62499" lon="7.08028">
        <ele>57</ele>
        <time>2011-09-04T15:11:58.000Z</time>
      </trkpt>
      <trkpt lat="43.62493" lon="7.08027">
        <ele>57.400001525879</ele>
        <time>2011-09-04T15:12:06.000Z</time>
      </trkpt>
      <trkpt lat="43.62489" lon="7.08027">
        <ele>57.599998474121</ele>
        <time>2011-09-04T15:12:12.000Z</time>
      </trkpt>
      <trkpt lat="43.62486" lon="7.0803">
        <ele>57.799999237061</ele>
        <time>2011-09-04T15:12:20.000Z</time>
      </trkpt>
      <trkpt lat="43.62484" lon="7.08029">
        <ele>58</ele>
        <time>2011-09-04T15:12:21.000Z</time>
      </trkpt>
      <trkpt lat="43.62483" lon="7.08028">
        <ele>58</ele>
        <time>2011-09-04T15:12:22.000Z</time>
      </trkpt>
      <trkpt lat="43.62483" lon="7.0802">
        <ele>58.200000762939</ele>
        <time>2011-09-04T15:12:26.000Z</time>
      </trkpt>
      <trkpt lat="43.62481" lon="7.08009">
        <ele>58.400001525879</ele>
        <time>2011-09-04T15:12:30.000Z</time>
      </trkpt>
      <trkpt lat="43.62479" lon="7.08005">
        <ele>58.599998474121</ele>
        <time>2011-09-04T15:12:32.000Z</time>
      </trkpt>
      <trkpt lat="43.62471" lon="7.07993">
        <ele>59.400001525879</ele>
        <time>2011-09-04T15:12:38.000Z</time>
      </trkpt>
      <trkpt lat="43.62462" lon="7.07981">
        <ele>60.200000762939</ele>
        <time>2011-09-04T15:12:42.000Z</time>
      </trkpt>
      <trkpt lat="43.62457" lon="7.07971">
        <ele>60.599998474121</ele>
        <time>2011-09-04T15:12:46.000Z</time>
      </trkpt>
      <trkpt lat="43.62453" lon="7.07967">
        <ele>60.599998474121</ele>
        <time>2011-09-04T15:12:48.000Z</time>
      </trkpt>
      <trkpt lat="43.62451" lon="7.07964">
        <ele>60.599998474121</ele>
        <time>2011-09-04T15:12:50.000Z</time>
      </trkpt>
      <trkpt lat="43.6245" lon="7.0796">
        <ele>60.599998474121</ele>
        <time>2011-09-04T15:12:52.000Z</time>
      </trkpt>
      <trkpt lat="43.62449" lon="7.07955">
        <ele>60.599998474121</ele>
        <time>2011-09-04T15:12:55.000Z</time>
      </trkpt>
      <trkpt lat="43.62446" lon="7.07949">
        <ele>60.400001525879</ele>
        <time>2011-09-04T15:13:00.000Z</time>
      </trkpt>
      <trkpt lat="43.62442" lon="7.07948">
        <ele>60.200000762939</ele>
        <time>2011-09-04T15:13:04.000Z</time>
      </trkpt>
      <trkpt lat="43.6244" lon="7.07947">
        <ele>60</ele>
        <time>2011-09-04T15:13:05.000Z</time>
      </trkpt>
      <trkpt lat="43.6244" lon="7.07944">
        <ele>60</ele>
        <time>2011-09-04T15:13:10.000Z</time>
      </trkpt>
      <trkpt lat="43.62441" lon="7.07942">
        <ele>60</ele>
        <time>2011-09-04T15:13:15.000Z</time>
      </trkpt>
      <trkpt lat="43.62439" lon="7.07938">
        <ele>59.799999237061</ele>
        <time>2011-09-04T15:13:18.000Z</time>
      </trkpt>
      <trkpt lat="43.62433" lon="7.07935">
        <ele>59</ele>
        <time>2011-09-04T15:13:22.000Z</time>
      </trkpt>
      <trkpt lat="43.62433" lon="7.0793">
        <ele>59</ele>
        <time>2011-09-04T15:13:27.000Z</time>
      </trkpt>
      <trkpt lat="43.62417" lon="7.0792">
        <ele>56.200000762939</ele>
        <time>2011-09-04T15:13:43.000Z</time>
      </trkpt>
      <trkpt lat="43.62415" lon="7.07928">
        <ele>57</ele>
        <time>2011-09-04T15:13:51.000Z</time>
      </trkpt>
      <trkpt lat="43.62422" lon="7.07927">
        <ele>57.400001525879</ele>
        <time>2011-09-04T15:14:03.000Z</time>
      </trkpt>
      <trkpt lat="43.62426" lon="7.07928">
        <ele>58</ele>
        <time>2011-09-04T15:14:06.000Z</time>
      </trkpt>
      <trkpt lat="43.62419" lon="7.07922">
        <ele>56.599998474121</ele>
        <time>2011-09-04T15:14:14.000Z</time>
      </trkpt>
      <trkpt lat="43.62417" lon="7.07921">
        <ele>56.200000762939</ele>
        <time>2011-09-04T15:14:17.000Z</time>
      </trkpt>
      <trkpt lat="43.62411" lon="7.07917">
        <ele>58</ele>
        <time>2011-09-04T15:14:21.000Z</time>
      </trkpt>
      <trkpt lat="43.62408" lon="7.07911">
        <ele>59</ele>
        <time>2011-09-04T15:14:24.000Z</time>
      </trkpt>
      <trkpt lat="43.6241" lon="7.07909">
        <ele>58.400001525879</ele>
        <time>2011-09-04T15:14:26.000Z</time>
      </trkpt>
      <trkpt lat="43.62409" lon="7.07908">
        <ele>58.599998474121</ele>
        <time>2011-09-04T15:14:28.000Z</time>
      </trkpt>
      <trkpt lat="43.62408" lon="7.07907">
        <ele>59.200000762939</ele>
        <time>2011-09-04T15:14:29.000Z</time>
      </trkpt>
      <trkpt lat="43.62402" lon="7.07903">
        <ele>61.200000762939</ele>
        <time>2011-09-04T15:14:34.000Z</time>
      </trkpt>
      <trkpt lat="43.62401" lon="7.07901">
        <ele>61.599998474121</ele>
        <time>2011-09-04T15:14:35.000Z</time>
      </trkpt>
      <trkpt lat="43.62396" lon="7.07893">
        <ele>63.599998474121</ele>
        <time>2011-09-04T15:14:41.000Z</time>
      </trkpt>
      <trkpt lat="43.62391" lon="7.07883">
        <ele>65.400001525879</ele>
        <time>2011-09-04T15:14:45.000Z</time>
      </trkpt>
      <trkpt lat="43.62385" lon="7.07868">
        <ele>67.599998474121</ele>
        <time>2011-09-04T15:14:51.000Z</time>
      </trkpt>
      <trkpt lat="43.62386" lon="7.07858">
        <ele>67.400001525879</ele>
        <time>2011-09-04T15:14:56.000Z</time>
      </trkpt>
      <trkpt lat="43.62392" lon="7.07846">
        <ele>65.800003051758</ele>
        <time>2011-09-04T15:15:03.000Z</time>
      </trkpt>
      <trkpt lat="43.62393" lon="7.07847">
        <ele>65.400001525879</ele>
        <time>2011-09-04T15:15:04.000Z</time>
      </trkpt>
      <trkpt lat="43.62393" lon="7.07844">
        <ele>65.400001525879</ele>
        <time>2011-09-04T15:15:07.000Z</time>
      </trkpt>
      <trkpt lat="43.62395" lon="7.07842">
        <ele>64.599998474121</ele>
        <time>2011-09-04T15:15:09.000Z</time>
      </trkpt>
      <trkpt lat="43.62397" lon="7.07836">
        <ele>64.199996948242</ele>
        <time>2011-09-04T15:15:12.000Z</time>
      </trkpt>
      <trkpt lat="43.62398" lon="7.07834">
        <ele>64</ele>
        <time>2011-09-04T15:15:14.000Z</time>
      </trkpt>
      <trkpt lat="43.62399" lon="7.07829">
        <ele>64</ele>
        <time>2011-09-04T15:15:17.000Z</time>
      </trkpt>
      <trkpt lat="43.62401" lon="7.07815">
        <ele>65</ele>
        <time>2011-09-04T15:15:22.000Z</time>
      </trkpt>
      <trkpt lat="43.62403" lon="7.07803">
        <ele>65.599998474121</ele>
        <time>2011-09-04T15:15:26.000Z</time>
      </trkpt>
      <trkpt lat="43.62405" lon="7.07801">
        <ele>65</ele>
        <time>2011-09-04T15:15:27.000Z</time>
      </trkpt>
      <trkpt lat="43.62413" lon="7.07788">
        <ele>63.400001525879</ele>
        <time>2011-09-04T15:15:32.000Z</time>
      </trkpt>
      <trkpt lat="43.62413" lon="7.07787">
        <ele>63.799999237061</ele>
        <time>2011-09-04T15:15:33.000Z</time>
      </trkpt>
      <trkpt lat="43.62412" lon="7.07785">
        <ele>64</ele>
        <time>2011-09-04T15:15:36.000Z</time>
      </trkpt>
      <trkpt lat="43.62415" lon="7.07766">
        <ele>64.800003051758</ele>
        <time>2011-09-04T15:15:52.000Z</time>
      </trkpt>
      <trkpt lat="43.62416" lon="7.07764">
        <ele>64.599998474121</ele>
        <time>2011-09-04T15:15:53.000Z</time>
      </trkpt>
      <trkpt lat="43.62419" lon="7.07758">
        <ele>65.400001525879</ele>
        <time>2011-09-04T15:15:56.000Z</time>
      </trkpt>
      <trkpt lat="43.62421" lon="7.07755">
        <ele>65.800003051758</ele>
        <time>2011-09-04T15:15:58.000Z</time>
      </trkpt>
      <trkpt lat="43.62423" lon="7.07754">
        <ele>66.199996948242</ele>
        <time>2011-09-04T15:15:59.000Z</time>
      </trkpt>
      <trkpt lat="43.62425" lon="7.07748">
        <ele>66.800003051758</ele>
        <time>2011-09-04T15:16:02.000Z</time>
      </trkpt>
      <trkpt lat="43.62425" lon="7.07747">
        <ele>66.800003051758</ele>
        <time>2011-09-04T15:16:03.000Z</time>
      </trkpt>
      <trkpt lat="43.62429" lon="7.07742">
        <ele>67.400001525879</ele>
        <time>2011-09-04T15:16:06.000Z</time>
      </trkpt>
      <trkpt lat="43.6243" lon="7.0774">
        <ele>67.400001525879</ele>
        <time>2011-09-04T15:16:07.000Z</time>
      </trkpt>
      <trkpt lat="43.62433" lon="7.07725">
        <ele>68.400001525879</ele>
        <time>2011-09-04T15:16:13.000Z</time>
      </trkpt>
      <trkpt lat="43.62441" lon="7.07724">
        <ele>68.599998474121</ele>
        <time>2011-09-04T15:16:17.000Z</time>
      </trkpt>
      <trkpt lat="43.62444" lon="7.07719">
        <ele>68.800003051758</ele>
        <time>2011-09-04T15:16:22.000Z</time>
      </trkpt>
      <trkpt lat="43.62448" lon="7.07712">
        <ele>69</ele>
        <time>2011-09-04T15:16:25.000Z</time>
      </trkpt>
      <trkpt lat="43.62447" lon="7.07709">
        <ele>69</ele>
        <time>2011-09-04T15:16:26.000Z</time>
      </trkpt>
      <trkpt lat="43.62445" lon="7.07699">
        <ele>69.199996948242</ele>
        <time>2011-09-04T15:16:29.000Z</time>
      </trkpt>
      <trkpt lat="43.62449" lon="7.07684">
        <ele>69.400001525879</ele>
        <time>2011-09-04T15:16:34.000Z</time>
      </trkpt>
      <trkpt lat="43.62451" lon="7.07682">
        <ele>69.199996948242</ele>
        <time>2011-09-04T15:16:36.000Z</time>
      </trkpt>
      <trkpt lat="43.62454" lon="7.07681">
        <ele>69.199996948242</ele>
        <time>2011-09-04T15:16:38.000Z</time>
      </trkpt>
      <trkpt lat="43.62455" lon="7.07673">
        <ele>69.199996948242</ele>
        <time>2011-09-04T15:16:58.000Z</time>
      </trkpt>
      <trkpt lat="43.62457" lon="7.07669">
        <ele>69</ele>
        <time>2011-09-04T15:17:01.000Z</time>
      </trkpt>
      <trkpt lat="43.62465" lon="7.07669">
        <ele>68.400001525879</ele>
        <time>2011-09-04T15:17:05.000Z</time>
      </trkpt>
      <trkpt lat="43.62467" lon="7.07669">
        <ele>68.400001525879</ele>
        <time>2011-09-04T15:17:06.000Z</time>
      </trkpt>
      <trkpt lat="43.62466" lon="7.07665">
        <ele>68.400001525879</ele>
        <time>2011-09-04T15:17:12.000Z</time>
      </trkpt>
      <trkpt lat="43.62461" lon="7.07662">
        <ele>68.800003051758</ele>
        <time>2011-09-04T15:17:14.000Z</time>
      </trkpt>
      <trkpt lat="43.6246" lon="7.0766">
        <ele>68.800003051758</ele>
        <time>2011-09-04T15:17:17.000Z</time>
      </trkpt>
      <trkpt lat="43.62463" lon="7.07661">
        <ele>68.599998474121</ele>
        <time>2011-09-04T15:17:19.000Z</time>
      </trkpt>
      <trkpt lat="43.62462" lon="7.07658">
        <ele>68.599998474121</ele>
        <time>2011-09-04T15:17:21.000Z</time>
      </trkpt>
      <trkpt lat="43.62463" lon="7.07656">
        <ele>68.599998474121</ele>
        <time>2011-09-04T15:17:22.000Z</time>
      </trkpt>
      <trkpt lat="43.62461" lon="7.07643">
        <ele>68.800003051758</ele>
        <time>2011-09-04T15:17:27.000Z</time>
      </trkpt>
      <trkpt lat="43.62463" lon="7.07641">
        <ele>68.800003051758</ele>
        <time>2011-09-04T15:17:28.000Z</time>
      </trkpt>
      <trkpt lat="43.62459" lon="7.07627">
        <ele>69.400001525879</ele>
        <time>2011-09-04T15:17:33.000Z</time>
      </trkpt>
      <trkpt lat="43.62457" lon="7.07619">
        <ele>69.599998474121</ele>
        <time>2011-09-04T15:17:37.000Z</time>
      </trkpt>
      <trkpt lat="43.62455" lon="7.07618">
        <ele>69.800003051758</ele>
        <time>2011-09-04T15:17:38.000Z</time>
      </trkpt>
      <trkpt lat="43.62458" lon="7.07617">
        <ele>69.599998474121</ele>
        <time>2011-09-04T15:17:43.000Z</time>
      </trkpt>
      <trkpt lat="43.62465" lon="7.07615">
        <ele>68.400001525879</ele>
        <time>2011-09-04T15:17:47.000Z</time>
      </trkpt>
      <trkpt lat="43.62465" lon="7.07614">
        <ele>68.599998474121</ele>
        <time>2011-09-04T15:17:48.000Z</time>
      </trkpt>
      <trkpt lat="43.62471" lon="7.07614">
        <ele>67.599998474121</ele>
        <time>2011-09-04T15:17:52.000Z</time>
      </trkpt>
      <trkpt lat="43.62466" lon="7.07605">
        <ele>68.400001525879</ele>
        <time>2011-09-04T15:17:59.000Z</time>
      </trkpt>
      <trkpt lat="43.62464" lon="7.07601">
        <ele>68.800003051758</ele>
        <time>2011-09-04T15:18:00.000Z</time>
      </trkpt>
      <trkpt lat="43.6246" lon="7.07583">
        <ele>69.599998474121</ele>
        <time>2011-09-04T15:18:06.000Z</time>
      </trkpt>
      <trkpt lat="43.62469" lon="7.07571">
        <ele>68</ele>
        <time>2011-09-04T15:18:11.000Z</time>
      </trkpt>
      <trkpt lat="43.62469" lon="7.07552">
        <ele>67.800003051758</ele>
        <time>2011-09-04T15:18:17.000Z</time>
      </trkpt>
      <trkpt lat="43.62477" lon="7.07541">
        <ele>66.199996948242</ele>
        <time>2011-09-04T15:18:21.000Z</time>
      </trkpt>
      <trkpt lat="43.62481" lon="7.07535">
        <ele>65.400001525879</ele>
        <time>2011-09-04T15:18:23.000Z</time>
      </trkpt>
      <trkpt lat="43.62483" lon="7.0753">
        <ele>64.800003051758</ele>
        <time>2011-09-04T15:18:25.000Z</time>
      </trkpt>
      <trkpt lat="43.62485" lon="7.07519">
        <ele>64.400001525879</ele>
        <time>2011-09-04T15:18:29.000Z</time>
      </trkpt>
      <trkpt lat="43.62489" lon="7.07501">
        <ele>63.400001525879</ele>
        <time>2011-09-04T15:18:35.000Z</time>
      </trkpt>
      <trkpt lat="43.62503" lon="7.07486">
        <ele>62.200000762939</ele>
        <time>2011-09-04T15:18:41.000Z</time>
      </trkpt>
      <trkpt lat="43.6251" lon="7.07482">
        <ele>64</ele>
        <time>2011-09-04T15:18:44.000Z</time>
      </trkpt>
      <trkpt lat="43.62516" lon="7.07477">
        <ele>65.199996948242</ele>
        <time>2011-09-04T15:18:46.000Z</time>
      </trkpt>
      <trkpt lat="43.62516" lon="7.07471">
        <ele>65.199996948242</ele>
        <time>2011-09-04T15:18:48.000Z</time>
      </trkpt>
      <trkpt lat="43.62519" lon="7.07461">
        <ele>66</ele>
        <time>2011-09-04T15:18:52.000Z</time>
      </trkpt>
      <trkpt lat="43.6252" lon="7.07458">
        <ele>66.199996948242</ele>
        <time>2011-09-04T15:18:53.000Z</time>
      </trkpt>
      <trkpt lat="43.62523" lon="7.07447">
        <ele>66.599998474121</ele>
        <time>2011-09-04T15:18:57.000Z</time>
      </trkpt>
      <trkpt lat="43.62529" lon="7.07433">
        <ele>67</ele>
        <time>2011-09-04T15:19:02.000Z</time>
      </trkpt>
      <trkpt lat="43.62534" lon="7.07425">
        <ele>67.199996948242</ele>
        <time>2011-09-04T15:19:06.000Z</time>
      </trkpt>
      <trkpt lat="43.62535" lon="7.07423">
        <ele>67.199996948242</ele>
        <time>2011-09-04T15:19:08.000Z</time>
      </trkpt>
      <trkpt lat="43.6254" lon="7.07412">
        <ele>67.800003051758</ele>
        <time>2011-09-04T15:19:24.000Z</time>
      </trkpt>
      <trkpt lat="43.62539" lon="7.07407">
        <ele>68</ele>
        <time>2011-09-04T15:19:27.000Z</time>
      </trkpt>
      <trkpt lat="43.62539" lon="7.07401">
        <ele>68.599998474121</ele>
        <time>2011-09-04T15:19:32.000Z</time>
      </trkpt>
      <trkpt lat="43.62547" lon="7.07397">
        <ele>68.800003051758</ele>
        <time>2011-09-04T15:19:37.000Z</time>
      </trkpt>
      <trkpt lat="43.6255" lon="7.07394">
        <ele>69</ele>
        <time>2011-09-04T15:19:40.000Z</time>
      </trkpt>
      <trkpt lat="43.62551" lon="7.0739">
        <ele>69.199996948242</ele>
        <time>2011-09-04T15:19:43.000Z</time>
      </trkpt>
      <trkpt lat="43.62546" lon="7.07385">
        <ele>69.599998474121</ele>
        <time>2011-09-04T15:19:46.000Z</time>
      </trkpt>
      <trkpt lat="43.62544" lon="7.07383">
        <ele>69.800003051758</ele>
        <time>2011-09-04T15:19:47.000Z</time>
      </trkpt>
      <trkpt lat="43.62541" lon="7.07376">
        <ele>70.599998474121</ele>
        <time>2011-09-04T15:19:51.000Z</time>
      </trkpt>
      <trkpt lat="43.62542" lon="7.07374">
        <ele>70.800003051758</ele>
        <time>2011-09-04T15:19:53.000Z</time>
      </trkpt>
      <trkpt lat="43.62547" lon="7.07373">
        <ele>70.199996948242</ele>
        <time>2011-09-04T15:19:57.000Z</time>
      </trkpt>
      <trkpt lat="43.62549" lon="7.07368">
        <ele>70.400001525879</ele>
        <time>2011-09-04T15:20:02.000Z</time>
      </trkpt>
      <trkpt lat="43.62548" lon="7.07364">
        <ele>70.599998474121</ele>
        <time>2011-09-04T15:20:05.000Z</time>
      </trkpt>
      <trkpt lat="43.62552" lon="7.0736">
        <ele>70.400001525879</ele>
        <time>2011-09-04T15:20:09.000Z</time>
      </trkpt>
      <trkpt lat="43.62552" lon="7.07359">
        <ele>70.400001525879</ele>
        <time>2011-09-04T15:20:10.000Z</time>
      </trkpt>
      <trkpt lat="43.62557" lon="7.07357">
        <ele>69.599998474121</ele>
        <time>2011-09-04T15:20:15.000Z</time>
      </trkpt>
      <trkpt lat="43.6256" lon="7.07352">
        <ele>69.199996948242</ele>
        <time>2011-09-04T15:20:19.000Z</time>
      </trkpt>
      <trkpt lat="43.62566" lon="7.07342">
        <ele>68.199996948242</ele>
        <time>2011-09-04T15:20:29.000Z</time>
      </trkpt>
      <trkpt lat="43.62567" lon="7.07336">
        <ele>67.800003051758</ele>
        <time>2011-09-04T15:20:33.000Z</time>
      </trkpt>
      <trkpt lat="43.62569" lon="7.07335">
        <ele>67.400001525879</ele>
        <time>2011-09-04T15:20:34.000Z</time>
      </trkpt>
      <trkpt lat="43.62575" lon="7.07326">
        <ele>66.599998474121</ele>
        <time>2011-09-04T15:20:39.000Z</time>
      </trkpt>
      <trkpt lat="43.62574" lon="7.07324">
        <ele>66.800003051758</ele>
        <time>2011-09-04T15:20:40.000Z</time>
      </trkpt>
      <trkpt lat="43.62574" lon="7.0732">
        <ele>67.199996948242</ele>
        <time>2011-09-04T15:20:42.000Z</time>
      </trkpt>
      <trkpt lat="43.62581" lon="7.07313">
        <ele>66</ele>
        <time>2011-09-04T15:20:46.000Z</time>
      </trkpt>
      <trkpt lat="43.62588" lon="7.07302">
        <ele>67.199996948242</ele>
        <time>2011-09-04T15:20:51.000Z</time>
      </trkpt>
      <trkpt lat="43.62589" lon="7.07299">
        <ele>67.599998474121</ele>
        <time>2011-09-04T15:20:52.000Z</time>
      </trkpt>
      <trkpt lat="43.62595" lon="7.07289">
        <ele>69.400001525879</ele>
        <time>2011-09-04T15:20:58.000Z</time>
      </trkpt>
      <trkpt lat="43.62603" lon="7.07284">
        <ele>70.800003051758</ele>
        <time>2011-09-04T15:21:01.000Z</time>
      </trkpt>
      <trkpt lat="43.62607" lon="7.0728">
        <ele>71.800003051758</ele>
        <time>2011-09-04T15:21:03.000Z</time>
      </trkpt>
      <trkpt lat="43.62608" lon="7.07278">
        <ele>72</ele>
        <time>2011-09-04T15:21:05.000Z</time>
      </trkpt>
      <trkpt lat="43.62618" lon="7.07273">
        <ele>73.599998474121</ele>
        <time>2011-09-04T15:21:09.000Z</time>
      </trkpt>
      <trkpt lat="43.62625" lon="7.0726">
        <ele>74.400001525879</ele>
        <time>2011-09-04T15:21:15.000Z</time>
      </trkpt>
      <trkpt lat="43.62627" lon="7.07257">
        <ele>74.800003051758</ele>
        <time>2011-09-04T15:21:16.000Z</time>
      </trkpt>
      <trkpt lat="43.62633" lon="7.07244">
        <ele>75.199996948242</ele>
        <time>2011-09-04T15:21:21.000Z</time>
      </trkpt>
      <trkpt lat="43.62632" lon="7.07234">
        <ele>75</ele>
        <time>2011-09-04T15:21:24.000Z</time>
      </trkpt>
      <trkpt lat="43.6263" lon="7.07226">
        <ele>74.800003051758</ele>
        <time>2011-09-04T15:21:26.000Z</time>
      </trkpt>
      <trkpt lat="43.62636" lon="7.07213">
        <ele>75.199996948242</ele>
        <time>2011-09-04T15:21:30.000Z</time>
      </trkpt>
      <trkpt lat="43.6264" lon="7.07211">
        <ele>75.400001525879</ele>
        <time>2011-09-04T15:21:31.000Z</time>
      </trkpt>
      <trkpt lat="43.62637" lon="7.07204">
        <ele>75</ele>
        <time>2011-09-04T15:21:33.000Z</time>
      </trkpt>
      <trkpt lat="43.62645" lon="7.07198">
        <ele>75.400001525879</ele>
        <time>2011-09-04T15:21:36.000Z</time>
      </trkpt>
      <trkpt lat="43.62648" lon="7.07188">
        <ele>75.199996948242</ele>
        <time>2011-09-04T15:21:39.000Z</time>
      </trkpt>
      <trkpt lat="43.62646" lon="7.07179">
        <ele>75</ele>
        <time>2011-09-04T15:21:42.000Z</time>
      </trkpt>
      <trkpt lat="43.62642" lon="7.07161">
        <ele>74.800003051758</ele>
        <time>2011-09-04T15:21:47.000Z</time>
      </trkpt>
      <trkpt lat="43.62643" lon="7.0715">
        <ele>75</ele>
        <time>2011-09-04T15:21:51.000Z</time>
      </trkpt>
      <trkpt lat="43.62642" lon="7.07148">
        <ele>75</ele>
        <time>2011-09-04T15:21:52.000Z</time>
      </trkpt>
      <trkpt lat="43.62639" lon="7.07136">
        <ele>75.400001525879</ele>
        <time>2011-09-04T15:21:56.000Z</time>
      </trkpt>
      <trkpt lat="43.62635" lon="7.0712">
        <ele>75.599998474121</ele>
        <time>2011-09-04T15:22:01.000Z</time>
      </trkpt>
      <trkpt lat="43.62639" lon="7.07112">
        <ele>75.800003051758</ele>
        <time>2011-09-04T15:22:06.000Z</time>
      </trkpt>
      <trkpt lat="43.62636" lon="7.07104">
        <ele>76</ele>
        <time>2011-09-04T15:22:11.000Z</time>
      </trkpt>
      <trkpt lat="43.62627" lon="7.071">
        <ele>76</ele>
        <time>2011-09-04T15:22:14.000Z</time>
      </trkpt>
      <trkpt lat="43.62624" lon="7.07099">
        <ele>76</ele>
        <time>2011-09-04T15:22:16.000Z</time>
      </trkpt>
      <trkpt lat="43.62628" lon="7.07103">
        <ele>76</ele>
        <time>2011-09-04T15:22:25.000Z</time>
      </trkpt>
      <trkpt lat="43.62634" lon="7.07104">
        <ele>76</ele>
        <time>2011-09-04T15:22:28.000Z</time>
      </trkpt>
      <trkpt lat="43.62645" lon="7.07105">
        <ele>76.199996948242</ele>
        <time>2011-09-04T15:22:35.000Z</time>
      </trkpt>
      <trkpt lat="43.62655" lon="7.07107">
        <ele>76.199996948242</ele>
        <time>2011-09-04T15:22:50.000Z</time>
      </trkpt>
      <trkpt lat="43.62655" lon="7.07108">
        <ele>76.199996948242</ele>
        <time>2011-09-04T15:22:55.000Z</time>
      </trkpt>
      <trkpt lat="43.6265" lon="7.0711">
        <ele>76</ele>
        <time>2011-09-04T15:23:06.000Z</time>
      </trkpt>
      <trkpt lat="43.62643" lon="7.07103">
        <ele>76.199996948242</ele>
        <time>2011-09-04T15:23:12.000Z</time>
      </trkpt>
      <trkpt lat="43.62654" lon="7.071">
        <ele>76.400001525879</ele>
        <time>2011-09-04T15:23:22.000Z</time>
      </trkpt>
      <trkpt lat="43.62648" lon="7.07098">
        <ele>76.400001525879</ele>
        <time>2011-09-04T15:23:25.000Z</time>
      </trkpt>
      <trkpt lat="43.62647" lon="7.07094">
        <ele>76.400001525879</ele>
        <time>2011-09-04T15:23:29.000Z</time>
      </trkpt>
      <trkpt lat="43.62641" lon="7.0709">
        <ele>76.400001525879</ele>
        <time>2011-09-04T15:23:39.000Z</time>
      </trkpt>
      <trkpt lat="43.62643" lon="7.07086">
        <ele>76.599998474121</ele>
        <time>2011-09-04T15:23:42.000Z</time>
      </trkpt>
      <trkpt lat="43.62642" lon="7.07077">
        <ele>77</ele>
        <time>2011-09-04T15:23:47.000Z</time>
      </trkpt>
      <trkpt lat="43.62644" lon="7.07075">
        <ele>77.199996948242</ele>
        <time>2011-09-04T15:23:52.000Z</time>
      </trkpt>
      <trkpt lat="43.62637" lon="7.07067">
        <ele>77.199996948242</ele>
        <time>2011-09-04T15:23:58.000Z</time>
      </trkpt>
      <trkpt lat="43.62638" lon="7.07065">
        <ele>77.400001525879</ele>
        <time>2011-09-04T15:24:03.000Z</time>
      </trkpt>
      <trkpt lat="43.62641" lon="7.07065">
        <ele>77.599998474121</ele>
        <time>2011-09-04T15:24:04.000Z</time>
      </trkpt>
      <trkpt lat="43.62641" lon="7.07062">
        <ele>77.599998474121</ele>
        <time>2011-09-04T15:24:06.000Z</time>
      </trkpt>
      <trkpt lat="43.6264" lon="7.0706">
        <ele>77.599998474121</ele>
        <time>2011-09-04T15:24:07.000Z</time>
      </trkpt>
      <trkpt lat="43.62628" lon="7.0705">
        <ele>77</ele>
        <time>2011-09-04T15:24:12.000Z</time>
      </trkpt>
      <trkpt lat="43.62622" lon="7.0704">
        <ele>76.599998474121</ele>
        <time>2011-09-04T15:24:19.000Z</time>
      </trkpt>
      <trkpt lat="43.62609" lon="7.07025">
        <ele>74.800003051758</ele>
        <time>2011-09-04T15:24:25.000Z</time>
      </trkpt>
      <trkpt lat="43.62612" lon="7.07021">
        <ele>75.199996948242</ele>
        <time>2011-09-04T15:24:28.000Z</time>
      </trkpt>
      <trkpt lat="43.62612" lon="7.07019">
        <ele>75.199996948242</ele>
        <time>2011-09-04T15:24:29.000Z</time>
      </trkpt>
      <trkpt lat="43.62609" lon="7.07011">
        <ele>74.400001525879</ele>
        <time>2011-09-04T15:24:34.000Z</time>
      </trkpt>
      <trkpt lat="43.62606" lon="7.07009">
        <ele>73.800003051758</ele>
        <time>2011-09-04T15:24:38.000Z</time>
      </trkpt>
      <trkpt lat="43.62599" lon="7.07004">
        <ele>72.199996948242</ele>
        <time>2011-09-04T15:24:42.000Z</time>
      </trkpt>
      <trkpt lat="43.62587" lon="7.06992">
        <ele>69.800003051758</ele>
        <time>2011-09-04T15:24:48.000Z</time>
      </trkpt>
      <trkpt lat="43.62574" lon="7.06974">
        <ele>73.199996948242</ele>
        <time>2011-09-04T15:24:54.000Z</time>
      </trkpt>
      <trkpt lat="43.62567" lon="7.06957">
        <ele>76</ele>
        <time>2011-09-04T15:25:01.000Z</time>
      </trkpt>
      <trkpt lat="43.62561" lon="7.06948">
        <ele>78.400001525879</ele>
        <time>2011-09-04T15:25:05.000Z</time>
      </trkpt>
      <trkpt lat="43.62563" lon="7.06947">
        <ele>77.599998474121</ele>
        <time>2011-09-04T15:25:08.000Z</time>
      </trkpt>
      <trkpt lat="43.62578" lon="7.06942">
        <ele>71.599998474121</ele>
        <time>2011-09-04T15:25:18.000Z</time>
      </trkpt>
      <trkpt lat="43.62582" lon="7.06941">
        <ele>70.199996948242</ele>
        <time>2011-09-04T15:25:21.000Z</time>
      </trkpt>
      <trkpt lat="43.62584" lon="7.0693">
        <ele>70</ele>
        <time>2011-09-04T15:25:33.000Z</time>
      </trkpt>
      <trkpt lat="43.62578" lon="7.06925">
        <ele>72</ele>
        <time>2011-09-04T15:25:37.000Z</time>
      </trkpt>
      <trkpt lat="43.62578" lon="7.06915">
        <ele>71.800003051758</ele>
        <time>2011-09-04T15:25:47.000Z</time>
      </trkpt>
      <trkpt lat="43.62571" lon="7.0691">
        <ele>74.400001525879</ele>
        <time>2011-09-04T15:25:50.000Z</time>
      </trkpt>
      <trkpt lat="43.6257" lon="7.06906">
        <ele>74.400001525879</ele>
        <time>2011-09-04T15:25:52.000Z</time>
      </trkpt>
      <trkpt lat="43.62564" lon="7.06903">
        <ele>76.599998474121</ele>
        <time>2011-09-04T15:25:55.000Z</time>
      </trkpt>
      <trkpt lat="43.62557" lon="7.06892">
        <ele>78.800003051758</ele>
        <time>2011-09-04T15:26:01.000Z</time>
      </trkpt>
      <trkpt lat="43.62555" lon="7.06891">
        <ele>79.400001525879</ele>
        <time>2011-09-04T15:26:02.000Z</time>
      </trkpt>
      <trkpt lat="43.62555" lon="7.06889">
        <ele>79.599998474121</ele>
        <time>2011-09-04T15:26:06.000Z</time>
      </trkpt>
      <trkpt lat="43.62561" lon="7.06891">
        <ele>77.400001525879</ele>
        <time>2011-09-04T15:26:07.000Z</time>
      </trkpt>
      <trkpt lat="43.62571" lon="7.0689">
        <ele>74</ele>
        <time>2011-09-04T15:26:09.000Z</time>
      </trkpt>
      <trkpt lat="43.62586" lon="7.06889">
        <ele>70</ele>
        <time>2011-09-04T15:26:12.000Z</time>
      </trkpt>
      <trkpt lat="43.62578" lon="7.06883">
        <ele>71.199996948242</ele>
        <time>2011-09-04T15:26:16.000Z</time>
      </trkpt>
      <trkpt lat="43.62562" lon="7.06875">
        <ele>76.800003051758</ele>
        <time>2011-09-04T15:26:20.000Z</time>
      </trkpt>
      <trkpt lat="43.62567" lon="7.0687">
        <ele>74.800003051758</ele>
        <time>2011-09-04T15:26:25.000Z</time>
      </trkpt>
      <trkpt lat="43.6257" lon="7.06865">
        <ele>73.599998474121</ele>
        <time>2011-09-04T15:26:34.000Z</time>
      </trkpt>
      <trkpt lat="43.62565" lon="7.06858">
        <ele>75.199996948242</ele>
        <time>2011-09-04T15:26:40.000Z</time>
      </trkpt>
      <trkpt lat="43.6257" lon="7.06854">
        <ele>73.400001525879</ele>
        <time>2011-09-04T15:26:44.000Z</time>
      </trkpt>
      <trkpt lat="43.62572" lon="7.06853">
        <ele>73</ele>
        <time>2011-09-04T15:26:47.000Z</time>
      </trkpt>
      <trkpt lat="43.62563" lon="7.06848">
        <ele>75.599998474121</ele>
        <time>2011-09-04T15:26:58.000Z</time>
      </trkpt>
      <trkpt lat="43.6256" lon="7.06845">
        <ele>76.400001525879</ele>
        <time>2011-09-04T15:27:01.000Z</time>
      </trkpt>
      <trkpt lat="43.62558" lon="7.06838">
        <ele>76.800003051758</ele>
        <time>2011-09-04T15:27:08.000Z</time>
      </trkpt>
      <trkpt lat="43.6256" lon="7.06833">
        <ele>76.199996948242</ele>
        <time>2011-09-04T15:27:16.000Z</time>
      </trkpt>
      <trkpt lat="43.6255" lon="7.06829">
        <ele>79.599998474121</ele>
        <time>2011-09-04T15:27:19.000Z</time>
      </trkpt>
      <trkpt lat="43.62549" lon="7.06828">
        <ele>79.800003051758</ele>
        <time>2011-09-04T15:27:20.000Z</time>
      </trkpt>
      <trkpt lat="43.62547" lon="7.06825">
        <ele>80.599998474121</ele>
        <time>2011-09-04T15:27:23.000Z</time>
      </trkpt>
      <trkpt lat="43.62541" lon="7.06819">
        <ele>82.800003051758</ele>
        <time>2011-09-04T15:27:28.000Z</time>
      </trkpt>
      <trkpt lat="43.62541" lon="7.06816">
        <ele>82.599998474121</ele>
        <time>2011-09-04T15:27:31.000Z</time>
      </trkpt>
      <trkpt lat="43.62542" lon="7.06813">
        <ele>82.599998474121</ele>
        <time>2011-09-04T15:27:34.000Z</time>
      </trkpt>
      <trkpt lat="43.62547" lon="7.06801">
        <ele>81.400001525879</ele>
        <time>2011-09-04T15:27:52.000Z</time>
      </trkpt>
      <trkpt lat="43.62546" lon="7.06798">
        <ele>81.800003051758</ele>
        <time>2011-09-04T15:27:55.000Z</time>
      </trkpt>
      <trkpt lat="43.62558" lon="7.06785">
        <ele>78.599998474121</ele>
        <time>2011-09-04T15:28:21.000Z</time>
      </trkpt>
      <trkpt lat="43.62563" lon="7.0678">
        <ele>77.400001525879</ele>
        <time>2011-09-04T15:28:25.000Z</time>
      </trkpt>
      <trkpt lat="43.62564" lon="7.06776">
        <ele>77.400001525879</ele>
        <time>2011-09-04T15:28:29.000Z</time>
      </trkpt>
      <trkpt lat="43.62568" lon="7.06775">
        <ele>76.199996948242</ele>
        <time>2011-09-04T15:28:33.000Z</time>
      </trkpt>
      <trkpt lat="43.62559" lon="7.0677">
        <ele>79</ele>
        <time>2011-09-04T15:28:42.000Z</time>
      </trkpt>
      <trkpt lat="43.62556" lon="7.0677">
        <ele>80</ele>
        <time>2011-09-04T15:28:46.000Z</time>
      </trkpt>
      <trkpt lat="43.6257" lon="7.06769">
        <ele>76</ele>
        <time>2011-09-04T15:28:59.000Z</time>
      </trkpt>
      <trkpt lat="43.62575" lon="7.0677">
        <ele>74.400001525879</ele>
        <time>2011-09-04T15:29:02.000Z</time>
      </trkpt>
      <trkpt lat="43.62584" lon="7.06767">
        <ele>72</ele>
        <time>2011-09-04T15:29:07.000Z</time>
      </trkpt>
      <trkpt lat="43.62592" lon="7.06764">
        <ele>72.199996948242</ele>
        <time>2011-09-04T15:29:11.000Z</time>
      </trkpt>
      <trkpt lat="43.62592" lon="7.06762">
        <ele>72.199996948242</ele>
        <time>2011-09-04T15:29:15.000Z</time>
      </trkpt>
      <trkpt lat="43.62599" lon="7.06758">
        <ele>72.199996948242</ele>
        <time>2011-09-04T15:29:26.000Z</time>
      </trkpt>
      <trkpt lat="43.62603" lon="7.06757">
        <ele>72</ele>
        <time>2011-09-04T15:29:29.000Z</time>
      </trkpt>
      <trkpt lat="43.62607" lon="7.06754">
        <ele>71.800003051758</ele>
        <time>2011-09-04T15:29:35.000Z</time>
      </trkpt>
      <trkpt lat="43.62614" lon="7.06751">
        <ele>71.400001525879</ele>
        <time>2011-09-04T15:29:44.000Z</time>
      </trkpt>
      <trkpt lat="43.6262" lon="7.0675">
        <ele>71.199996948242</ele>
        <time>2011-09-04T15:29:46.000Z</time>
      </trkpt>
      <trkpt lat="43.62634" lon="7.06738">
        <ele>70.800003051758</ele>
        <time>2011-09-04T15:29:51.000Z</time>
      </trkpt>
      <trkpt lat="43.62641" lon="7.06721">
        <ele>70.800003051758</ele>
        <time>2011-09-04T15:29:55.000Z</time>
      </trkpt>
      <trkpt lat="43.62644" lon="7.06706">
        <ele>70.599998474121</ele>
        <time>2011-09-04T15:29:59.000Z</time>
      </trkpt>
      <trkpt lat="43.62642" lon="7.06695">
        <ele>71.199996948242</ele>
        <time>2011-09-04T15:30:03.000Z</time>
      </trkpt>
      <trkpt lat="43.62641" lon="7.06692">
        <ele>71.199996948242</ele>
        <time>2011-09-04T15:30:04.000Z</time>
      </trkpt>
      <trkpt lat="43.62638" lon="7.06685">
        <ele>71.800003051758</ele>
        <time>2011-09-04T15:30:07.000Z</time>
      </trkpt>
      <trkpt lat="43.62638" lon="7.06676">
        <ele>72</ele>
        <time>2011-09-04T15:30:11.000Z</time>
      </trkpt>
      <trkpt lat="43.62638" lon="7.06668">
        <ele>72.400001525879</ele>
        <time>2011-09-04T15:30:15.000Z</time>
      </trkpt>
      <trkpt lat="43.62641" lon="7.06661">
        <ele>71.800003051758</ele>
        <time>2011-09-04T15:30:19.000Z</time>
      </trkpt>
      <trkpt lat="43.62641" lon="7.06661">
        <ele>71.800003051758</ele>
        <time>2011-09-04T15:30:20.000Z</time>
      </trkpt>
      <trkpt lat="43.62639" lon="7.06643">
        <ele>72.199996948242</ele>
        <time>2011-09-04T15:30:52.000Z</time>
      </trkpt>
      <trkpt lat="43.6264" lon="7.06629">
        <ele>72</ele>
        <time>2011-09-04T15:30:58.000Z</time>
      </trkpt>
      <trkpt lat="43.62641" lon="7.06619">
        <ele>71.599998474121</ele>
        <time>2011-09-04T15:31:03.000Z</time>
      </trkpt>
      <trkpt lat="43.62638" lon="7.06603">
        <ele>72.199996948242</ele>
        <time>2011-09-04T15:31:10.000Z</time>
      </trkpt>
      <trkpt lat="43.62636" lon="7.06591">
        <ele>72.400001525879</ele>
        <time>2011-09-04T15:31:16.000Z</time>
      </trkpt>
      <trkpt lat="43.62627" lon="7.0658">
        <ele>74.199996948242</ele>
        <time>2011-09-04T15:31:21.000Z</time>
      </trkpt>
      <trkpt lat="43.62615" lon="7.06563">
        <ele>76.400001525879</ele>
        <time>2011-09-04T15:31:25.000Z</time>
      </trkpt>
      <trkpt lat="43.62608" lon="7.06549">
        <ele>77</ele>
        <time>2011-09-04T15:31:30.000Z</time>
      </trkpt>
      <trkpt lat="43.62616" lon="7.0655">
        <ele>76.400001525879</ele>
        <time>2011-09-04T15:31:34.000Z</time>
      </trkpt>
      <trkpt lat="43.62627" lon="7.0655">
        <ele>75.400001525879</ele>
        <time>2011-09-04T15:31:37.000Z</time>
      </trkpt>
      <trkpt lat="43.62636" lon="7.06551">
        <ele>74.599998474121</ele>
        <time>2011-09-04T15:31:42.000Z</time>
      </trkpt>
      <trkpt lat="43.62642" lon="7.06553">
        <ele>74</ele>
        <time>2011-09-04T15:32:28.000Z</time>
      </trkpt>
      <trkpt lat="43.62633" lon="7.06552">
        <ele>74.800003051758</ele>
        <time>2011-09-04T15:32:44.000Z</time>
      </trkpt>
      <trkpt lat="43.62629" lon="7.06552">
        <ele>75.199996948242</ele>
        <time>2011-09-04T15:32:46.000Z</time>
      </trkpt>
      <trkpt lat="43.62627" lon="7.06552">
        <ele>75.199996948242</ele>
        <time>2011-09-04T15:32:49.000Z</time>
      </trkpt>
      <trkpt lat="43.62621" lon="7.06546">
        <ele>76</ele>
        <time>2011-09-04T15:33:05.000Z</time>
      </trkpt>
      <trkpt lat="43.62619" lon="7.06543">
        <ele>76.199996948242</ele>
        <time>2011-09-04T15:33:08.000Z</time>
      </trkpt>
      <trkpt lat="43.62623" lon="7.06543">
        <ele>76</ele>
        <time>2011-09-04T15:33:09.000Z</time>
      </trkpt>
      <trkpt lat="43.62627" lon="7.06547">
        <ele>75.599998474121</ele>
        <time>2011-09-04T15:33:11.000Z</time>
      </trkpt>
      <trkpt lat="43.62634" lon="7.06549">
        <ele>75</ele>
        <time>2011-09-04T15:33:15.000Z</time>
      </trkpt>
      <trkpt lat="43.62625" lon="7.06549">
        <ele>75.599998474121</ele>
        <time>2011-09-04T15:33:18.000Z</time>
      </trkpt>
      <trkpt lat="43.62622" lon="7.06548">
        <ele>76</ele>
        <time>2011-09-04T15:33:19.000Z</time>
      </trkpt>
      <trkpt lat="43.62613" lon="7.06548">
        <ele>76.599998474121</ele>
        <time>2011-09-04T15:33:22.000Z</time>
      </trkpt>
      <trkpt lat="43.62609" lon="7.06546">
        <ele>76.800003051758</ele>
        <time>2011-09-04T15:33:29.000Z</time>
      </trkpt>
      <trkpt lat="43.6262" lon="7.06545">
        <ele>76.199996948242</ele>
        <time>2011-09-04T15:33:33.000Z</time>
      </trkpt>
      <trkpt lat="43.62631" lon="7.0655">
        <ele>75</ele>
        <time>2011-09-04T15:33:38.000Z</time>
      </trkpt>
      <trkpt lat="43.62636" lon="7.06547">
        <ele>74.800003051758</ele>
        <time>2011-09-04T15:33:44.000Z</time>
      </trkpt>
      <trkpt lat="43.62634" lon="7.06547">
        <ele>75</ele>
        <time>2011-09-04T15:33:57.000Z</time>
      </trkpt>
      <trkpt lat="43.62629" lon="7.06543">
        <ele>75.599998474121</ele>
        <time>2011-09-04T15:33:59.000Z</time>
      </trkpt>
      <trkpt lat="43.62626" lon="7.06544">
        <ele>75.800003051758</ele>
        <time>2011-09-04T15:34:03.000Z</time>
      </trkpt>
      <trkpt lat="43.62624" lon="7.06545">
        <ele>75.800003051758</ele>
        <time>2011-09-04T15:34:05.000Z</time>
      </trkpt>
      <trkpt lat="43.62627" lon="7.06547">
        <ele>75.599998474121</ele>
        <time>2011-09-04T15:34:08.000Z</time>
      </trkpt>
      <trkpt lat="43.62624" lon="7.0655">
        <ele>75.599998474121</ele>
        <time>2011-09-04T15:34:13.000Z</time>
      </trkpt>
      <trkpt lat="43.62631" lon="7.06558">
        <ele>74.599998474121</ele>
        <time>2011-09-04T15:34:40.000Z</time>
      </trkpt>
      <trkpt lat="43.62632" lon="7.06562">
        <ele>74.400001525879</ele>
        <time>2011-09-04T15:34:42.000Z</time>
      </trkpt>
      <trkpt lat="43.62631" lon="7.06564">
        <ele>74.400001525879</ele>
        <time>2011-09-04T15:34:45.000Z</time>
      </trkpt>
      <trkpt lat="43.6263" lon="7.06559">
        <ele>74.800003051758</ele>
        <time>2011-09-04T15:34:59.000Z</time>
      </trkpt>
      <trkpt lat="43.62623" lon="7.06554">
        <ele>75.599998474121</ele>
        <time>2011-09-04T15:35:09.000Z</time>
      </trkpt>
      <trkpt lat="43.62623" lon="7.06554">
        <ele>75.599998474121</ele>
        <time>2011-09-04T15:35:11.000Z</time>
      </trkpt>
      <trkpt lat="43.62631" lon="7.06555">
        <ele>74.800003051758</ele>
        <time>2011-09-04T15:35:24.000Z</time>
      </trkpt>
      <trkpt lat="43.62636" lon="7.06558">
        <ele>74.199996948242</ele>
        <time>2011-09-04T15:35:28.000Z</time>
      </trkpt>
      <trkpt lat="43.62633" lon="7.06562">
        <ele>74.199996948242</ele>
        <time>2011-09-04T15:35:34.000Z</time>
      </trkpt>
      <trkpt lat="43.62611" lon="7.06553">
        <ele>76.800003051758</ele>
        <time>2011-09-04T15:36:44.000Z</time>
      </trkpt>
      <trkpt lat="43.62606" lon="7.06548">
        <ele>77.199996948242</ele>
        <time>2011-09-04T15:36:59.000Z</time>
      </trkpt>
      <trkpt lat="43.6262" lon="7.06558">
        <ele>75.800003051758</ele>
        <time>2011-09-04T15:37:45.000Z</time>
      </trkpt>
      <trkpt lat="43.6262" lon="7.06559">
        <ele>75.800003051758</ele>
        <time>2011-09-04T15:37:46.000Z</time>
      </trkpt>
      <trkpt lat="43.62622" lon="7.0656">
        <ele>75.599998474121</ele>
        <time>2011-09-04T15:38:10.000Z</time>
      </trkpt>
      <trkpt lat="43.62615" lon="7.06558">
        <ele>76.400001525879</ele>
        <time>2011-09-04T15:38:14.000Z</time>
      </trkpt>
      <trkpt lat="43.62609" lon="7.06554">
        <ele>77</ele>
        <time>2011-09-04T15:38:34.000Z</time>
      </trkpt>
      <trkpt lat="43.62608" lon="7.06554">
        <ele>77</ele>
        <time>2011-09-04T15:38:35.000Z</time>
      </trkpt>
      <trkpt lat="43.62597" lon="7.06549">
        <ele>77.800003051758</ele>
        <time>2011-09-04T15:38:40.000Z</time>
      </trkpt>
      <trkpt lat="43.62593" lon="7.06551">
        <ele>78.400001525879</ele>
        <time>2011-09-04T15:38:46.000Z</time>
      </trkpt>
      <trkpt lat="43.62627" lon="7.06557">
        <ele>75.199996948242</ele>
        <time>2011-09-04T15:39:11.000Z</time>
      </trkpt>
      <trkpt lat="43.62628" lon="7.06555">
        <ele>75.199996948242</ele>
        <time>2011-09-04T15:39:14.000Z</time>
      </trkpt>
      <trkpt lat="43.62615" lon="7.06547">
        <ele>76.400001525879</ele>
        <time>2011-09-04T15:39:29.000Z</time>
      </trkpt>
      <trkpt lat="43.62625" lon="7.06558">
        <ele>75.400001525879</ele>
        <time>2011-09-04T15:39:42.000Z</time>
      </trkpt>
      <trkpt lat="43.62629" lon="7.0656">
        <ele>74.800003051758</ele>
        <time>2011-09-04T15:39:55.000Z</time>
      </trkpt>
      <trkpt lat="43.62619" lon="7.06554">
        <ele>76</ele>
        <time>2011-09-04T15:40:04.000Z</time>
      </trkpt>
      <trkpt lat="43.62621" lon="7.06552">
        <ele>76</ele>
        <time>2011-09-04T15:40:07.000Z</time>
      </trkpt>
      <trkpt lat="43.62622" lon="7.06553">
        <ele>75.800003051758</ele>
        <time>2011-09-04T15:40:09.000Z</time>
      </trkpt>
      <trkpt lat="43.62622" lon="7.06557">
        <ele>75.599998474121</ele>
        <time>2011-09-04T15:40:11.000Z</time>
      </trkpt>
      <trkpt lat="43.62623" lon="7.0656">
        <ele>75.400001525879</ele>
        <time>2011-09-04T15:40:13.000Z</time>
      </trkpt>
      <trkpt lat="43.62624" lon="7.06563">
        <ele>75.400001525879</ele>
        <time>2011-09-04T15:40:16.000Z</time>
      </trkpt>
      <trkpt lat="43.62627" lon="7.06566">
        <ele>74.800003051758</ele>
        <time>2011-09-04T15:40:19.000Z</time>
      </trkpt>
      <trkpt lat="43.62632" lon="7.06568">
        <ele>74</ele>
        <time>2011-09-04T15:40:21.000Z</time>
      </trkpt>
      <trkpt lat="43.62637" lon="7.06569">
        <ele>73.400001525879</ele>
        <time>2011-09-04T15:40:23.000Z</time>
      </trkpt>
      <trkpt lat="43.62646" lon="7.0657">
        <ele>72</ele>
        <time>2011-09-04T15:40:27.000Z</time>
      </trkpt>
      <trkpt lat="43.6265" lon="7.06571">
        <ele>71.199996948242</ele>
        <time>2011-09-04T15:40:29.000Z</time>
      </trkpt>
      <trkpt lat="43.62656" lon="7.06573">
        <ele>70.199996948242</ele>
        <time>2011-09-04T15:40:32.000Z</time>
      </trkpt>
      <trkpt lat="43.62669" lon="7.06572">
        <ele>68.800003051758</ele>
        <time>2011-09-04T15:40:39.000Z</time>
      </trkpt>
      <trkpt lat="43.62672" lon="7.06574">
        <ele>68.800003051758</ele>
        <time>2011-09-04T15:40:40.000Z</time>
      </trkpt>
      <trkpt lat="43.62679" lon="7.06574">
        <ele>69.199996948242</ele>
        <time>2011-09-04T15:40:44.000Z</time>
      </trkpt>
      <trkpt lat="43.62685" lon="7.06572">
        <ele>70</ele>
        <time>2011-09-04T15:40:48.000Z</time>
      </trkpt>
      <trkpt lat="43.62691" lon="7.06572">
        <ele>70.400001525879</ele>
        <time>2011-09-04T15:40:50.000Z</time>
      </trkpt>
      <trkpt lat="43.62695" lon="7.06574">
        <ele>70.400001525879</ele>
        <time>2011-09-04T15:40:53.000Z</time>
      </trkpt>
      <trkpt lat="43.62702" lon="7.06575">
        <ele>70.599998474121</ele>
        <time>2011-09-04T15:40:56.000Z</time>
      </trkpt>
      <trkpt lat="43.62705" lon="7.06574">
        <ele>71</ele>
        <time>2011-09-04T15:40:58.000Z</time>
      </trkpt>
      <trkpt lat="43.62707" lon="7.06574">
        <ele>71.199996948242</ele>
        <time>2011-09-04T15:40:59.000Z</time>
      </trkpt>
      <trkpt lat="43.62709" lon="7.06576">
        <ele>71</ele>
        <time>2011-09-04T15:41:02.000Z</time>
      </trkpt>
      <trkpt lat="43.62714" lon="7.06578">
        <ele>71.199996948242</ele>
        <time>2011-09-04T15:41:18.000Z</time>
      </trkpt>
      <trkpt lat="43.62718" lon="7.06578">
        <ele>71.400001525879</ele>
        <time>2011-09-04T15:41:23.000Z</time>
      </trkpt>
      <trkpt lat="43.62723" lon="7.06579">
        <ele>71.599998474121</ele>
        <time>2011-09-04T15:41:28.000Z</time>
      </trkpt>
      <trkpt lat="43.6273" lon="7.06579">
        <ele>72.199996948242</ele>
        <time>2011-09-04T15:41:31.000Z</time>
      </trkpt>
      <trkpt lat="43.62732" lon="7.06584">
        <ele>71.599998474121</ele>
        <time>2011-09-04T15:41:33.000Z</time>
      </trkpt>
      <trkpt lat="43.62742" lon="7.06594">
        <ele>73</ele>
        <time>2011-09-04T15:41:37.000Z</time>
      </trkpt>
      <trkpt lat="43.62751" lon="7.06603">
        <ele>74.400001525879</ele>
        <time>2011-09-04T15:41:42.000Z</time>
      </trkpt>
      <trkpt lat="43.62758" lon="7.06609">
        <ele>75.199996948242</ele>
        <time>2011-09-04T15:41:47.000Z</time>
      </trkpt>
      <trkpt lat="43.62761" lon="7.06607">
        <ele>75.199996948242</ele>
        <time>2011-09-04T15:41:50.000Z</time>
      </trkpt>
      <trkpt lat="43.62764" lon="7.06605">
        <ele>75.199996948242</ele>
        <time>2011-09-04T15:41:51.000Z</time>
      </trkpt>
      <trkpt lat="43.62771" lon="7.06599">
        <ele>75</ele>
        <time>2011-09-04T15:41:55.000Z</time>
      </trkpt>
      <trkpt lat="43.62777" lon="7.06592">
        <ele>74.400001525879</ele>
        <time>2011-09-04T15:41:58.000Z</time>
      </trkpt>
      <trkpt lat="43.62779" lon="7.06587">
        <ele>73.599998474121</ele>
        <time>2011-09-04T15:42:00.000Z</time>
      </trkpt>
      <trkpt lat="43.62786" lon="7.06574">
        <ele>74</ele>
        <time>2011-09-04T15:42:07.000Z</time>
      </trkpt>
      <trkpt lat="43.62792" lon="7.06568">
        <ele>74.400001525879</ele>
        <time>2011-09-04T15:42:12.000Z</time>
      </trkpt>
      <trkpt lat="43.62793" lon="7.06568">
        <ele>74.400001525879</ele>
        <time>2011-09-04T15:42:13.000Z</time>
      </trkpt>
      <trkpt lat="43.62795" lon="7.06565">
        <ele>74.599998474121</ele>
        <time>2011-09-04T15:42:17.000Z</time>
      </trkpt>
      <trkpt lat="43.62796" lon="7.06564">
        <ele>74.599998474121</ele>
        <time>2011-09-04T15:42:21.000Z</time>
      </trkpt>
      <trkpt lat="43.62792" lon="7.06555">
        <ele>75.199996948242</ele>
        <time>2011-09-04T15:42:26.000Z</time>
      </trkpt>
      <trkpt lat="43.6279" lon="7.06551">
        <ele>75.599998474121</ele>
        <time>2011-09-04T15:42:29.000Z</time>
      </trkpt>
      <trkpt lat="43.62788" lon="7.0655">
        <ele>75.800003051758</ele>
        <time>2011-09-04T15:42:54.000Z</time>
      </trkpt>
      <trkpt lat="43.62802" lon="7.06553">
        <ele>75</ele>
        <time>2011-09-04T15:43:42.000Z</time>
      </trkpt>
      <trkpt lat="43.62802" lon="7.06553">
        <ele>75</ele>
        <time>2011-09-04T15:43:45.000Z</time>
      </trkpt>
      <trkpt lat="43.62799" lon="7.06555">
        <ele>75</ele>
        <time>2011-09-04T15:43:47.000Z</time>
      </trkpt>
      <trkpt lat="43.62797" lon="7.06557">
        <ele>75</ele>
        <time>2011-09-04T15:43:50.000Z</time>
      </trkpt>
      <trkpt lat="43.62792" lon="7.06559">
        <ele>75</ele>
        <time>2011-09-04T15:44:02.000Z</time>
      </trkpt>
      <trkpt lat="43.62792" lon="7.0656">
        <ele>75</ele>
        <time>2011-09-04T15:44:06.000Z</time>
      </trkpt>
      <trkpt lat="43.6278" lon="7.06553">
        <ele>75.800003051758</ele>
        <time>2011-09-04T15:44:36.000Z</time>
      </trkpt>
      <trkpt lat="43.62799" lon="7.06562">
        <ele>74.599998474121</ele>
        <time>2011-09-04T15:45:22.000Z</time>
      </trkpt>
      <trkpt lat="43.62806" lon="7.06562">
        <ele>74.599998474121</ele>
        <time>2011-09-04T15:45:25.000Z</time>
      </trkpt>
      <trkpt lat="43.62817" lon="7.06562">
        <ele>74.199996948242</ele>
        <time>2011-09-04T15:45:31.000Z</time>
      </trkpt>
      <trkpt lat="43.62815" lon="7.06556">
        <ele>74.400001525879</ele>
        <time>2011-09-04T15:45:39.000Z</time>
      </trkpt>
      <trkpt lat="43.62815" lon="7.06553">
        <ele>74.599998474121</ele>
        <time>2011-09-04T15:45:47.000Z</time>
      </trkpt>
      <trkpt lat="43.62809" lon="7.06549">
        <ele>75</ele>
        <time>2011-09-04T15:45:53.000Z</time>
      </trkpt>
      <trkpt lat="43.62806" lon="7.06547">
        <ele>75.199996948242</ele>
        <time>2011-09-04T15:45:54.000Z</time>
      </trkpt>
      <trkpt lat="43.62793" lon="7.0654">
        <ele>76.199996948242</ele>
        <time>2011-09-04T15:45:58.000Z</time>
      </trkpt>
      <trkpt lat="43.62785" lon="7.06536">
        <ele>77</ele>
        <time>2011-09-04T15:46:03.000Z</time>
      </trkpt>
      <trkpt lat="43.6279" lon="7.06542">
        <ele>76.199996948242</ele>
        <time>2011-09-04T15:46:14.000Z</time>
      </trkpt>
      <trkpt lat="43.62808" lon="7.06543">
        <ele>75.199996948242</ele>
        <time>2011-09-04T15:46:41.000Z</time>
      </trkpt>
      <trkpt lat="43.62808" lon="7.06542">
        <ele>75.199996948242</ele>
        <time>2011-09-04T15:46:43.000Z</time>
      </trkpt>
      <trkpt lat="43.62809" lon="7.06539">
        <ele>75.400001525879</ele>
        <time>2011-09-04T15:46:46.000Z</time>
      </trkpt>
      <trkpt lat="43.62811" lon="7.06532">
        <ele>75.400001525879</ele>
        <time>2011-09-04T15:46:49.000Z</time>
      </trkpt>
      <trkpt lat="43.62813" lon="7.0653">
        <ele>75.400001525879</ele>
        <time>2011-09-04T15:46:51.000Z</time>
      </trkpt>
      <trkpt lat="43.62812" lon="7.06527">
        <ele>75.599998474121</ele>
        <time>2011-09-04T15:46:53.000Z</time>
      </trkpt>
      <trkpt lat="43.62821" lon="7.06516">
        <ele>75</ele>
        <time>2011-09-04T15:47:05.000Z</time>
      </trkpt>
      <trkpt lat="43.62829" lon="7.06502">
        <ele>74.400001525879</ele>
        <time>2011-09-04T15:47:17.000Z</time>
      </trkpt>
      <trkpt lat="43.62829" lon="7.06498">
        <ele>75</ele>
        <time>2011-09-04T15:47:19.000Z</time>
      </trkpt>
      <trkpt lat="43.62831" lon="7.06495">
        <ele>75.199996948242</ele>
        <time>2011-09-04T15:47:23.000Z</time>
      </trkpt>
      <trkpt lat="43.62834" lon="7.06486">
        <ele>76.800003051758</ele>
        <time>2011-09-04T15:47:29.000Z</time>
      </trkpt>
      <trkpt lat="43.62836" lon="7.06484">
        <ele>77.400001525879</ele>
        <time>2011-09-04T15:47:31.000Z</time>
      </trkpt>
      <trkpt lat="43.62839" lon="7.06482">
        <ele>77.800003051758</ele>
        <time>2011-09-04T15:47:33.000Z</time>
      </trkpt>
      <trkpt lat="43.62841" lon="7.06479">
        <ele>78.199996948242</ele>
        <time>2011-09-04T15:47:35.000Z</time>
      </trkpt>
      <trkpt lat="43.62842" lon="7.06475">
        <ele>78.800003051758</ele>
        <time>2011-09-04T15:47:37.000Z</time>
      </trkpt>
      <trkpt lat="43.62844" lon="7.06473">
        <ele>79.199996948242</ele>
        <time>2011-09-04T15:47:42.000Z</time>
      </trkpt>
      <trkpt lat="43.6285" lon="7.06475">
        <ele>78.400001525879</ele>
        <time>2011-09-04T15:48:33.000Z</time>
      </trkpt>
      <trkpt lat="43.62851" lon="7.06469">
        <ele>79.400001525879</ele>
        <time>2011-09-04T15:48:45.000Z</time>
      </trkpt>
      <trkpt lat="43.62855" lon="7.06467">
        <ele>79.400001525879</ele>
        <time>2011-09-04T15:48:48.000Z</time>
      </trkpt>
      <trkpt lat="43.62863" lon="7.06447">
        <ele>81.199996948242</ele>
        <time>2011-09-04T15:48:56.000Z</time>
      </trkpt>
      <trkpt lat="43.62878" lon="7.06431">
        <ele>80.199996948242</ele>
        <time>2011-09-04T15:49:02.000Z</time>
      </trkpt>
      <trkpt lat="43.62886" lon="7.06419">
        <ele>79.199996948242</ele>
        <time>2011-09-04T15:49:06.000Z</time>
      </trkpt>
      <trkpt lat="43.62888" lon="7.06418">
        <ele>78.599998474121</ele>
        <time>2011-09-04T15:49:07.000Z</time>
      </trkpt>
      <trkpt lat="43.629" lon="7.06411">
        <ele>76.800003051758</ele>
        <time>2011-09-04T15:49:11.000Z</time>
      </trkpt>
      <trkpt lat="43.62908" lon="7.06409">
        <ele>75.199996948242</ele>
        <time>2011-09-04T15:49:16.000Z</time>
      </trkpt>
      <trkpt lat="43.62914" lon="7.06402">
        <ele>74.800003051758</ele>
        <time>2011-09-04T15:49:26.000Z</time>
      </trkpt>
      <trkpt lat="43.62917" lon="7.06398">
        <ele>74.599998474121</ele>
        <time>2011-09-04T15:49:29.000Z</time>
      </trkpt>
      <trkpt lat="43.62922" lon="7.06392">
        <ele>75.400001525879</ele>
        <time>2011-09-04T15:49:34.000Z</time>
      </trkpt>
      <trkpt lat="43.62924" lon="7.06385">
        <ele>76.199996948242</ele>
        <time>2011-09-04T15:49:38.000Z</time>
      </trkpt>
      <trkpt lat="43.62929" lon="7.0638">
        <ele>76.800003051758</ele>
        <time>2011-09-04T15:49:41.000Z</time>
      </trkpt>
      <trkpt lat="43.62937" lon="7.06377">
        <ele>76.599998474121</ele>
        <time>2011-09-04T15:49:43.000Z</time>
      </trkpt>
      <trkpt lat="43.6295" lon="7.06366">
        <ele>77</ele>
        <time>2011-09-04T15:49:48.000Z</time>
      </trkpt>
      <trkpt lat="43.62956" lon="7.06359">
        <ele>77</ele>
        <time>2011-09-04T15:49:52.000Z</time>
      </trkpt>
      <trkpt lat="43.62959" lon="7.06355">
        <ele>77</ele>
        <time>2011-09-04T15:49:53.000Z</time>
      </trkpt>
      <trkpt lat="43.62967" lon="7.06345">
        <ele>76.800003051758</ele>
        <time>2011-09-04T15:49:57.000Z</time>
      </trkpt>
      <trkpt lat="43.6297" lon="7.06344">
        <ele>76.400001525879</ele>
        <time>2011-09-04T15:49:59.000Z</time>
      </trkpt>
      <trkpt lat="43.62981" lon="7.06335">
        <ele>75.400001525879</ele>
        <time>2011-09-04T15:50:04.000Z</time>
      </trkpt>
      <trkpt lat="43.62982" lon="7.06334">
        <ele>75.199996948242</ele>
        <time>2011-09-04T15:50:05.000Z</time>
      </trkpt>
      <trkpt lat="43.6299" lon="7.06327">
        <ele>75.400001525879</ele>
        <time>2011-09-04T15:50:09.000Z</time>
      </trkpt>
      <trkpt lat="43.62996" lon="7.06321">
        <ele>75.400001525879</ele>
        <time>2011-09-04T15:50:13.000Z</time>
      </trkpt>
      <trkpt lat="43.63005" lon="7.06311">
        <ele>76.400001525879</ele>
        <time>2011-09-04T15:50:26.000Z</time>
      </trkpt>
      <trkpt lat="43.63014" lon="7.06305">
        <ele>77</ele>
        <time>2011-09-04T15:50:31.000Z</time>
      </trkpt>
      <trkpt lat="43.6302" lon="7.06301">
        <ele>77.599998474121</ele>
        <time>2011-09-04T15:50:34.000Z</time>
      </trkpt>
      <trkpt lat="43.63027" lon="7.06298">
        <ele>77.800003051758</ele>
        <time>2011-09-04T15:50:37.000Z</time>
      </trkpt>
      <trkpt lat="43.6303" lon="7.06297">
        <ele>77.800003051758</ele>
        <time>2011-09-04T15:50:38.000Z</time>
      </trkpt>
      <trkpt lat="43.63037" lon="7.063">
        <ele>77.199996948242</ele>
        <time>2011-09-04T15:50:42.000Z</time>
      </trkpt>
      <trkpt lat="43.6305" lon="7.06301">
        <ele>76.800003051758</ele>
        <time>2011-09-04T15:50:45.000Z</time>
      </trkpt>
      <trkpt lat="43.63065" lon="7.06307">
        <ele>76</ele>
        <time>2011-09-04T15:50:50.000Z</time>
      </trkpt>
      <trkpt lat="43.63076" lon="7.06307">
        <ele>75.800003051758</ele>
        <time>2011-09-04T15:50:54.000Z</time>
      </trkpt>
      <trkpt lat="43.63085" lon="7.06306">
        <ele>75.800003051758</ele>
        <time>2011-09-04T15:50:59.000Z</time>
      </trkpt>
      <trkpt lat="43.63087" lon="7.06304">
        <ele>76</ele>
        <time>2011-09-04T15:51:44.000Z</time>
      </trkpt>
      <trkpt lat="43.63089" lon="7.06303">
        <ele>76.199996948242</ele>
        <time>2011-09-04T15:52:24.000Z</time>
      </trkpt>
      <trkpt lat="43.63083" lon="7.06292">
        <ele>76.800003051758</ele>
        <time>2011-09-04T15:52:29.000Z</time>
      </trkpt>
      <trkpt lat="43.63086" lon="7.06297">
        <ele>76.599998474121</ele>
        <time>2011-09-04T15:52:32.000Z</time>
      </trkpt>
      <trkpt lat="43.63092" lon="7.06297">
        <ele>76.599998474121</ele>
        <time>2011-09-04T15:53:00.000Z</time>
      </trkpt>
      <trkpt lat="43.63092" lon="7.06296">
        <ele>76.599998474121</ele>
        <time>2011-09-04T15:53:03.000Z</time>
      </trkpt>
      <trkpt lat="43.63094" lon="7.06296">
        <ele>76.599998474121</ele>
        <time>2011-09-04T15:53:14.000Z</time>
      </trkpt>
      <trkpt lat="43.63089" lon="7.06292">
        <ele>76.800003051758</ele>
        <time>2011-09-04T15:53:17.000Z</time>
      </trkpt>
      <trkpt lat="43.63083" lon="7.06306">
        <ele>75.800003051758</ele>
        <time>2011-09-04T15:54:00.000Z</time>
      </trkpt>
      <trkpt lat="43.63092" lon="7.06303">
        <ele>76.199996948242</ele>
        <time>2011-09-04T15:54:11.000Z</time>
      </trkpt>
      <trkpt lat="43.63092" lon="7.06306">
        <ele>76</ele>
        <time>2011-09-04T15:54:14.000Z</time>
      </trkpt>
      <trkpt lat="43.63095" lon="7.06303">
        <ele>76.199996948242</ele>
        <time>2011-09-04T15:54:26.000Z</time>
      </trkpt>
      <trkpt lat="43.631" lon="7.06303">
        <ele>76.199996948242</ele>
        <time>2011-09-04T15:54:29.000Z</time>
      </trkpt>
      <trkpt lat="43.63099" lon="7.06305">
        <ele>76.199996948242</ele>
        <time>2011-09-04T15:54:35.000Z</time>
      </trkpt>
      <trkpt lat="43.63093" lon="7.06303">
        <ele>76.199996948242</ele>
        <time>2011-09-04T15:54:37.000Z</time>
      </trkpt>
      <trkpt lat="43.63092" lon="7.06303">
        <ele>76.199996948242</ele>
        <time>2011-09-04T15:54:40.000Z</time>
      </trkpt>
      <trkpt lat="43.63092" lon="7.06304">
        <ele>76.199996948242</ele>
        <time>2011-09-04T15:54:55.000Z</time>
      </trkpt>
      <trkpt lat="43.6309" lon="7.06305">
        <ele>76</ele>
        <time>2011-09-04T15:55:00.000Z</time>
      </trkpt>
      <trkpt lat="43.63089" lon="7.0631">
        <ele>75.599998474121</ele>
        <time>2011-09-04T15:55:06.000Z</time>
      </trkpt>
      <trkpt lat="43.63084" lon="7.0631">
        <ele>75.599998474121</ele>
        <time>2011-09-04T15:55:09.000Z</time>
      </trkpt>
      <trkpt lat="43.63082" lon="7.06301">
        <ele>76.199996948242</ele>
        <time>2011-09-04T15:55:27.000Z</time>
      </trkpt>
      <trkpt lat="43.63081" lon="7.063">
        <ele>76.400001525879</ele>
        <time>2011-09-04T15:55:30.000Z</time>
      </trkpt>
      <trkpt lat="43.63071" lon="7.06291">
        <ele>77.400001525879</ele>
        <time>2011-09-04T15:55:34.000Z</time>
      </trkpt>
      <trkpt lat="43.63068" lon="7.0629">
        <ele>77.599998474121</ele>
        <time>2011-09-04T15:55:38.000Z</time>
      </trkpt>
      <trkpt lat="43.63089" lon="7.06308">
        <ele>75.800003051758</ele>
        <time>2011-09-04T15:56:11.000Z</time>
      </trkpt>
      <trkpt lat="43.63088" lon="7.06301">
        <ele>76.199996948242</ele>
        <time>2011-09-04T15:56:15.000Z</time>
      </trkpt>
      <trkpt lat="43.63087" lon="7.06299">
        <ele>76.400001525879</ele>
        <time>2011-09-04T15:56:16.000Z</time>
      </trkpt>
      <trkpt lat="43.63083" lon="7.06293">
        <ele>76.800003051758</ele>
        <time>2011-09-04T15:56:19.000Z</time>
      </trkpt>
      <trkpt lat="43.63089" lon="7.06302">
        <ele>76.199996948242</ele>
        <time>2011-09-04T15:56:36.000Z</time>
      </trkpt>
      <trkpt lat="43.6309" lon="7.06303">
        <ele>76.199996948242</ele>
        <time>2011-09-04T15:56:40.000Z</time>
      </trkpt>
      <trkpt lat="43.63088" lon="7.06304">
        <ele>76</ele>
        <time>2011-09-04T15:56:45.000Z</time>
      </trkpt>
      <trkpt lat="43.63088" lon="7.06308">
        <ele>75.800003051758</ele>
        <time>2011-09-04T15:56:49.000Z</time>
      </trkpt>
      <trkpt lat="43.6309" lon="7.06316">
        <ele>75.400001525879</ele>
        <time>2011-09-04T15:56:51.000Z</time>
      </trkpt>
      <trkpt lat="43.63087" lon="7.06319">
        <ele>75</ele>
        <time>2011-09-04T15:56:54.000Z</time>
      </trkpt>
      <trkpt lat="43.63087" lon="7.06322">
        <ele>74.800003051758</ele>
        <time>2011-09-04T15:56:56.000Z</time>
      </trkpt>
      <trkpt lat="43.63089" lon="7.06316">
        <ele>75.199996948242</ele>
        <time>2011-09-04T15:57:00.000Z</time>
      </trkpt>
      <trkpt lat="43.63092" lon="7.06317">
        <ele>75.199996948242</ele>
        <time>2011-09-04T15:57:01.000Z</time>
      </trkpt>
      <trkpt lat="43.63091" lon="7.06314">
        <ele>75.400001525879</ele>
        <time>2011-09-04T15:57:04.000Z</time>
      </trkpt>
      <trkpt lat="43.63086" lon="7.06308">
        <ele>75.800003051758</ele>
        <time>2011-09-04T15:57:12.000Z</time>
      </trkpt>
      <trkpt lat="43.63087" lon="7.06299">
        <ele>76.400001525879</ele>
        <time>2011-09-04T15:57:15.000Z</time>
      </trkpt>
      <trkpt lat="43.63089" lon="7.06293">
        <ele>76.800003051758</ele>
        <time>2011-09-04T15:57:20.000Z</time>
      </trkpt>
      <trkpt lat="43.63091" lon="7.06292">
        <ele>77</ele>
        <time>2011-09-04T15:57:21.000Z</time>
      </trkpt>
      <trkpt lat="43.63091" lon="7.06291">
        <ele>77</ele>
        <time>2011-09-04T15:57:24.000Z</time>
      </trkpt>
      <trkpt lat="43.63093" lon="7.06293">
        <ele>76.800003051758</ele>
        <time>2011-09-04T15:57:25.000Z</time>
      </trkpt>
      <trkpt lat="43.63096" lon="7.06308">
        <ele>76</ele>
        <time>2011-09-04T15:57:45.000Z</time>
      </trkpt>
      <trkpt lat="43.63089" lon="7.06306">
        <ele>76</ele>
        <time>2011-09-04T15:57:48.000Z</time>
      </trkpt>
      <trkpt lat="43.63089" lon="7.06304">
        <ele>76.199996948242</ele>
        <time>2011-09-04T15:57:52.000Z</time>
      </trkpt>
      <trkpt lat="43.63094" lon="7.06305">
        <ele>76</ele>
        <time>2011-09-04T15:57:58.000Z</time>
      </trkpt>
      <trkpt lat="43.63087" lon="7.06297">
        <ele>76.599998474121</ele>
        <time>2011-09-04T15:58:25.000Z</time>
      </trkpt>
      <trkpt lat="43.63084" lon="7.06301">
        <ele>76.199996948242</ele>
        <time>2011-09-04T15:59:00.000Z</time>
      </trkpt>
      <trkpt lat="43.63085" lon="7.06303">
        <ele>76</ele>
        <time>2011-09-04T15:59:03.000Z</time>
      </trkpt>
      <trkpt lat="43.63087" lon="7.06307">
        <ele>75.800003051758</ele>
        <time>2011-09-04T15:59:36.000Z</time>
      </trkpt>
      <trkpt lat="43.6309" lon="7.06308">
        <ele>75.800003051758</ele>
        <time>2011-09-04T15:59:39.000Z</time>
      </trkpt>
      <trkpt lat="43.63089" lon="7.06311">
        <ele>75.599998474121</ele>
        <time>2011-09-04T16:00:15.000Z</time>
      </trkpt>
      <trkpt lat="43.63075" lon="7.06285">
        <ele>77.599998474121</ele>
        <time>2011-09-04T16:00:48.000Z</time>
      </trkpt>
      <trkpt lat="43.63072" lon="7.06283">
        <ele>78</ele>
        <time>2011-09-04T16:00:51.000Z</time>
      </trkpt>
      <trkpt lat="43.63078" lon="7.06309">
        <ele>75.599998474121</ele>
        <time>2011-09-04T16:01:23.000Z</time>
      </trkpt>
      <trkpt lat="43.63084" lon="7.06319">
        <ele>75</ele>
        <time>2011-09-04T16:01:27.000Z</time>
      </trkpt>
      <trkpt lat="43.63074" lon="7.06305">
        <ele>76.199996948242</ele>
        <time>2011-09-04T16:01:38.000Z</time>
      </trkpt>
      <trkpt lat="43.63076" lon="7.06305">
        <ele>76</ele>
        <time>2011-09-04T16:01:41.000Z</time>
      </trkpt>
      <trkpt lat="43.63081" lon="7.06301">
        <ele>76.199996948242</ele>
        <time>2011-09-04T16:02:08.000Z</time>
      </trkpt>
      <trkpt lat="43.63085" lon="7.06304">
        <ele>76</ele>
        <time>2011-09-04T16:02:12.000Z</time>
      </trkpt>
      <trkpt lat="43.63076" lon="7.06309">
        <ele>75.800003051758</ele>
        <time>2011-09-04T16:02:22.000Z</time>
      </trkpt>
      <trkpt lat="43.63076" lon="7.06313">
        <ele>75.400001525879</ele>
        <time>2011-09-04T16:02:25.000Z</time>
      </trkpt>
      <trkpt lat="43.63083" lon="7.06294">
        <ele>76.800003051758</ele>
        <time>2011-09-04T16:03:02.000Z</time>
      </trkpt>
      <trkpt lat="43.63081" lon="7.06294">
        <ele>76.800003051758</ele>
        <time>2011-09-04T16:03:05.000Z</time>
      </trkpt>
      <trkpt lat="43.63086" lon="7.06296">
        <ele>76.599998474121</ele>
        <time>2011-09-04T16:03:15.000Z</time>
      </trkpt>
      <trkpt lat="43.6309" lon="7.06301">
        <ele>76.199996948242</ele>
        <time>2011-09-04T16:03:18.000Z</time>
      </trkpt>
      <trkpt lat="43.63084" lon="7.063">
        <ele>76.400001525879</ele>
        <time>2011-09-04T16:03:24.000Z</time>
      </trkpt>
      <trkpt lat="43.63085" lon="7.06293">
        <ele>76.800003051758</ele>
        <time>2011-09-04T16:03:57.000Z</time>
      </trkpt>
      <trkpt lat="43.63085" lon="7.0629">
        <ele>77</ele>
        <time>2011-09-04T16:04:00.000Z</time>
      </trkpt>
      <trkpt lat="43.6308" lon="7.06282">
        <ele>77.800003051758</ele>
        <time>2011-09-04T16:04:04.000Z</time>
      </trkpt>
      <trkpt lat="43.63079" lon="7.06282">
        <ele>77.800003051758</ele>
        <time>2011-09-04T16:04:05.000Z</time>
      </trkpt>
      <trkpt lat="43.63073" lon="7.06281">
        <ele>78</ele>
        <time>2011-09-04T16:04:09.000Z</time>
      </trkpt>
      <trkpt lat="43.63063" lon="7.06279">
        <ele>78.599998474121</ele>
        <time>2011-09-04T16:04:17.000Z</time>
      </trkpt>
      <trkpt lat="43.63062" lon="7.06278">
        <ele>78.800003051758</ele>
        <time>2011-09-04T16:04:18.000Z</time>
      </trkpt>
      <trkpt lat="43.63054" lon="7.06277">
        <ele>79.199996948242</ele>
        <time>2011-09-04T16:04:24.000Z</time>
      </trkpt>
      <trkpt lat="43.63052" lon="7.06278">
        <ele>79.400001525879</ele>
        <time>2011-09-04T16:04:25.000Z</time>
      </trkpt>
      <trkpt lat="43.63046" lon="7.06278">
        <ele>79.599998474121</ele>
        <time>2011-09-04T16:04:30.000Z</time>
      </trkpt>
      <trkpt lat="43.63039" lon="7.06279">
        <ele>79.800003051758</ele>
        <time>2011-09-04T16:04:37.000Z</time>
      </trkpt>
      <trkpt lat="43.6303" lon="7.0628">
        <ele>80</ele>
        <time>2011-09-04T16:04:43.000Z</time>
      </trkpt>
      <trkpt lat="43.63025" lon="7.06279">
        <ele>80.400001525879</ele>
        <time>2011-09-04T16:04:46.000Z</time>
      </trkpt>
      <trkpt lat="43.63021" lon="7.06279">
        <ele>80.400001525879</ele>
        <time>2011-09-04T16:04:49.000Z</time>
      </trkpt>
      <trkpt lat="43.63013" lon="7.06281">
        <ele>80.400001525879</ele>
        <time>2011-09-04T16:04:55.000Z</time>
      </trkpt>
      <trkpt lat="43.63003" lon="7.06283">
        <ele>80.599998474121</ele>
        <time>2011-09-04T16:05:01.000Z</time>
      </trkpt>
      <trkpt lat="43.6299" lon="7.06286">
        <ele>82</ele>
        <time>2011-09-04T16:05:10.000Z</time>
      </trkpt>
      <trkpt lat="43.62978" lon="7.06289">
        <ele>83.599998474121</ele>
        <time>2011-09-04T16:05:18.000Z</time>
      </trkpt>
      <trkpt lat="43.62978" lon="7.0629">
        <ele>83.599998474121</ele>
        <time>2011-09-04T16:05:19.000Z</time>
      </trkpt>
      <trkpt lat="43.62972" lon="7.06292">
        <ele>84.199996948242</ele>
        <time>2011-09-04T16:05:23.000Z</time>
      </trkpt>
      <trkpt lat="43.6296" lon="7.06299">
        <ele>85</ele>
        <time>2011-09-04T16:05:30.000Z</time>
      </trkpt>
      <trkpt lat="43.62946" lon="7.06307">
        <ele>85.400001525879</ele>
        <time>2011-09-04T16:05:38.000Z</time>
      </trkpt>
      <trkpt lat="43.62931" lon="7.0632">
        <ele>84.800003051758</ele>
        <time>2011-09-04T16:05:47.000Z</time>
      </trkpt>
      <trkpt lat="43.62918" lon="7.06329">
        <ele>84.599998474121</ele>
        <time>2011-09-04T16:05:54.000Z</time>
      </trkpt>
      <trkpt lat="43.62905" lon="7.06338">
        <ele>87.400001525879</ele>
        <time>2011-09-04T16:06:01.000Z</time>
      </trkpt>
      <trkpt lat="43.62894" lon="7.06349">
        <ele>89.599998474121</ele>
        <time>2011-09-04T16:06:09.000Z</time>
      </trkpt>
      <trkpt lat="43.62882" lon="7.0636">
        <ele>91.400001525879</ele>
        <time>2011-09-04T16:06:18.000Z</time>
      </trkpt>
      <trkpt lat="43.62871" lon="7.06367">
        <ele>93.400001525879</ele>
        <time>2011-09-04T16:06:26.000Z</time>
      </trkpt>
      <trkpt lat="43.62861" lon="7.06378">
        <ele>94.400001525879</ele>
        <time>2011-09-04T16:06:35.000Z</time>
      </trkpt>
      <trkpt lat="43.62858" lon="7.06378">
        <ele>95.199996948242</ele>
        <time>2011-09-04T16:06:38.000Z</time>
      </trkpt>
      <trkpt lat="43.62856" lon="7.06381">
        <ele>95</ele>
        <time>2011-09-04T16:06:40.000Z</time>
      </trkpt>
      <trkpt lat="43.62855" lon="7.06382">
        <ele>95.199996948242</ele>
        <time>2011-09-04T16:06:41.000Z</time>
      </trkpt>
      <trkpt lat="43.62848" lon="7.06387">
        <ele>96</ele>
        <time>2011-09-04T16:06:48.000Z</time>
      </trkpt>
      <trkpt lat="43.62839" lon="7.06393">
        <ele>96.800003051758</ele>
        <time>2011-09-04T16:06:55.000Z</time>
      </trkpt>
      <trkpt lat="43.62832" lon="7.06399">
        <ele>97</ele>
        <time>2011-09-04T16:07:03.000Z</time>
      </trkpt>
      <trkpt lat="43.62825" lon="7.06406">
        <ele>96.400001525879</ele>
        <time>2011-09-04T16:07:09.000Z</time>
      </trkpt>
      <trkpt lat="43.62824" lon="7.06407">
        <ele>96.400001525879</ele>
        <time>2011-09-04T16:07:10.000Z</time>
      </trkpt>
      <trkpt lat="43.62822" lon="7.06408">
        <ele>96.400001525879</ele>
        <time>2011-09-04T16:07:11.000Z</time>
      </trkpt>
      <trkpt lat="43.62819" lon="7.06414">
        <ele>95.400001525879</ele>
        <time>2011-09-04T16:07:15.000Z</time>
      </trkpt>
      <trkpt lat="43.62813" lon="7.0642">
        <ele>95</ele>
        <time>2011-09-04T16:07:20.000Z</time>
      </trkpt>
      <trkpt lat="43.62807" lon="7.06423">
        <ele>95.400001525879</ele>
        <time>2011-09-04T16:07:25.000Z</time>
      </trkpt>
      <trkpt lat="43.62804" lon="7.06425">
        <ele>95.400001525879</ele>
        <time>2011-09-04T16:07:27.000Z</time>
      </trkpt>
      <trkpt lat="43.62797" lon="7.06429">
        <ele>95.800003051758</ele>
        <time>2011-09-04T16:07:33.000Z</time>
      </trkpt>
      <trkpt lat="43.62787" lon="7.06429">
        <ele>97.400001525879</ele>
        <time>2011-09-04T16:07:40.000Z</time>
      </trkpt>
      <trkpt lat="43.62782" lon="7.06429">
        <ele>98.599998474121</ele>
        <time>2011-09-04T16:07:44.000Z</time>
      </trkpt>
      <trkpt lat="43.62779" lon="7.06428">
        <ele>99.400001525879</ele>
        <time>2011-09-04T16:07:46.000Z</time>
      </trkpt>
      <trkpt lat="43.62771" lon="7.06425">
        <ele>101.59999847412</ele>
        <time>2011-09-04T16:07:51.000Z</time>
      </trkpt>
      <trkpt lat="43.62758" lon="7.06424">
        <ele>104.19999694824</ele>
        <time>2011-09-04T16:07:59.000Z</time>
      </trkpt>
      <trkpt lat="43.62755" lon="7.06422">
        <ele>105.59999847412</ele>
        <time>2011-09-04T16:08:01.000Z</time>
      </trkpt>
      <trkpt lat="43.6275" lon="7.06421">
        <ele>106.80000305176</ele>
        <time>2011-09-04T16:08:04.000Z</time>
      </trkpt>
      <trkpt lat="43.62742" lon="7.06418">
        <ele>106.40000152588</ele>
        <time>2011-09-04T16:08:10.000Z</time>
      </trkpt>
      <trkpt lat="43.62741" lon="7.06417">
        <ele>106.59999847412</ele>
        <time>2011-09-04T16:08:11.000Z</time>
      </trkpt>
      <trkpt lat="43.62733" lon="7.06411">
        <ele>107</ele>
        <time>2011-09-04T16:08:17.000Z</time>
      </trkpt>
      <trkpt lat="43.62723" lon="7.06407">
        <ele>106.59999847412</ele>
        <time>2011-09-04T16:08:24.000Z</time>
      </trkpt>
      <trkpt lat="43.6272" lon="7.06399">
        <ele>108</ele>
        <time>2011-09-04T16:08:29.000Z</time>
      </trkpt>
      <trkpt lat="43.62719" lon="7.06398">
        <ele>108</ele>
        <time>2011-09-04T16:08:30.000Z</time>
      </trkpt>
      <trkpt lat="43.62714" lon="7.06394">
        <ele>108.19999694824</ele>
        <time>2011-09-04T16:08:34.000Z</time>
      </trkpt>
      <trkpt lat="43.62712" lon="7.06391">
        <ele>108.80000305176</ele>
        <time>2011-09-04T16:08:36.000Z</time>
      </trkpt>
      <trkpt lat="43.62711" lon="7.06389">
        <ele>109</ele>
        <time>2011-09-04T16:08:38.000Z</time>
      </trkpt>
      <trkpt lat="43.62708" lon="7.06385">
        <ele>109.59999847412</ele>
        <time>2011-09-04T16:08:41.000Z</time>
      </trkpt>
      <trkpt lat="43.62705" lon="7.0638">
        <ele>110.19999694824</ele>
        <time>2011-09-04T16:08:45.000Z</time>
      </trkpt>
      <trkpt lat="43.62702" lon="7.06375">
        <ele>111</ele>
        <time>2011-09-04T16:08:51.000Z</time>
      </trkpt>
      <trkpt lat="43.62702" lon="7.06373">
        <ele>111.40000152588</ele>
        <time>2011-09-04T16:08:52.000Z</time>
      </trkpt>
      <trkpt lat="43.62697" lon="7.06366">
        <ele>112.40000152588</ele>
        <time>2011-09-04T16:08:56.000Z</time>
      </trkpt>
      <trkpt lat="43.6269" lon="7.06351">
        <ele>114.80000305176</ele>
        <time>2011-09-04T16:09:04.000Z</time>
      </trkpt>
      <trkpt lat="43.62685" lon="7.06335">
        <ele>117.40000152588</ele>
        <time>2011-09-04T16:09:12.000Z</time>
      </trkpt>
      <trkpt lat="43.62683" lon="7.06332">
        <ele>117.80000305176</ele>
        <time>2011-09-04T16:09:14.000Z</time>
      </trkpt>
      <trkpt lat="43.6268" lon="7.06327">
        <ele>118.19999694824</ele>
        <time>2011-09-04T16:09:17.000Z</time>
      </trkpt>
      <trkpt lat="43.62677" lon="7.06322">
        <ele>118.80000305176</ele>
        <time>2011-09-04T16:09:21.000Z</time>
      </trkpt>
      <trkpt lat="43.62673" lon="7.06314">
        <ele>119.80000305176</ele>
        <time>2011-09-04T16:09:27.000Z</time>
      </trkpt>
      <trkpt lat="43.62668" lon="7.06305">
        <ele>120.80000305176</ele>
        <time>2011-09-04T16:09:32.000Z</time>
      </trkpt>
      <trkpt lat="43.62666" lon="7.06302">
        <ele>121.19999694824</ele>
        <time>2011-09-04T16:09:34.000Z</time>
      </trkpt>
      <trkpt lat="43.6266" lon="7.06293">
        <ele>122.19999694824</ele>
        <time>2011-09-04T16:09:41.000Z</time>
      </trkpt>
      <trkpt lat="43.62657" lon="7.06289">
        <ele>122.80000305176</ele>
        <time>2011-09-04T16:09:43.000Z</time>
      </trkpt>
      <trkpt lat="43.62655" lon="7.06281">
        <ele>124</ele>
        <time>2011-09-04T16:09:47.000Z</time>
      </trkpt>
      <trkpt lat="43.62651" lon="7.06267">
        <ele>126.59999847412</ele>
        <time>2011-09-04T16:09:54.000Z</time>
      </trkpt>
      <trkpt lat="43.62647" lon="7.06251">
        <ele>129.39999389648</ele>
        <time>2011-09-04T16:10:01.000Z</time>
      </trkpt>
      <trkpt lat="43.62646" lon="7.06239">
        <ele>130.39999389648</ele>
        <time>2011-09-04T16:10:07.000Z</time>
      </trkpt>
      <trkpt lat="43.62645" lon="7.06225">
        <ele>131.39999389648</ele>
        <time>2011-09-04T16:10:13.000Z</time>
      </trkpt>
      <trkpt lat="43.62646" lon="7.06216">
        <ele>132.39999389648</ele>
        <time>2011-09-04T16:10:18.000Z</time>
      </trkpt>
      <trkpt lat="43.62649" lon="7.06202">
        <ele>133.80000305176</ele>
        <time>2011-09-04T16:10:25.000Z</time>
      </trkpt>
      <trkpt lat="43.62651" lon="7.06199">
        <ele>134.19999694824</ele>
        <time>2011-09-04T16:10:27.000Z</time>
      </trkpt>
      <trkpt lat="43.62652" lon="7.06192">
        <ele>135</ele>
        <time>2011-09-04T16:10:30.000Z</time>
      </trkpt>
      <trkpt lat="43.62655" lon="7.06174">
        <ele>136.60000610352</ele>
        <time>2011-09-04T16:10:37.000Z</time>
      </trkpt>
      <trkpt lat="43.62655" lon="7.06162">
        <ele>137.60000610352</ele>
        <time>2011-09-04T16:10:43.000Z</time>
      </trkpt>
      <trkpt lat="43.62657" lon="7.0615">
        <ele>138.60000610352</ele>
        <time>2011-09-04T16:10:49.000Z</time>
      </trkpt>
      <trkpt lat="43.62664" lon="7.06133">
        <ele>140.19999694824</ele>
        <time>2011-09-04T16:10:57.000Z</time>
      </trkpt>
      <trkpt lat="43.62671" lon="7.06121">
        <ele>141.80000305176</ele>
        <time>2011-09-04T16:11:05.000Z</time>
      </trkpt>
      <trkpt lat="43.62677" lon="7.06111">
        <ele>143.80000305176</ele>
        <time>2011-09-04T16:11:12.000Z</time>
      </trkpt>
      <trkpt lat="43.62684" lon="7.06102">
        <ele>145.60000610352</ele>
        <time>2011-09-04T16:11:20.000Z</time>
      </trkpt>
      <trkpt lat="43.62686" lon="7.06099">
        <ele>146.19999694824</ele>
        <time>2011-09-04T16:11:23.000Z</time>
      </trkpt>
      <trkpt lat="43.6269" lon="7.06096">
        <ele>147</ele>
        <time>2011-09-04T16:11:26.000Z</time>
      </trkpt>
      <trkpt lat="43.62697" lon="7.06088">
        <ele>148.80000305176</ele>
        <time>2011-09-04T16:11:33.000Z</time>
      </trkpt>
      <trkpt lat="43.62702" lon="7.0608">
        <ele>150</ele>
        <time>2011-09-04T16:11:38.000Z</time>
      </trkpt>
      <trkpt lat="43.62703" lon="7.06079">
        <ele>150.39999389648</ele>
        <time>2011-09-04T16:11:39.000Z</time>
      </trkpt>
      <trkpt lat="43.62711" lon="7.06074">
        <ele>152.19999694824</ele>
        <time>2011-09-04T16:11:45.000Z</time>
      </trkpt>
      <trkpt lat="43.62716" lon="7.06074">
        <ele>153</ele>
        <time>2011-09-04T16:11:48.000Z</time>
      </trkpt>
      <trkpt lat="43.62717" lon="7.06072">
        <ele>153.39999389648</ele>
        <time>2011-09-04T16:11:49.000Z</time>
      </trkpt>
      <trkpt lat="43.62722" lon="7.06067">
        <ele>154.60000610352</ele>
        <time>2011-09-04T16:11:54.000Z</time>
      </trkpt>
      <trkpt lat="43.62723" lon="7.06066">
        <ele>155</ele>
        <time>2011-09-04T16:11:55.000Z</time>
      </trkpt>
      <trkpt lat="43.62729" lon="7.06058">
        <ele>156.60000610352</ele>
        <time>2011-09-04T16:12:01.000Z</time>
      </trkpt>
      <trkpt lat="43.62732" lon="7.06055">
        <ele>157.19999694824</ele>
        <time>2011-09-04T16:12:04.000Z</time>
      </trkpt>
      <trkpt lat="43.62734" lon="7.06057">
        <ele>157.39999389648</ele>
        <time>2011-09-04T16:12:06.000Z</time>
      </trkpt>
      <trkpt lat="43.62738" lon="7.06057">
        <ele>157.80000305176</ele>
        <time>2011-09-04T16:12:10.000Z</time>
      </trkpt>
      <trkpt lat="43.62739" lon="7.06057">
        <ele>158.19999694824</ele>
        <time>2011-09-04T16:12:12.000Z</time>
      </trkpt>
      <trkpt lat="43.62746" lon="7.06054">
        <ele>159.39999389648</ele>
        <time>2011-09-04T16:12:19.000Z</time>
      </trkpt>
      <trkpt lat="43.62748" lon="7.0605">
        <ele>160</ele>
        <time>2011-09-04T16:12:23.000Z</time>
      </trkpt>
      <trkpt lat="43.6275" lon="7.06047">
        <ele>160.60000610352</ele>
        <time>2011-09-04T16:12:25.000Z</time>
      </trkpt>
      <trkpt lat="43.62752" lon="7.06042">
        <ele>161</ele>
        <time>2011-09-04T16:12:29.000Z</time>
      </trkpt>
      <trkpt lat="43.62753" lon="7.06041">
        <ele>161.19999694824</ele>
        <time>2011-09-04T16:12:30.000Z</time>
      </trkpt>
      <trkpt lat="43.62753" lon="7.0604">
        <ele>161.39999389648</ele>
        <time>2011-09-04T16:12:31.000Z</time>
      </trkpt>
      <trkpt lat="43.62754" lon="7.06034">
        <ele>161.80000305176</ele>
        <time>2011-09-04T16:12:36.000Z</time>
      </trkpt>
      <trkpt lat="43.62756" lon="7.06036">
        <ele>161.80000305176</ele>
        <time>2011-09-04T16:12:40.000Z</time>
      </trkpt>
      <trkpt lat="43.62758" lon="7.06039">
        <ele>161.80000305176</ele>
        <time>2011-09-04T16:12:43.000Z</time>
      </trkpt>
      <trkpt lat="43.62759" lon="7.06041">
        <ele>161.80000305176</ele>
        <time>2011-09-04T16:12:44.000Z</time>
      </trkpt>
      <trkpt lat="43.62764" lon="7.06047">
        <ele>161.80000305176</ele>
        <time>2011-09-04T16:12:49.000Z</time>
      </trkpt>
      <trkpt lat="43.62765" lon="7.06048">
        <ele>161.80000305176</ele>
        <time>2011-09-04T16:12:50.000Z</time>
      </trkpt>
      <trkpt lat="43.62773" lon="7.06056">
        <ele>162</ele>
        <time>2011-09-04T16:12:57.000Z</time>
      </trkpt>
      <trkpt lat="43.6278" lon="7.06056">
        <ele>162.39999389648</ele>
        <time>2011-09-04T16:13:02.000Z</time>
      </trkpt>
      <trkpt lat="43.62782" lon="7.06056">
        <ele>162.60000610352</ele>
        <time>2011-09-04T16:13:03.000Z</time>
      </trkpt>
      <trkpt lat="43.6279" lon="7.06058">
        <ele>163.19999694824</ele>
        <time>2011-09-04T16:13:09.000Z</time>
      </trkpt>
      <trkpt lat="43.62795" lon="7.06057">
        <ele>163.80000305176</ele>
        <time>2011-09-04T16:13:14.000Z</time>
      </trkpt>
      <trkpt lat="43.62796" lon="7.06053">
        <ele>164.19999694824</ele>
        <time>2011-09-04T16:13:16.000Z</time>
      </trkpt>
      <trkpt lat="43.628" lon="7.06053">
        <ele>164.39999389648</ele>
        <time>2011-09-04T16:13:21.000Z</time>
      </trkpt>
      <trkpt lat="43.62801" lon="7.06036">
        <ele>166</ele>
        <time>2011-09-04T16:13:59.000Z</time>
      </trkpt>
      <trkpt lat="43.62797" lon="7.06019">
        <ele>166.80000305176</ele>
        <time>2011-09-04T16:14:06.000Z</time>
      </trkpt>
      <trkpt lat="43.62791" lon="7.06001">
        <ele>167.80000305176</ele>
        <time>2011-09-04T16:14:11.000Z</time>
      </trkpt>
      <trkpt lat="43.62783" lon="7.05986">
        <ele>168</ele>
        <time>2011-09-04T16:14:17.000Z</time>
      </trkpt>
      <trkpt lat="43.62776" lon="7.05975">
        <ele>168.19999694824</ele>
        <time>2011-09-04T16:14:22.000Z</time>
      </trkpt>
      <trkpt lat="43.62767" lon="7.05963">
        <ele>168.39999389648</ele>
        <time>2011-09-04T16:14:27.000Z</time>
      </trkpt>
      <trkpt lat="43.62756" lon="7.05952">
        <ele>168.39999389648</ele>
        <time>2011-09-04T16:14:33.000Z</time>
      </trkpt>
      <trkpt lat="43.62745" lon="7.05945">
        <ele>168</ele>
        <time>2011-09-04T16:14:38.000Z</time>
      </trkpt>
      <trkpt lat="43.62733" lon="7.05936">
        <ele>167.60000610352</ele>
        <time>2011-09-04T16:14:44.000Z</time>
      </trkpt>
      <trkpt lat="43.62723" lon="7.05925">
        <ele>167.60000610352</ele>
        <time>2011-09-04T16:14:50.000Z</time>
      </trkpt>
      <trkpt lat="43.62722" lon="7.05922">
        <ele>167.60000610352</ele>
        <time>2011-09-04T16:14:51.000Z</time>
      </trkpt>
      <trkpt lat="43.62717" lon="7.05915">
        <ele>167.80000305176</ele>
        <time>2011-09-04T16:14:54.000Z</time>
      </trkpt>
      <trkpt lat="43.62709" lon="7.05894">
        <ele>167.39999389648</ele>
        <time>2011-09-04T16:15:01.000Z</time>
      </trkpt>
      <trkpt lat="43.62704" lon="7.05876">
        <ele>167.19999694824</ele>
        <time>2011-09-04T16:15:07.000Z</time>
      </trkpt>
      <trkpt lat="43.62703" lon="7.05853">
        <ele>167.60000610352</ele>
        <time>2011-09-04T16:15:14.000Z</time>
      </trkpt>
      <trkpt lat="43.62706" lon="7.05835">
        <ele>168.19999694824</ele>
        <time>2011-09-04T16:15:19.000Z</time>
      </trkpt>
      <trkpt lat="43.62709" lon="7.05813">
        <ele>167</ele>
        <time>2011-09-04T16:15:25.000Z</time>
      </trkpt>
      <trkpt lat="43.6271" lon="7.05805">
        <ele>166.60000610352</ele>
        <time>2011-09-04T16:15:28.000Z</time>
      </trkpt>
      <trkpt lat="43.62711" lon="7.05803">
        <ele>166.39999389648</ele>
        <time>2011-09-04T16:15:29.000Z</time>
      </trkpt>
      <trkpt lat="43.62712" lon="7.05797">
        <ele>166.19999694824</ele>
        <time>2011-09-04T16:15:32.000Z</time>
      </trkpt>
      <trkpt lat="43.62712" lon="7.05793">
        <ele>166</ele>
        <time>2011-09-04T16:15:34.000Z</time>
      </trkpt>
      <trkpt lat="43.6272" lon="7.05778">
        <ele>165.60000610352</ele>
        <time>2011-09-04T16:15:40.000Z</time>
      </trkpt>
      <trkpt lat="43.62724" lon="7.05757">
        <ele>164.60000610352</ele>
        <time>2011-09-04T16:15:46.000Z</time>
      </trkpt>
      <trkpt lat="43.62718" lon="7.05736">
        <ele>162</ele>
        <time>2011-09-04T16:15:51.000Z</time>
      </trkpt>
      <trkpt lat="43.62704" lon="7.0573">
        <ele>160</ele>
        <time>2011-09-04T16:15:55.000Z</time>
      </trkpt>
      <trkpt lat="43.62686" lon="7.05725">
        <ele>157.60000610352</ele>
        <time>2011-09-04T16:16:00.000Z</time>
      </trkpt>
      <trkpt lat="43.62682" lon="7.05726">
        <ele>157.39999389648</ele>
        <time>2011-09-04T16:16:01.000Z</time>
      </trkpt>
      <trkpt lat="43.62667" lon="7.05735">
        <ele>156.60000610352</ele>
        <time>2011-09-04T16:16:05.000Z</time>
      </trkpt>
      <trkpt lat="43.62649" lon="7.05741">
        <ele>155.39999389648</ele>
        <time>2011-09-04T16:16:09.000Z</time>
      </trkpt>
      <trkpt lat="43.62645" lon="7.05744">
        <ele>155.39999389648</ele>
        <time>2011-09-04T16:16:10.000Z</time>
      </trkpt>
      <trkpt lat="43.62641" lon="7.05747">
        <ele>155.19999694824</ele>
        <time>2011-09-04T16:16:11.000Z</time>
      </trkpt>
      <trkpt lat="43.62635" lon="7.05754">
        <ele>155.19999694824</ele>
        <time>2011-09-04T16:16:13.000Z</time>
      </trkpt>
      <trkpt lat="43.62629" lon="7.05768">
        <ele>155.60000610352</ele>
        <time>2011-09-04T16:16:16.000Z</time>
      </trkpt>
      <trkpt lat="43.62626" lon="7.05778">
        <ele>156</ele>
        <time>2011-09-04T16:16:18.000Z</time>
      </trkpt>
      <trkpt lat="43.62622" lon="7.05786">
        <ele>156.19999694824</ele>
        <time>2011-09-04T16:16:20.000Z</time>
      </trkpt>
      <trkpt lat="43.62615" lon="7.05792">
        <ele>156</ele>
        <time>2011-09-04T16:16:22.000Z</time>
      </trkpt>
      <trkpt lat="43.62611" lon="7.05796">
        <ele>155.80000305176</ele>
        <time>2011-09-04T16:16:24.000Z</time>
      </trkpt>
      <trkpt lat="43.6261" lon="7.05797">
        <ele>156</ele>
        <time>2011-09-04T16:16:26.000Z</time>
      </trkpt>
      <trkpt lat="43.62609" lon="7.05798">
        <ele>155.80000305176</ele>
        <time>2011-09-04T16:16:29.000Z</time>
      </trkpt>
      <trkpt lat="43.62609" lon="7.05798">
        <ele>155.80000305176</ele>
        <time>2011-09-04T16:16:32.000Z</time>
      </trkpt>
      <trkpt lat="43.62608" lon="7.05796">
        <ele>155.60000610352</ele>
        <time>2011-09-04T16:16:40.000Z</time>
      </trkpt>
      <trkpt lat="43.6261" lon="7.05795">
        <ele>155.60000610352</ele>
        <time>2011-09-04T16:17:05.000Z</time>
      </trkpt>
      <trkpt lat="43.62611" lon="7.05796">
        <ele>155.80000305176</ele>
        <time>2011-09-04T16:17:10.000Z</time>
      </trkpt>
      <trkpt lat="43.62604" lon="7.05807">
        <ele>156</ele>
        <time>2011-09-04T16:17:20.000Z</time>
      </trkpt>
      <trkpt lat="43.62591" lon="7.05825">
        <ele>156</ele>
        <time>2011-09-04T16:17:26.000Z</time>
      </trkpt>
      <trkpt lat="43.62588" lon="7.05828">
        <ele>156</ele>
        <time>2011-09-04T16:17:27.000Z</time>
      </trkpt>
      <trkpt lat="43.62571" lon="7.05839">
        <ele>154.80000305176</ele>
        <time>2011-09-04T16:17:31.000Z</time>
      </trkpt>
      <trkpt lat="43.62566" lon="7.05842">
        <ele>154.60000610352</ele>
        <time>2011-09-04T16:17:32.000Z</time>
      </trkpt>
      <trkpt lat="43.62559" lon="7.0585">
        <ele>154.19999694824</ele>
        <time>2011-09-04T16:17:34.000Z</time>
      </trkpt>
      <trkpt lat="43.62548" lon="7.05863">
        <ele>153.60000610352</ele>
        <time>2011-09-04T16:17:37.000Z</time>
      </trkpt>
      <trkpt lat="43.62543" lon="7.05865">
        <ele>153.39999389648</ele>
        <time>2011-09-04T16:17:38.000Z</time>
      </trkpt>
      <trkpt lat="43.62524" lon="7.05877">
        <ele>152.39999389648</ele>
        <time>2011-09-04T16:17:42.000Z</time>
      </trkpt>
      <trkpt lat="43.6251" lon="7.05884">
        <ele>151.60000610352</ele>
        <time>2011-09-04T16:17:45.000Z</time>
      </trkpt>
      <trkpt lat="43.625" lon="7.05885">
        <ele>151</ele>
        <time>2011-09-04T16:17:47.000Z</time>
      </trkpt>
      <trkpt lat="43.62493" lon="7.0589">
        <ele>150.80000305176</ele>
        <time>2011-09-04T16:17:49.000Z</time>
      </trkpt>
      <trkpt lat="43.62483" lon="7.05897">
        <ele>150.39999389648</ele>
        <time>2011-09-04T16:17:52.000Z</time>
      </trkpt>
      <trkpt lat="43.62473" lon="7.05902">
        <ele>150</ele>
        <time>2011-09-04T16:17:55.000Z</time>
      </trkpt>
      <trkpt lat="43.62462" lon="7.059">
        <ele>149</ele>
        <time>2011-09-04T16:17:58.000Z</time>
      </trkpt>
      <trkpt lat="43.62446" lon="7.05899">
        <ele>147.80000305176</ele>
        <time>2011-09-04T16:18:02.000Z</time>
      </trkpt>
      <trkpt lat="43.62429" lon="7.05905">
        <ele>146.60000610352</ele>
        <time>2011-09-04T16:18:07.000Z</time>
      </trkpt>
      <trkpt lat="43.62414" lon="7.05912">
        <ele>145.80000305176</ele>
        <time>2011-09-04T16:18:12.000Z</time>
      </trkpt>
      <trkpt lat="43.62412" lon="7.05916">
        <ele>145.80000305176</ele>
        <time>2011-09-04T16:18:14.000Z</time>
      </trkpt>
      <trkpt lat="43.62412" lon="7.05923">
        <ele>145.80000305176</ele>
        <time>2011-09-04T16:18:16.000Z</time>
      </trkpt>
      <trkpt lat="43.62417" lon="7.05941">
        <ele>146.19999694824</ele>
        <time>2011-09-04T16:18:21.000Z</time>
      </trkpt>
      <trkpt lat="43.62418" lon="7.05945">
        <ele>146.39999389648</ele>
        <time>2011-09-04T16:18:22.000Z</time>
      </trkpt>
      <trkpt lat="43.62417" lon="7.05969">
        <ele>146.60000610352</ele>
        <time>2011-09-04T16:18:29.000Z</time>
      </trkpt>
      <trkpt lat="43.62411" lon="7.0598">
        <ele>146.60000610352</ele>
        <time>2011-09-04T16:18:33.000Z</time>
      </trkpt>
      <trkpt lat="43.62409" lon="7.05984">
        <ele>146.80000305176</ele>
        <time>2011-09-04T16:18:35.000Z</time>
      </trkpt>
      <trkpt lat="43.62411" lon="7.0599">
        <ele>146.80000305176</ele>
        <time>2011-09-04T16:18:38.000Z</time>
      </trkpt>
      <trkpt lat="43.62411" lon="7.05994">
        <ele>146.80000305176</ele>
        <time>2011-09-04T16:18:39.000Z</time>
      </trkpt>
      <trkpt lat="43.62407" lon="7.06005">
        <ele>146.80000305176</ele>
        <time>2011-09-04T16:18:42.000Z</time>
      </trkpt>
      <trkpt lat="43.62393" lon="7.06016">
        <ele>146.60000610352</ele>
        <time>2011-09-04T16:18:46.000Z</time>
      </trkpt>
      <trkpt lat="43.62382" lon="7.06033">
        <ele>145.80000305176</ele>
        <time>2011-09-04T16:18:50.000Z</time>
      </trkpt>
      <trkpt lat="43.62379" lon="7.06038">
        <ele>145.60000610352</ele>
        <time>2011-09-04T16:18:51.000Z</time>
      </trkpt>
      <trkpt lat="43.62375" lon="7.06051">
        <ele>145</ele>
        <time>2011-09-04T16:18:53.000Z</time>
      </trkpt>
      <trkpt lat="43.62372" lon="7.06058">
        <ele>144.60000610352</ele>
        <time>2011-09-04T16:18:54.000Z</time>
      </trkpt>
      <trkpt lat="43.62363" lon="7.06082">
        <ele>143.39999389648</ele>
        <time>2011-09-04T16:18:57.000Z</time>
      </trkpt>
      <trkpt lat="43.62357" lon="7.06098">
        <ele>142</ele>
        <time>2011-09-04T16:18:59.000Z</time>
      </trkpt>
      <trkpt lat="43.62348" lon="7.06126">
        <ele>139.60000610352</ele>
        <time>2011-09-04T16:19:02.000Z</time>
      </trkpt>
      <trkpt lat="43.62338" lon="7.06154">
        <ele>137</ele>
        <time>2011-09-04T16:19:05.000Z</time>
      </trkpt>
      <trkpt lat="43.62335" lon="7.06162">
        <ele>136.39999389648</ele>
        <time>2011-09-04T16:19:06.000Z</time>
      </trkpt>
      <trkpt lat="43.62324" lon="7.06182">
        <ele>133.19999694824</ele>
        <time>2011-09-04T16:19:09.000Z</time>
      </trkpt>
      <trkpt lat="43.62315" lon="7.06196">
        <ele>131.19999694824</ele>
        <time>2011-09-04T16:19:11.000Z</time>
      </trkpt>
      <trkpt lat="43.62309" lon="7.06203">
        <ele>130.19999694824</ele>
        <time>2011-09-04T16:19:12.000Z</time>
      </trkpt>
      <trkpt lat="43.62295" lon="7.0621">
        <ele>129</ele>
        <time>2011-09-04T16:19:14.000Z</time>
      </trkpt>
      <trkpt lat="43.62282" lon="7.06211">
        <ele>128.39999389648</ele>
        <time>2011-09-04T16:19:16.000Z</time>
      </trkpt>
      <trkpt lat="43.62276" lon="7.06214">
        <ele>127.80000305176</ele>
        <time>2011-09-04T16:19:17.000Z</time>
      </trkpt>
      <trkpt lat="43.62271" lon="7.06218">
        <ele>127.40000152588</ele>
        <time>2011-09-04T16:19:18.000Z</time>
      </trkpt>
      <trkpt lat="43.62255" lon="7.06238">
        <ele>125.59999847412</ele>
        <time>2011-09-04T16:19:21.000Z</time>
      </trkpt>
      <trkpt lat="43.62231" lon="7.06252">
        <ele>123.19999694824</ele>
        <time>2011-09-04T16:19:24.000Z</time>
      </trkpt>
      <trkpt lat="43.62223" lon="7.06258">
        <ele>122</ele>
        <time>2011-09-04T16:19:25.000Z</time>
      </trkpt>
      <trkpt lat="43.62205" lon="7.06271">
        <ele>119.80000305176</ele>
        <time>2011-09-04T16:19:27.000Z</time>
      </trkpt>
      <trkpt lat="43.62187" lon="7.06287">
        <ele>118</ele>
        <time>2011-09-04T16:19:29.000Z</time>
      </trkpt>
      <trkpt lat="43.62177" lon="7.06295">
        <ele>117.19999694824</ele>
        <time>2011-09-04T16:19:30.000Z</time>
      </trkpt>
      <trkpt lat="43.62158" lon="7.06312">
        <ele>115.80000305176</ele>
        <time>2011-09-04T16:19:32.000Z</time>
      </trkpt>
      <trkpt lat="43.62139" lon="7.06328">
        <ele>114</ele>
        <time>2011-09-04T16:19:34.000Z</time>
      </trkpt>
      <trkpt lat="43.62122" lon="7.06343">
        <ele>112.59999847412</ele>
        <time>2011-09-04T16:19:36.000Z</time>
      </trkpt>
      <trkpt lat="43.62109" lon="7.06353">
        <ele>111.40000152588</ele>
        <time>2011-09-04T16:19:38.000Z</time>
      </trkpt>
      <trkpt lat="43.62104" lon="7.06358">
        <ele>111</ele>
        <time>2011-09-04T16:19:39.000Z</time>
      </trkpt>
      <trkpt lat="43.62097" lon="7.0636">
        <ele>110.40000152588</ele>
        <time>2011-09-04T16:19:40.000Z</time>
      </trkpt>
      <trkpt lat="43.62083" lon="7.0636">
        <ele>109.19999694824</ele>
        <time>2011-09-04T16:19:42.000Z</time>
      </trkpt>
      <trkpt lat="43.62067" lon="7.06374">
        <ele>107.40000152588</ele>
        <time>2011-09-04T16:19:45.000Z</time>
      </trkpt>
      <trkpt lat="43.62066" lon="7.06402">
        <ele>106.59999847412</ele>
        <time>2011-09-04T16:19:48.000Z</time>
      </trkpt>
      <trkpt lat="43.6207" lon="7.06419">
        <ele>106.19999694824</ele>
        <time>2011-09-04T16:19:50.000Z</time>
      </trkpt>
      <trkpt lat="43.6207" lon="7.06428">
        <ele>105.59999847412</ele>
        <time>2011-09-04T16:19:51.000Z</time>
      </trkpt>
      <trkpt lat="43.6207" lon="7.06437">
        <ele>104.59999847412</ele>
        <time>2011-09-04T16:19:52.000Z</time>
      </trkpt>
      <trkpt lat="43.62065" lon="7.06463">
        <ele>102</ele>
        <time>2011-09-04T16:19:55.000Z</time>
      </trkpt>
      <trkpt lat="43.62059" lon="7.06479">
        <ele>100.40000152588</ele>
        <time>2011-09-04T16:19:57.000Z</time>
      </trkpt>
      <trkpt lat="43.62055" lon="7.06487">
        <ele>99.599998474121</ele>
        <time>2011-09-04T16:19:58.000Z</time>
      </trkpt>
      <trkpt lat="43.62043" lon="7.06509">
        <ele>97.599998474121</ele>
        <time>2011-09-04T16:20:01.000Z</time>
      </trkpt>
      <trkpt lat="43.62034" lon="7.06524">
        <ele>96.599998474121</ele>
        <time>2011-09-04T16:20:03.000Z</time>
      </trkpt>
      <trkpt lat="43.62019" lon="7.06548">
        <ele>95.400001525879</ele>
        <time>2011-09-04T16:20:06.000Z</time>
      </trkpt>
      <trkpt lat="43.62005" lon="7.0657">
        <ele>95</ele>
        <time>2011-09-04T16:20:09.000Z</time>
      </trkpt>
      <trkpt lat="43.62001" lon="7.06578">
        <ele>95</ele>
        <time>2011-09-04T16:20:10.000Z</time>
      </trkpt>
      <trkpt lat="43.61988" lon="7.06599">
        <ele>99.599998474121</ele>
        <time>2011-09-04T16:20:13.000Z</time>
      </trkpt>
      <trkpt lat="43.61976" lon="7.0662">
        <ele>103.59999847412</ele>
        <time>2011-09-04T16:20:17.000Z</time>
      </trkpt>
      <trkpt lat="43.61977" lon="7.06626">
        <ele>103.80000305176</ele>
        <time>2011-09-04T16:20:20.000Z</time>
      </trkpt>
      <trkpt lat="43.61978" lon="7.06624">
        <ele>103.59999847412</ele>
        <time>2011-09-04T16:20:21.000Z</time>
      </trkpt>
      <trkpt lat="43.6198" lon="7.06622">
        <ele>103.19999694824</ele>
        <time>2011-09-04T16:20:25.000Z</time>
      </trkpt>
      <trkpt lat="43.61982" lon="7.06622">
        <ele>102.59999847412</ele>
        <time>2011-09-04T16:20:30.000Z</time>
      </trkpt>
      <trkpt lat="43.61986" lon="7.06622">
        <ele>102</ele>
        <time>2011-09-04T16:20:37.000Z</time>
      </trkpt>
      <trkpt lat="43.61988" lon="7.06625">
        <ele>102</ele>
        <time>2011-09-04T16:20:43.000Z</time>
      </trkpt>
      <trkpt lat="43.61988" lon="7.06626">
        <ele>102</ele>
        <time>2011-09-04T16:20:49.000Z</time>
      </trkpt>
      <trkpt lat="43.61993" lon="7.06628">
        <ele>101.40000152588</ele>
        <time>2011-09-04T16:20:56.000Z</time>
      </trkpt>
      <trkpt lat="43.61995" lon="7.06632">
        <ele>101.59999847412</ele>
        <time>2011-09-04T16:21:03.000Z</time>
      </trkpt>
      <trkpt lat="43.61998" lon="7.06636">
        <ele>101.59999847412</ele>
        <time>2011-09-04T16:21:11.000Z</time>
      </trkpt>
      <trkpt lat="43.62004" lon="7.06646">
        <ele>102.19999694824</ele>
        <time>2011-09-04T16:21:19.000Z</time>
      </trkpt>
      <trkpt lat="43.62008" lon="7.06652">
        <ele>102.80000305176</ele>
        <time>2011-09-04T16:21:25.000Z</time>
      </trkpt>
      <trkpt lat="43.62009" lon="7.06652">
        <ele>102.59999847412</ele>
        <time>2011-09-04T16:21:27.000Z</time>
      </trkpt>
      <trkpt lat="43.62011" lon="7.06653">
        <ele>102.59999847412</ele>
        <time>2011-09-04T16:21:34.000Z</time>
      </trkpt>
      <trkpt lat="43.62015" lon="7.06652">
        <ele>102.40000152588</ele>
        <time>2011-09-04T16:21:41.000Z</time>
      </trkpt>
      <trkpt lat="43.62023" lon="7.06656">
        <ele>102.19999694824</ele>
        <time>2011-09-04T16:21:47.000Z</time>
      </trkpt>
      <trkpt lat="43.62029" lon="7.06662">
        <ele>102.59999847412</ele>
        <time>2011-09-04T16:21:53.000Z</time>
      </trkpt>
      <trkpt lat="43.62038" lon="7.06667">
        <ele>102.80000305176</ele>
        <time>2011-09-04T16:22:01.000Z</time>
      </trkpt>
      <trkpt lat="43.62049" lon="7.06668">
        <ele>102.19999694824</ele>
        <time>2011-09-04T16:22:06.000Z</time>
      </trkpt>
      <trkpt lat="43.62061" lon="7.06671">
        <ele>102</ele>
        <time>2011-09-04T16:22:12.000Z</time>
      </trkpt>
      <trkpt lat="43.6207" lon="7.06678">
        <ele>102.40000152588</ele>
        <time>2011-09-04T16:22:18.000Z</time>
      </trkpt>
      <trkpt lat="43.62083" lon="7.06688">
        <ele>103.59999847412</ele>
        <time>2011-09-04T16:22:26.000Z</time>
      </trkpt>
      <trkpt lat="43.62098" lon="7.06696">
        <ele>103.80000305176</ele>
        <time>2011-09-04T16:22:32.000Z</time>
      </trkpt>
      <trkpt lat="43.62117" lon="7.06704">
        <ele>103.59999847412</ele>
        <time>2011-09-04T16:22:36.000Z</time>
      </trkpt>
      <trkpt lat="43.62121" lon="7.06705">
        <ele>103.59999847412</ele>
        <time>2011-09-04T16:22:37.000Z</time>
      </trkpt>
      <trkpt lat="43.62141" lon="7.06712">
        <ele>102.80000305176</ele>
        <time>2011-09-04T16:22:41.000Z</time>
      </trkpt>
      <trkpt lat="43.62151" lon="7.06712">
        <ele>102.19999694824</ele>
        <time>2011-09-04T16:22:43.000Z</time>
      </trkpt>
      <trkpt lat="43.62155" lon="7.0671">
        <ele>101.59999847412</ele>
        <time>2011-09-04T16:22:44.000Z</time>
      </trkpt>
      <trkpt lat="43.62168" lon="7.06712">
        <ele>100.80000305176</ele>
        <time>2011-09-04T16:22:48.000Z</time>
      </trkpt>
      <trkpt lat="43.62175" lon="7.06715">
        <ele>100.80000305176</ele>
        <time>2011-09-04T16:22:50.000Z</time>
      </trkpt>
      <trkpt lat="43.62193" lon="7.06721">
        <ele>100.80000305176</ele>
        <time>2011-09-04T16:22:54.000Z</time>
      </trkpt>
      <trkpt lat="43.62211" lon="7.06733">
        <ele>101.40000152588</ele>
        <time>2011-09-04T16:22:59.000Z</time>
      </trkpt>
      <trkpt lat="43.62218" lon="7.06739">
        <ele>101.59999847412</ele>
        <time>2011-09-04T16:23:03.000Z</time>
      </trkpt>
      <trkpt lat="43.62222" lon="7.0675">
        <ele>102.59999847412</ele>
        <time>2011-09-04T16:23:09.000Z</time>
      </trkpt>
      <trkpt lat="43.62223" lon="7.06753">
        <ele>102.80000305176</ele>
        <time>2011-09-04T16:23:11.000Z</time>
      </trkpt>
      <trkpt lat="43.62226" lon="7.06756">
        <ele>103</ele>
        <time>2011-09-04T16:23:14.000Z</time>
      </trkpt>
      <trkpt lat="43.62234" lon="7.06759">
        <ele>102.80000305176</ele>
        <time>2011-09-04T16:23:19.000Z</time>
      </trkpt>
      <trkpt lat="43.62237" lon="7.06761">
        <ele>102.80000305176</ele>
        <time>2011-09-04T16:23:21.000Z</time>
      </trkpt>
      <trkpt lat="43.62241" lon="7.06771">
        <ele>103.59999847412</ele>
        <time>2011-09-04T16:23:27.000Z</time>
      </trkpt>
      <trkpt lat="43.62244" lon="7.06784">
        <ele>104.80000305176</ele>
        <time>2011-09-04T16:23:34.000Z</time>
      </trkpt>
      <trkpt lat="43.62253" lon="7.06796">
        <ele>105.80000305176</ele>
        <time>2011-09-04T16:23:42.000Z</time>
      </trkpt>
      <trkpt lat="43.62261" lon="7.06801">
        <ele>106.19999694824</ele>
        <time>2011-09-04T16:23:48.000Z</time>
      </trkpt>
      <trkpt lat="43.62274" lon="7.06803">
        <ele>106.19999694824</ele>
        <time>2011-09-04T16:23:56.000Z</time>
      </trkpt>
      <trkpt lat="43.62285" lon="7.0681">
        <ele>106.80000305176</ele>
        <time>2011-09-04T16:24:03.000Z</time>
      </trkpt>
      <trkpt lat="43.62291" lon="7.06826">
        <ele>108.59999847412</ele>
        <time>2011-09-04T16:24:11.000Z</time>
      </trkpt>
      <trkpt lat="43.62295" lon="7.06847">
        <ele>109.59999847412</ele>
        <time>2011-09-04T16:24:19.000Z</time>
      </trkpt>
      <trkpt lat="43.62297" lon="7.06872">
        <ele>110.19999694824</ele>
        <time>2011-09-04T16:24:26.000Z</time>
      </trkpt>
      <trkpt lat="43.6229" lon="7.0689">
        <ele>110.80000305176</ele>
        <time>2011-09-04T16:24:30.000Z</time>
      </trkpt>
      <trkpt lat="43.62288" lon="7.06901">
        <ele>111</ele>
        <time>2011-09-04T16:24:34.000Z</time>
      </trkpt>
      <trkpt lat="43.62288" lon="7.06907">
        <ele>111.19999694824</ele>
        <time>2011-09-04T16:24:37.000Z</time>
      </trkpt>
      <trkpt lat="43.62291" lon="7.06913">
        <ele>111.40000152588</ele>
        <time>2011-09-04T16:24:39.000Z</time>
      </trkpt>
      <trkpt lat="43.62296" lon="7.06933">
        <ele>111.59999847412</ele>
        <time>2011-09-04T16:24:45.000Z</time>
      </trkpt>
      <trkpt lat="43.62298" lon="7.06953">
        <ele>112</ele>
        <time>2011-09-04T16:24:51.000Z</time>
      </trkpt>
      <trkpt lat="43.62299" lon="7.06977">
        <ele>112.40000152588</ele>
        <time>2011-09-04T16:24:58.000Z</time>
      </trkpt>
      <trkpt lat="43.623" lon="7.07003">
        <ele>113</ele>
        <time>2011-09-04T16:25:06.000Z</time>
      </trkpt>
      <trkpt lat="43.623" lon="7.07026">
        <ele>113.40000152588</ele>
        <time>2011-09-04T16:25:13.000Z</time>
      </trkpt>
      <trkpt lat="43.62298" lon="7.07051">
        <ele>113.80000305176</ele>
        <time>2011-09-04T16:25:21.000Z</time>
      </trkpt>
      <trkpt lat="43.62296" lon="7.07077">
        <ele>114</ele>
        <time>2011-09-04T16:25:28.000Z</time>
      </trkpt>
      <trkpt lat="43.62293" lon="7.07096">
        <ele>113.80000305176</ele>
        <time>2011-09-04T16:25:34.000Z</time>
      </trkpt>
      <trkpt lat="43.6229" lon="7.07123">
        <ele>113.40000152588</ele>
        <time>2011-09-04T16:25:41.000Z</time>
      </trkpt>
      <trkpt lat="43.62286" lon="7.07148">
        <ele>113</ele>
        <time>2011-09-04T16:25:47.000Z</time>
      </trkpt>
      <trkpt lat="43.62281" lon="7.07171">
        <ele>112.19999694824</ele>
        <time>2011-09-04T16:25:52.000Z</time>
      </trkpt>
      <trkpt lat="43.62273" lon="7.07198">
        <ele>109.40000152588</ele>
        <time>2011-09-04T16:25:57.000Z</time>
      </trkpt>
      <trkpt lat="43.62271" lon="7.07205">
        <ele>108.59999847412</ele>
        <time>2011-09-04T16:25:58.000Z</time>
      </trkpt>
      <trkpt lat="43.62261" lon="7.07233">
        <ele>105.59999847412</ele>
        <time>2011-09-04T16:26:02.000Z</time>
      </trkpt>
      <trkpt lat="43.62252" lon="7.07256">
        <ele>103.19999694824</ele>
        <time>2011-09-04T16:26:05.000Z</time>
      </trkpt>
      <trkpt lat="43.62241" lon="7.0728">
        <ele>100.80000305176</ele>
        <time>2011-09-04T16:26:08.000Z</time>
      </trkpt>
      <trkpt lat="43.62229" lon="7.07302">
        <ele>98.599998474121</ele>
        <time>2011-09-04T16:26:11.000Z</time>
      </trkpt>
      <trkpt lat="43.62221" lon="7.07316">
        <ele>97.199996948242</ele>
        <time>2011-09-04T16:26:13.000Z</time>
      </trkpt>
      <trkpt lat="43.62208" lon="7.07336">
        <ele>95.599998474121</ele>
        <time>2011-09-04T16:26:16.000Z</time>
      </trkpt>
      <trkpt lat="43.62192" lon="7.07358">
        <ele>98.199996948242</ele>
        <time>2011-09-04T16:26:20.000Z</time>
      </trkpt>
      <trkpt lat="43.62188" lon="7.07363">
        <ele>98.599998474121</ele>
        <time>2011-09-04T16:26:21.000Z</time>
      </trkpt>
      <trkpt lat="43.62186" lon="7.07368">
        <ele>99.199996948242</ele>
        <time>2011-09-04T16:26:22.000Z</time>
      </trkpt>
      <trkpt lat="43.62186" lon="7.07378">
        <ele>100.19999694824</ele>
        <time>2011-09-04T16:26:24.000Z</time>
      </trkpt>
      <trkpt lat="43.62178" lon="7.07393">
        <ele>102</ele>
        <time>2011-09-04T16:26:28.000Z</time>
      </trkpt>
      <trkpt lat="43.62175" lon="7.07396">
        <ele>102.40000152588</ele>
        <time>2011-09-04T16:26:29.000Z</time>
      </trkpt>
      <trkpt lat="43.62159" lon="7.07412">
        <ele>104.19999694824</ele>
        <time>2011-09-04T16:26:34.000Z</time>
      </trkpt>
      <trkpt lat="43.62152" lon="7.07418">
        <ele>104.40000152588</ele>
        <time>2011-09-04T16:26:36.000Z</time>
      </trkpt>
      <trkpt lat="43.62136" lon="7.07432">
        <ele>104.80000305176</ele>
        <time>2011-09-04T16:26:41.000Z</time>
      </trkpt>
      <trkpt lat="43.62119" lon="7.07444">
        <ele>105</ele>
        <time>2011-09-04T16:26:46.000Z</time>
      </trkpt>
      <trkpt lat="43.62103" lon="7.07457">
        <ele>105</ele>
        <time>2011-09-04T16:26:51.000Z</time>
      </trkpt>
      <trkpt lat="43.621" lon="7.07459">
        <ele>105</ele>
        <time>2011-09-04T16:26:52.000Z</time>
      </trkpt>
      <trkpt lat="43.62082" lon="7.07468">
        <ele>104.59999847412</ele>
        <time>2011-09-04T16:26:57.000Z</time>
      </trkpt>
      <trkpt lat="43.62071" lon="7.07473">
        <ele>105</ele>
        <time>2011-09-04T16:27:00.000Z</time>
      </trkpt>
      <trkpt lat="43.62054" lon="7.07483">
        <ele>105.40000152588</ele>
        <time>2011-09-04T16:27:05.000Z</time>
      </trkpt>
      <trkpt lat="43.62046" lon="7.07485">
        <ele>105.59999847412</ele>
        <time>2011-09-04T16:27:07.000Z</time>
      </trkpt>
      <trkpt lat="43.62028" lon="7.07493">
        <ele>105.80000305176</ele>
        <time>2011-09-04T16:27:12.000Z</time>
      </trkpt>
      <trkpt lat="43.62009" lon="7.07497">
        <ele>105.80000305176</ele>
        <time>2011-09-04T16:27:17.000Z</time>
      </trkpt>
      <trkpt lat="43.6199" lon="7.075">
        <ele>106</ele>
        <time>2011-09-04T16:27:22.000Z</time>
      </trkpt>
      <trkpt lat="43.6197" lon="7.07503">
        <ele>106.59999847412</ele>
        <time>2011-09-04T16:27:27.000Z</time>
      </trkpt>
      <trkpt lat="43.61952" lon="7.07505">
        <ele>106.80000305176</ele>
        <time>2011-09-04T16:27:32.000Z</time>
      </trkpt>
      <trkpt lat="43.61937" lon="7.07505">
        <ele>107.19999694824</ele>
        <time>2011-09-04T16:27:36.000Z</time>
      </trkpt>
      <trkpt lat="43.61916" lon="7.07504">
        <ele>107.19999694824</ele>
        <time>2011-09-04T16:27:42.000Z</time>
      </trkpt>
      <trkpt lat="43.61902" lon="7.07506">
        <ele>108.40000152588</ele>
        <time>2011-09-04T16:27:48.000Z</time>
      </trkpt>
      <trkpt lat="43.61903" lon="7.07521">
        <ele>109.59999847412</ele>
        <time>2011-09-04T16:27:52.000Z</time>
      </trkpt>
      <trkpt lat="43.61901" lon="7.07531">
        <ele>110.59999847412</ele>
        <time>2011-09-04T16:27:55.000Z</time>
      </trkpt>
      <trkpt lat="43.619" lon="7.07539">
        <ele>111.40000152588</ele>
        <time>2011-09-04T16:27:58.000Z</time>
      </trkpt>
      <trkpt lat="43.61898" lon="7.0756">
        <ele>113.40000152588</ele>
        <time>2011-09-04T16:28:05.000Z</time>
      </trkpt>
      <trkpt lat="43.61894" lon="7.07577">
        <ele>115.19999694824</ele>
        <time>2011-09-04T16:28:11.000Z</time>
      </trkpt>
      <trkpt lat="43.6189" lon="7.07597">
        <ele>117</ele>
        <time>2011-09-04T16:28:18.000Z</time>
      </trkpt>
      <trkpt lat="43.61883" lon="7.07609">
        <ele>118.40000152588</ele>
        <time>2011-09-04T16:28:25.000Z</time>
      </trkpt>
      <trkpt lat="43.61871" lon="7.07606">
        <ele>118.59999847412</ele>
        <time>2011-09-04T16:28:31.000Z</time>
      </trkpt>
      <trkpt lat="43.61853" lon="7.07599">
        <ele>118.80000305176</ele>
        <time>2011-09-04T16:28:37.000Z</time>
      </trkpt>
      <trkpt lat="43.6185" lon="7.07599">
        <ele>118.80000305176</ele>
        <time>2011-09-04T16:28:38.000Z</time>
      </trkpt>
      <trkpt lat="43.61832" lon="7.07591">
        <ele>118.80000305176</ele>
        <time>2011-09-04T16:28:44.000Z</time>
      </trkpt>
      <trkpt lat="43.61828" lon="7.07589">
        <ele>118.80000305176</ele>
        <time>2011-09-04T16:28:45.000Z</time>
      </trkpt>
      <trkpt lat="43.61808" lon="7.0758">
        <ele>118.80000305176</ele>
        <time>2011-09-04T16:28:51.000Z</time>
      </trkpt>
      <trkpt lat="43.61805" lon="7.07577">
        <ele>118.80000305176</ele>
        <time>2011-09-04T16:28:52.000Z</time>
      </trkpt>
      <trkpt lat="43.61788" lon="7.07571">
        <ele>119.19999694824</ele>
        <time>2011-09-04T16:28:57.000Z</time>
      </trkpt>
      <trkpt lat="43.61768" lon="7.0756">
        <ele>119.40000152588</ele>
        <time>2011-09-04T16:29:03.000Z</time>
      </trkpt>
      <trkpt lat="43.61764" lon="7.07559">
        <ele>119.40000152588</ele>
        <time>2011-09-04T16:29:04.000Z</time>
      </trkpt>
      <trkpt lat="43.61759" lon="7.0756">
        <ele>119.80000305176</ele>
        <time>2011-09-04T16:29:06.000Z</time>
      </trkpt>
      <trkpt lat="43.61755" lon="7.07566">
        <ele>120.40000152588</ele>
        <time>2011-09-04T16:29:08.000Z</time>
      </trkpt>
      <trkpt lat="43.6175" lon="7.07575">
        <ele>121.19999694824</ele>
        <time>2011-09-04T16:29:10.000Z</time>
      </trkpt>
      <trkpt lat="43.6174" lon="7.07588">
        <ele>121.80000305176</ele>
        <time>2011-09-04T16:29:14.000Z</time>
      </trkpt>
      <trkpt lat="43.61726" lon="7.07598">
        <ele>121.80000305176</ele>
        <time>2011-09-04T16:29:20.000Z</time>
      </trkpt>
      <trkpt lat="43.6171" lon="7.0761">
        <ele>121.80000305176</ele>
        <time>2011-09-04T16:29:28.000Z</time>
      </trkpt>
      <trkpt lat="43.617" lon="7.07625">
        <ele>122</ele>
        <time>2011-09-04T16:29:35.000Z</time>
      </trkpt>
      <trkpt lat="43.61695" lon="7.07644">
        <ele>122.59999847412</ele>
        <time>2011-09-04T16:29:42.000Z</time>
      </trkpt>
      <trkpt lat="43.61692" lon="7.07664">
        <ele>123.40000152588</ele>
        <time>2011-09-04T16:29:49.000Z</time>
      </trkpt>
      <trkpt lat="43.61693" lon="7.07674">
        <ele>123.80000305176</ele>
        <time>2011-09-04T16:29:53.000Z</time>
      </trkpt>
      <trkpt lat="43.61697" lon="7.07673">
        <ele>124</ele>
        <time>2011-09-04T16:29:55.000Z</time>
      </trkpt>
      <trkpt lat="43.61704" lon="7.07664">
        <ele>124</ele>
        <time>2011-09-04T16:29:58.000Z</time>
      </trkpt>
      <trkpt lat="43.61707" lon="7.07661">
        <ele>124</ele>
        <time>2011-09-04T16:29:59.000Z</time>
      </trkpt>
      <trkpt lat="43.61722" lon="7.07647">
        <ele>124.19999694824</ele>
        <time>2011-09-04T16:30:04.000Z</time>
      </trkpt>
      <trkpt lat="43.61732" lon="7.07641">
        <ele>124.40000152588</ele>
        <time>2011-09-04T16:30:07.000Z</time>
      </trkpt>
      <trkpt lat="43.6175" lon="7.07639">
        <ele>125.19999694824</ele>
        <time>2011-09-04T16:30:12.000Z</time>
      </trkpt>
      <trkpt lat="43.61754" lon="7.0764">
        <ele>125.19999694824</ele>
        <time>2011-09-04T16:30:13.000Z</time>
      </trkpt>
      <trkpt lat="43.61774" lon="7.07646">
        <ele>125.40000152588</ele>
        <time>2011-09-04T16:30:19.000Z</time>
      </trkpt>
      <trkpt lat="43.6178" lon="7.07649">
        <ele>125.59999847412</ele>
        <time>2011-09-04T16:30:21.000Z</time>
      </trkpt>
      <trkpt lat="43.61798" lon="7.07656">
        <ele>126</ele>
        <time>2011-09-04T16:30:27.000Z</time>
      </trkpt>
      <trkpt lat="43.61804" lon="7.07659">
        <ele>126.19999694824</ele>
        <time>2011-09-04T16:30:29.000Z</time>
      </trkpt>
      <trkpt lat="43.61824" lon="7.07667">
        <ele>126.80000305176</ele>
        <time>2011-09-04T16:30:35.000Z</time>
      </trkpt>
      <trkpt lat="43.6183" lon="7.0767">
        <ele>127.40000152588</ele>
        <time>2011-09-04T16:30:37.000Z</time>
      </trkpt>
      <trkpt lat="43.6185" lon="7.07678">
        <ele>127.19999694824</ele>
        <time>2011-09-04T16:30:43.000Z</time>
      </trkpt>
      <trkpt lat="43.61857" lon="7.07681">
        <ele>127.19999694824</ele>
        <time>2011-09-04T16:30:45.000Z</time>
      </trkpt>
      <trkpt lat="43.61874" lon="7.07691">
        <ele>126.80000305176</ele>
        <time>2011-09-04T16:30:51.000Z</time>
      </trkpt>
      <trkpt lat="43.61877" lon="7.07694">
        <ele>126.80000305176</ele>
        <time>2011-09-04T16:30:52.000Z</time>
      </trkpt>
      <trkpt lat="43.6189" lon="7.07712">
        <ele>127.40000152588</ele>
        <time>2011-09-04T16:30:59.000Z</time>
      </trkpt>
      <trkpt lat="43.61892" lon="7.07714">
        <ele>127.40000152588</ele>
        <time>2011-09-04T16:31:00.000Z</time>
      </trkpt>
      <trkpt lat="43.61902" lon="7.07731">
        <ele>128</ele>
        <time>2011-09-04T16:31:07.000Z</time>
      </trkpt>
      <trkpt lat="43.61913" lon="7.07745">
        <ele>128</ele>
        <time>2011-09-04T16:31:14.000Z</time>
      </trkpt>
      <trkpt lat="43.61921" lon="7.07759">
        <ele>129.19999694824</ele>
        <time>2011-09-04T16:31:20.000Z</time>
      </trkpt>
      <trkpt lat="43.6193" lon="7.07772">
        <ele>131</ele>
        <time>2011-09-04T16:31:27.000Z</time>
      </trkpt>
      <trkpt lat="43.61938" lon="7.07785">
        <ele>132.60000610352</ele>
        <time>2011-09-04T16:31:33.000Z</time>
      </trkpt>
      <trkpt lat="43.61949" lon="7.07802">
        <ele>134.60000610352</ele>
        <time>2011-09-04T16:31:42.000Z</time>
      </trkpt>
      <trkpt lat="43.6196" lon="7.07821">
        <ele>136.60000610352</ele>
        <time>2011-09-04T16:31:51.000Z</time>
      </trkpt>
      <trkpt lat="43.61971" lon="7.07838">
        <ele>138</ele>
        <time>2011-09-04T16:32:00.000Z</time>
      </trkpt>
      <trkpt lat="43.61982" lon="7.07858">
        <ele>139.39999389648</ele>
        <time>2011-09-04T16:32:10.000Z</time>
      </trkpt>
      <trkpt lat="43.61988" lon="7.07872">
        <ele>140.60000610352</ele>
        <time>2011-09-04T16:32:17.000Z</time>
      </trkpt>
      <trkpt lat="43.61994" lon="7.07889">
        <ele>142.19999694824</ele>
        <time>2011-09-04T16:32:25.000Z</time>
      </trkpt>
      <trkpt lat="43.61996" lon="7.07907">
        <ele>144</ele>
        <time>2011-09-04T16:32:32.000Z</time>
      </trkpt>
      <trkpt lat="43.61996" lon="7.0793">
        <ele>145.19999694824</ele>
        <time>2011-09-04T16:32:41.000Z</time>
      </trkpt>
      <trkpt lat="43.61992" lon="7.07951">
        <ele>145.39999389648</ele>
        <time>2011-09-04T16:32:49.000Z</time>
      </trkpt>
      <trkpt lat="43.61988" lon="7.07971">
        <ele>145.60000610352</ele>
        <time>2011-09-04T16:32:56.000Z</time>
      </trkpt>
      <trkpt lat="43.61984" lon="7.0799">
        <ele>145.60000610352</ele>
        <time>2011-09-04T16:33:02.000Z</time>
      </trkpt>
      <trkpt lat="43.61978" lon="7.08013">
        <ele>144.80000305176</ele>
        <time>2011-09-04T16:33:08.000Z</time>
      </trkpt>
      <trkpt lat="43.61973" lon="7.08029">
        <ele>143.60000610352</ele>
        <time>2011-09-04T16:33:13.000Z</time>
      </trkpt>
      <trkpt lat="43.61978" lon="7.08037">
        <ele>143.39999389648</ele>
        <time>2011-09-04T16:33:18.000Z</time>
      </trkpt>
      <trkpt lat="43.6198" lon="7.08036">
        <ele>143.60000610352</ele>
        <time>2011-09-04T16:33:20.000Z</time>
      </trkpt>
      <trkpt lat="43.61987" lon="7.08038">
        <ele>143.80000305176</ele>
        <time>2011-09-04T16:33:23.000Z</time>
      </trkpt>
      <trkpt lat="43.62002" lon="7.08046">
        <ele>144.19999694824</ele>
        <time>2011-09-04T16:33:29.000Z</time>
      </trkpt>
      <trkpt lat="43.62012" lon="7.08062">
        <ele>143.19999694824</ele>
        <time>2011-09-04T16:33:33.000Z</time>
      </trkpt>
      <trkpt lat="43.62018" lon="7.08089">
        <ele>141.80000305176</ele>
        <time>2011-09-04T16:33:38.000Z</time>
      </trkpt>
      <trkpt lat="43.62017" lon="7.08112">
        <ele>139</ele>
        <time>2011-09-04T16:33:42.000Z</time>
      </trkpt>
      <trkpt lat="43.62016" lon="7.08116">
        <ele>138.39999389648</ele>
        <time>2011-09-04T16:33:43.000Z</time>
      </trkpt>
      <trkpt lat="43.62018" lon="7.08132">
        <ele>136.39999389648</ele>
        <time>2011-09-04T16:33:47.000Z</time>
      </trkpt>
      <trkpt lat="43.62019" lon="7.08136">
        <ele>136</ele>
        <time>2011-09-04T16:33:50.000Z</time>
      </trkpt>
      <trkpt lat="43.62018" lon="7.08135">
        <ele>136</ele>
        <time>2011-09-04T16:33:51.000Z</time>
      </trkpt>
      <trkpt lat="43.6202" lon="7.08138">
        <ele>135.80000305176</ele>
        <time>2011-09-04T16:34:00.000Z</time>
      </trkpt>
      <trkpt lat="43.62019" lon="7.08131">
        <ele>136.60000610352</ele>
        <time>2011-09-04T16:34:07.000Z</time>
      </trkpt>
      <trkpt lat="43.62023" lon="7.08132">
        <ele>136.60000610352</ele>
        <time>2011-09-04T16:34:14.000Z</time>
      </trkpt>
      <trkpt lat="43.62024" lon="7.08136">
        <ele>136.19999694824</ele>
        <time>2011-09-04T16:34:18.000Z</time>
      </trkpt>
      <trkpt lat="43.62021" lon="7.08145">
        <ele>135</ele>
        <time>2011-09-04T16:34:22.000Z</time>
      </trkpt>
      <trkpt lat="43.6202" lon="7.08148">
        <ele>134.60000610352</ele>
        <time>2011-09-04T16:34:23.000Z</time>
      </trkpt>
      <trkpt lat="43.62016" lon="7.08162">
        <ele>132.60000610352</ele>
        <time>2011-09-04T16:34:26.000Z</time>
      </trkpt>
      <trkpt lat="43.62015" lon="7.08168">
        <ele>132</ele>
        <time>2011-09-04T16:34:27.000Z</time>
      </trkpt>
      <trkpt lat="43.6201" lon="7.08193">
        <ele>130.60000610352</ele>
        <time>2011-09-04T16:34:33.000Z</time>
      </trkpt>
      <trkpt lat="43.61999" lon="7.08218">
        <ele>129</ele>
        <time>2011-09-04T16:34:40.000Z</time>
      </trkpt>
      <trkpt lat="43.61991" lon="7.08242">
        <ele>127.40000152588</ele>
        <time>2011-09-04T16:34:45.000Z</time>
      </trkpt>
      <trkpt lat="43.61991" lon="7.08249">
        <ele>127.19999694824</ele>
        <time>2011-09-04T16:34:46.000Z</time>
      </trkpt>
      <trkpt lat="43.6199" lon="7.08279">
        <ele>126.40000152588</ele>
        <time>2011-09-04T16:34:50.000Z</time>
      </trkpt>
      <trkpt lat="43.6199" lon="7.08285">
        <ele>126.40000152588</ele>
        <time>2011-09-04T16:34:51.000Z</time>
      </trkpt>
      <trkpt lat="43.61989" lon="7.08298">
        <ele>126</ele>
        <time>2011-09-04T16:34:53.000Z</time>
      </trkpt>
      <trkpt lat="43.61988" lon="7.0831">
        <ele>125.59999847412</ele>
        <time>2011-09-04T16:34:55.000Z</time>
      </trkpt>
      <trkpt lat="43.61987" lon="7.08316">
        <ele>125.40000152588</ele>
        <time>2011-09-04T16:34:56.000Z</time>
      </trkpt>
      <trkpt lat="43.61985" lon="7.08324">
        <ele>125</ele>
        <time>2011-09-04T16:34:58.000Z</time>
      </trkpt>
      <trkpt lat="43.61979" lon="7.08331">
        <ele>124</ele>
        <time>2011-09-04T16:35:00.000Z</time>
      </trkpt>
      <trkpt lat="43.61965" lon="7.08351">
        <ele>122.40000152588</ele>
        <time>2011-09-04T16:35:05.000Z</time>
      </trkpt>
      <trkpt lat="43.61966" lon="7.08367">
        <ele>122.80000305176</ele>
        <time>2011-09-04T16:35:08.000Z</time>
      </trkpt>
      <trkpt lat="43.61966" lon="7.08372">
        <ele>123</ele>
        <time>2011-09-04T16:35:09.000Z</time>
      </trkpt>
      <trkpt lat="43.61963" lon="7.08386">
        <ele>122.80000305176</ele>
        <time>2011-09-04T16:35:13.000Z</time>
      </trkpt>
      <trkpt lat="43.6196" lon="7.08404">
        <ele>122.80000305176</ele>
        <time>2011-09-04T16:35:18.000Z</time>
      </trkpt>
      <trkpt lat="43.6196" lon="7.08431">
        <ele>122.80000305176</ele>
        <time>2011-09-04T16:35:25.000Z</time>
      </trkpt>
      <trkpt lat="43.6196" lon="7.08435">
        <ele>122.59999847412</ele>
        <time>2011-09-04T16:35:26.000Z</time>
      </trkpt>
      <trkpt lat="43.61958" lon="7.08457">
        <ele>122</ele>
        <time>2011-09-04T16:35:33.000Z</time>
      </trkpt>
      <trkpt lat="43.61959" lon="7.08482">
        <ele>121.40000152588</ele>
        <time>2011-09-04T16:35:39.000Z</time>
      </trkpt>
      <trkpt lat="43.61957" lon="7.08506">
        <ele>120.59999847412</ele>
        <time>2011-09-04T16:35:44.000Z</time>
      </trkpt>
      <trkpt lat="43.61957" lon="7.08517">
        <ele>120</ele>
        <time>2011-09-04T16:35:46.000Z</time>
      </trkpt>
      <trkpt lat="43.61957" lon="7.08543">
        <ele>119</ele>
        <time>2011-09-04T16:35:51.000Z</time>
      </trkpt>
      <trkpt lat="43.61958" lon="7.08554">
        <ele>118.59999847412</ele>
        <time>2011-09-04T16:35:53.000Z</time>
      </trkpt>
      <trkpt lat="43.61958" lon="7.08581">
        <ele>117.40000152588</ele>
        <time>2011-09-04T16:35:58.000Z</time>
      </trkpt>
      <trkpt lat="43.61958" lon="7.08593">
        <ele>117.59999847412</ele>
        <time>2011-09-04T16:36:00.000Z</time>
      </trkpt>
      <trkpt lat="43.61957" lon="7.08622">
        <ele>117.80000305176</ele>
        <time>2011-09-04T16:36:05.000Z</time>
      </trkpt>
      <trkpt lat="43.61956" lon="7.08639">
        <ele>118</ele>
        <time>2011-09-04T16:36:08.000Z</time>
      </trkpt>
      <trkpt lat="43.61956" lon="7.08664">
        <ele>118.19999694824</ele>
        <time>2011-09-04T16:36:13.000Z</time>
      </trkpt>
      <trkpt lat="43.61957" lon="7.08677">
        <ele>118.59999847412</ele>
        <time>2011-09-04T16:36:16.000Z</time>
      </trkpt>
      <trkpt lat="43.61957" lon="7.08687">
        <ele>118.80000305176</ele>
        <time>2011-09-04T16:36:20.000Z</time>
      </trkpt>
      <trkpt lat="43.61955" lon="7.08703">
        <ele>119.19999694824</ele>
        <time>2011-09-04T16:36:25.000Z</time>
      </trkpt>
      <trkpt lat="43.61956" lon="7.08722">
        <ele>119.59999847412</ele>
        <time>2011-09-04T16:36:30.000Z</time>
      </trkpt>
      <trkpt lat="43.61956" lon="7.08747">
        <ele>120.40000152588</ele>
        <time>2011-09-04T16:36:37.000Z</time>
      </trkpt>
      <trkpt lat="43.61955" lon="7.08751">
        <ele>120.40000152588</ele>
        <time>2011-09-04T16:36:38.000Z</time>
      </trkpt>
      <trkpt lat="43.61955" lon="7.08772">
        <ele>120.40000152588</ele>
        <time>2011-09-04T16:36:45.000Z</time>
      </trkpt>
      <trkpt lat="43.61954" lon="7.08784">
        <ele>120.59999847412</ele>
        <time>2011-09-04T16:36:50.000Z</time>
      </trkpt>
      <trkpt lat="43.61952" lon="7.08805">
        <ele>120.80000305176</ele>
        <time>2011-09-04T16:36:57.000Z</time>
      </trkpt>
      <trkpt lat="43.61951" lon="7.08831">
        <ele>120.80000305176</ele>
        <time>2011-09-04T16:37:06.000Z</time>
      </trkpt>
      <trkpt lat="43.6195" lon="7.08852">
        <ele>120.40000152588</ele>
        <time>2011-09-04T16:37:12.000Z</time>
      </trkpt>
      <trkpt lat="43.61949" lon="7.08878">
        <ele>119.80000305176</ele>
        <time>2011-09-04T16:37:19.000Z</time>
      </trkpt>
      <trkpt lat="43.61949" lon="7.08883">
        <ele>119.80000305176</ele>
        <time>2011-09-04T16:37:20.000Z</time>
      </trkpt>
      <trkpt lat="43.61951" lon="7.08911">
        <ele>119</ele>
        <time>2011-09-04T16:37:26.000Z</time>
      </trkpt>
      <trkpt lat="43.61953" lon="7.08938">
        <ele>117.59999847412</ele>
        <time>2011-09-04T16:37:31.000Z</time>
      </trkpt>
      <trkpt lat="43.61954" lon="7.08944">
        <ele>117.19999694824</ele>
        <time>2011-09-04T16:37:32.000Z</time>
      </trkpt>
      <trkpt lat="43.61958" lon="7.08972">
        <ele>115.59999847412</ele>
        <time>2011-09-04T16:37:37.000Z</time>
      </trkpt>
      <trkpt lat="43.61958" lon="7.08977">
        <ele>115.19999694824</ele>
        <time>2011-09-04T16:37:38.000Z</time>
      </trkpt>
      <trkpt lat="43.61961" lon="7.08997">
        <ele>114.19999694824</ele>
        <time>2011-09-04T16:37:43.000Z</time>
      </trkpt>
      <trkpt lat="43.6197" lon="7.09021">
        <ele>113.19999694824</ele>
        <time>2011-09-04T16:37:49.000Z</time>
      </trkpt>
      <trkpt lat="43.61982" lon="7.09038">
        <ele>112.80000305176</ele>
        <time>2011-09-04T16:37:53.000Z</time>
      </trkpt>
      <trkpt lat="43.61993" lon="7.09055">
        <ele>112.59999847412</ele>
        <time>2011-09-04T16:37:59.000Z</time>
      </trkpt>
      <trkpt lat="43.62" lon="7.09069">
        <ele>112.40000152588</ele>
        <time>2011-09-04T16:38:04.000Z</time>
      </trkpt>
      <trkpt lat="43.6201" lon="7.0909">
        <ele>110.80000305176</ele>
        <time>2011-09-04T16:38:11.000Z</time>
      </trkpt>
      <trkpt lat="43.62021" lon="7.09112">
        <ele>109</ele>
        <time>2011-09-04T16:38:16.000Z</time>
      </trkpt>
      <trkpt lat="43.62032" lon="7.09135">
        <ele>107.19999694824</ele>
        <time>2011-09-04T16:38:21.000Z</time>
      </trkpt>
      <trkpt lat="43.62036" lon="7.09143">
        <ele>106.40000152588</ele>
        <time>2011-09-04T16:38:23.000Z</time>
      </trkpt>
      <trkpt lat="43.62048" lon="7.09164">
        <ele>104.59999847412</ele>
        <time>2011-09-04T16:38:28.000Z</time>
      </trkpt>
      <trkpt lat="43.62057" lon="7.09181">
        <ele>102.80000305176</ele>
        <time>2011-09-04T16:38:32.000Z</time>
      </trkpt>
      <trkpt lat="43.62067" lon="7.09205">
        <ele>100.40000152588</ele>
        <time>2011-09-04T16:38:38.000Z</time>
      </trkpt>
      <trkpt lat="43.6207" lon="7.09209">
        <ele>99.800003051758</ele>
        <time>2011-09-04T16:38:39.000Z</time>
      </trkpt>
      <trkpt lat="43.62077" lon="7.09235">
        <ele>97.400001525879</ele>
        <time>2011-09-04T16:38:44.000Z</time>
      </trkpt>
      <trkpt lat="43.62086" lon="7.09261">
        <ele>94.800003051758</ele>
        <time>2011-09-04T16:38:49.000Z</time>
      </trkpt>
      <trkpt lat="43.62087" lon="7.09266">
        <ele>94.199996948242</ele>
        <time>2011-09-04T16:38:50.000Z</time>
      </trkpt>
      <trkpt lat="43.62092" lon="7.09292">
        <ele>91.599998474121</ele>
        <time>2011-09-04T16:38:55.000Z</time>
      </trkpt>
      <trkpt lat="43.62093" lon="7.09297">
        <ele>91</ele>
        <time>2011-09-04T16:38:56.000Z</time>
      </trkpt>
      <trkpt lat="43.62098" lon="7.09319">
        <ele>88.800003051758</ele>
        <time>2011-09-04T16:39:01.000Z</time>
      </trkpt>
      <trkpt lat="43.62098" lon="7.09339">
        <ele>87</ele>
        <time>2011-09-04T16:39:05.000Z</time>
      </trkpt>
      <trkpt lat="43.621" lon="7.09367">
        <ele>83.599998474121</ele>
        <time>2011-09-04T16:39:10.000Z</time>
      </trkpt>
      <trkpt lat="43.621" lon="7.09373">
        <ele>83</ele>
        <time>2011-09-04T16:39:11.000Z</time>
      </trkpt>
      <trkpt lat="43.62099" lon="7.09398">
        <ele>80.199996948242</ele>
        <time>2011-09-04T16:39:15.000Z</time>
      </trkpt>
      <trkpt lat="43.62099" lon="7.09405">
        <ele>79.599998474121</ele>
        <time>2011-09-04T16:39:16.000Z</time>
      </trkpt>
      <trkpt lat="43.621" lon="7.09415">
        <ele>78.199996948242</ele>
        <time>2011-09-04T16:39:18.000Z</time>
      </trkpt>
      <trkpt lat="43.621" lon="7.09427">
        <ele>77</ele>
        <time>2011-09-04T16:39:20.000Z</time>
      </trkpt>
      <trkpt lat="43.62102" lon="7.09438">
        <ele>75.599998474121</ele>
        <time>2011-09-04T16:39:22.000Z</time>
      </trkpt>
      <trkpt lat="43.62102" lon="7.09453">
        <ele>73.800003051758</ele>
        <time>2011-09-04T16:39:25.000Z</time>
      </trkpt>
      <trkpt lat="43.62103" lon="7.09465">
        <ele>72.400001525879</ele>
        <time>2011-09-04T16:39:27.000Z</time>
      </trkpt>
      <trkpt lat="43.62106" lon="7.09492">
        <ele>69.199996948242</ele>
        <time>2011-09-04T16:39:32.000Z</time>
      </trkpt>
      <trkpt lat="43.62107" lon="7.09497">
        <ele>68.599998474121</ele>
        <time>2011-09-04T16:39:33.000Z</time>
      </trkpt>
      <trkpt lat="43.62107" lon="7.09517">
        <ele>67.400001525879</ele>
        <time>2011-09-04T16:39:38.000Z</time>
      </trkpt>
      <trkpt lat="43.62103" lon="7.09531">
        <ele>66.800003051758</ele>
        <time>2011-09-04T16:39:43.000Z</time>
      </trkpt>
      <trkpt lat="43.62104" lon="7.09531">
        <ele>66.800003051758</ele>
        <time>2011-09-04T16:39:48.000Z</time>
      </trkpt>
      <trkpt lat="43.62102" lon="7.09543">
        <ele>66.199996948242</ele>
        <time>2011-09-04T16:39:55.000Z</time>
      </trkpt>
      <trkpt lat="43.62095" lon="7.09567">
        <ele>65.199996948242</ele>
        <time>2011-09-04T16:40:00.000Z</time>
      </trkpt>
      <trkpt lat="43.62086" lon="7.09594">
        <ele>64.400001525879</ele>
        <time>2011-09-04T16:40:06.000Z</time>
      </trkpt>
      <trkpt lat="43.62076" lon="7.09616">
        <ele>62.799999237061</ele>
        <time>2011-09-04T16:40:11.000Z</time>
      </trkpt>
      <trkpt lat="43.62071" lon="7.09624">
        <ele>61.599998474121</ele>
        <time>2011-09-04T16:40:13.000Z</time>
      </trkpt>
      <trkpt lat="43.62058" lon="7.09643">
        <ele>58.400001525879</ele>
        <time>2011-09-04T16:40:18.000Z</time>
      </trkpt>
      <trkpt lat="43.62055" lon="7.09645">
        <ele>57.799999237061</ele>
        <time>2011-09-04T16:40:19.000Z</time>
      </trkpt>
      <trkpt lat="43.62046" lon="7.09667">
        <ele>54.799999237061</ele>
        <time>2011-09-04T16:40:23.000Z</time>
      </trkpt>
      <trkpt lat="43.62045" lon="7.09674">
        <ele>54.200000762939</ele>
        <time>2011-09-04T16:40:24.000Z</time>
      </trkpt>
      <trkpt lat="43.6205" lon="7.09695">
        <ele>53.799999237061</ele>
        <time>2011-09-04T16:40:27.000Z</time>
      </trkpt>
      <trkpt lat="43.62051" lon="7.09702">
        <ele>53.400001525879</ele>
        <time>2011-09-04T16:40:28.000Z</time>
      </trkpt>
      <trkpt lat="43.62054" lon="7.09731">
        <ele>52</ele>
        <time>2011-09-04T16:40:32.000Z</time>
      </trkpt>
      <trkpt lat="43.62056" lon="7.09746">
        <ele>51.400001525879</ele>
        <time>2011-09-04T16:40:34.000Z</time>
      </trkpt>
      <trkpt lat="43.6206" lon="7.09759">
        <ele>50.400001525879</ele>
        <time>2011-09-04T16:40:36.000Z</time>
      </trkpt>
      <trkpt lat="43.62072" lon="7.09773">
        <ele>50.599998474121</ele>
        <time>2011-09-04T16:40:39.000Z</time>
      </trkpt>
      <trkpt lat="43.62094" lon="7.09778">
        <ele>51.799999237061</ele>
        <time>2011-09-04T16:40:43.000Z</time>
      </trkpt>
      <trkpt lat="43.62104" lon="7.09776">
        <ele>51.400001525879</ele>
        <time>2011-09-04T16:40:45.000Z</time>
      </trkpt>
      <trkpt lat="43.6212" lon="7.09772">
        <ele>51</ele>
        <time>2011-09-04T16:40:48.000Z</time>
      </trkpt>
      <trkpt lat="43.62132" lon="7.0977">
        <ele>50.599998474121</ele>
        <time>2011-09-04T16:40:50.000Z</time>
      </trkpt>
      <trkpt lat="43.62145" lon="7.09772">
        <ele>49.599998474121</ele>
        <time>2011-09-04T16:40:52.000Z</time>
      </trkpt>
      <trkpt lat="43.62148" lon="7.09775">
        <ele>49.200000762939</ele>
        <time>2011-09-04T16:40:53.000Z</time>
      </trkpt>
      <trkpt lat="43.6215" lon="7.0979">
        <ele>47.599998474121</ele>
        <time>2011-09-04T16:40:56.000Z</time>
      </trkpt>
      <trkpt lat="43.62136" lon="7.09798">
        <ele>47.400001525879</ele>
        <time>2011-09-04T16:40:59.000Z</time>
      </trkpt>
      <trkpt lat="43.62118" lon="7.09801">
        <ele>47.400001525879</ele>
        <time>2011-09-04T16:41:02.000Z</time>
      </trkpt>
      <trkpt lat="43.62112" lon="7.09803">
        <ele>47.400001525879</ele>
        <time>2011-09-04T16:41:03.000Z</time>
      </trkpt>
      <trkpt lat="43.62101" lon="7.09825">
        <ele>44.400001525879</ele>
        <time>2011-09-04T16:41:07.000Z</time>
      </trkpt>
      <trkpt lat="43.6212" lon="7.09834">
        <ele>43.200000762939</ele>
        <time>2011-09-04T16:41:10.000Z</time>
      </trkpt>
      <trkpt lat="43.62136" lon="7.09836">
        <ele>43</ele>
        <time>2011-09-04T16:41:12.000Z</time>
      </trkpt>
      <trkpt lat="43.62144" lon="7.09838">
        <ele>42.799999237061</ele>
        <time>2011-09-04T16:41:13.000Z</time>
      </trkpt>
      <trkpt lat="43.62168" lon="7.09842">
        <ele>42.200000762939</ele>
        <time>2011-09-04T16:41:16.000Z</time>
      </trkpt>
      <trkpt lat="43.62181" lon="7.09845">
        <ele>39</ele>
        <time>2011-09-04T16:41:18.000Z</time>
      </trkpt>
      <trkpt lat="43.62188" lon="7.09848">
        <ele>37.400001525879</ele>
        <time>2011-09-04T16:41:19.000Z</time>
      </trkpt>
      <trkpt lat="43.62198" lon="7.09867">
        <ele>33</ele>
        <time>2011-09-04T16:41:22.000Z</time>
      </trkpt>
      <trkpt lat="43.62188" lon="7.09885">
        <ele>31.60000038147</ele>
        <time>2011-09-04T16:41:24.000Z</time>
      </trkpt>
      <trkpt lat="43.62167" lon="7.09901">
        <ele>31.60000038147</ele>
        <time>2011-09-04T16:41:27.000Z</time>
      </trkpt>
      <trkpt lat="43.62149" lon="7.09911">
        <ele>29.200000762939</ele>
        <time>2011-09-04T16:41:30.000Z</time>
      </trkpt>
      <trkpt lat="43.62144" lon="7.09914">
        <ele>28.200000762939</ele>
        <time>2011-09-04T16:41:31.000Z</time>
      </trkpt>
      <trkpt lat="43.62144" lon="7.09932">
        <ele>25.799999237061</ele>
        <time>2011-09-04T16:41:34.000Z</time>
      </trkpt>
      <trkpt lat="43.62155" lon="7.09937">
        <ele>25.60000038147</ele>
        <time>2011-09-04T16:41:36.000Z</time>
      </trkpt>
      <trkpt lat="43.62169" lon="7.09939">
        <ele>25.39999961853</ele>
        <time>2011-09-04T16:41:38.000Z</time>
      </trkpt>
      <trkpt lat="43.62182" lon="7.09943">
        <ele>24</ele>
        <time>2011-09-04T16:41:40.000Z</time>
      </trkpt>
      <trkpt lat="43.62201" lon="7.0995">
        <ele>22</ele>
        <time>2011-09-04T16:41:45.000Z</time>
      </trkpt>
      <trkpt lat="43.62201" lon="7.0995">
        <ele>22</ele>
        <time>2011-09-04T16:41:48.000Z</time>
      </trkpt>
      <trkpt lat="43.62201" lon="7.09951">
        <ele>21.799999237061</ele>
        <time>2011-09-04T16:41:53.000Z</time>
      </trkpt>
      <trkpt lat="43.62202" lon="7.09954">
        <ele>21.39999961853</ele>
        <time>2011-09-04T16:42:03.000Z</time>
      </trkpt>
      <trkpt lat="43.622" lon="7.09951">
        <ele>21.799999237061</ele>
        <time>2011-09-04T16:42:11.000Z</time>
      </trkpt>
      <trkpt lat="43.62201" lon="7.0995">
        <ele>22</ele>
        <time>2011-09-04T16:42:26.000Z</time>
      </trkpt>
      <trkpt lat="43.62199" lon="7.09949">
        <ele>22.200000762939</ele>
        <time>2011-09-04T16:42:45.000Z</time>
      </trkpt>
      <trkpt lat="43.622" lon="7.09951">
        <ele>21.799999237061</ele>
        <time>2011-09-04T16:42:52.000Z</time>
      </trkpt>
      <trkpt lat="43.62202" lon="7.09953">
        <ele>21.60000038147</ele>
        <time>2011-09-04T16:43:01.000Z</time>
      </trkpt>
      <trkpt lat="43.62201" lon="7.09953">
        <ele>21.60000038147</ele>
        <time>2011-09-04T16:43:05.000Z</time>
      </trkpt>
      <trkpt lat="43.62201" lon="7.0995">
        <ele>22</ele>
        <time>2011-09-04T16:43:14.000Z</time>
      </trkpt>
      <trkpt lat="43.622" lon="7.09952">
        <ele>21.799999237061</ele>
        <time>2011-09-04T16:43:25.000Z</time>
      </trkpt>
      <trkpt lat="43.622" lon="7.0995">
        <ele>22</ele>
        <time>2011-09-04T16:43:43.000Z</time>
      </trkpt>
      <trkpt lat="43.62199" lon="7.09951">
        <ele>22</ele>
        <time>2011-09-04T16:44:01.000Z</time>
      </trkpt>
      <trkpt lat="43.622" lon="7.09951">
        <ele>22</ele>
        <time>2011-09-04T16:44:18.000Z</time>
      </trkpt>
      <trkpt lat="43.62203" lon="7.09951">
        <ele>21.799999237061</ele>
        <time>2011-09-04T16:44:38.000Z</time>
      </trkpt>
      <trkpt lat="43.62201" lon="7.09952">
        <ele>21.799999237061</ele>
        <time>2011-09-04T16:44:46.000Z</time>
      </trkpt>
      <trkpt lat="43.62204" lon="7.09951">
        <ele>21.60000038147</ele>
        <time>2011-09-04T16:45:29.000Z</time>
      </trkpt>
    </trkseg>
  </trk>
</gpx>